<?xml version="1.0" encoding="UTF-8"?>
<gpx version="1.1" creator="2bulu-scraper" xmlns="http://www.topografix.com/GPX/1/1">
  <metadata><name>夹江大旗山大岩顶往返</name><desc>source: 2bulu.com trackId=82946132; exported 2026-09-01T16:18:19.905Z</desc>
    <bounds minlat="29.7415912" minlon="103.4007995" maxlat="29.7588537" maxlon="103.4259261"/>
    <link href="https://www.2bulu.com/track/t-Gy3N%252BtUNQU%252Fp%252FR2KBg5Tzw%253D%253D.htm"><text>2bulu 源页面</text></link>
  </metadata>
  <wpt lat="29.7583989" lon="103.4244573"><ele>1113</ele><name>
        </name></wpt>
  <wpt lat="29.7584914" lon="103.4242535"><ele>1110</ele><name>
        </name></wpt>
  <wpt lat="29.7588191" lon="103.4234724"><ele>1091</ele><name>
        </name></wpt>
  <wpt lat="29.7586304" lon="103.4227504"><ele>1079</ele><name>
        </name></wpt>
  <wpt lat="29.7585432" lon="103.4227464"><ele>1078</ele><name>
        </name></wpt>
  <wpt lat="29.7576977" lon="103.4237161"><ele>1051</ele><name>
        </name></wpt>
  <wpt lat="29.757706" lon="103.4236714"><ele>1050</ele><name>
        </name></wpt>
  <wpt lat="29.7572437" lon="103.4224489"><ele>1035</ele><name>
        </name></wpt>
  <wpt lat="29.7570548" lon="103.4223437"><ele>1041</ele><name>
        </name></wpt>
  <wpt lat="29.756885" lon="103.4224047"><ele>1043</ele><name>
        </name></wpt>
  <wpt lat="29.7558251" lon="103.4233481"><ele>1061</ele><name>
        </name></wpt>
  <wpt lat="29.7554236" lon="103.4237266"><ele>1070</ele><name>
        </name></wpt>
  <wpt lat="29.755385" lon="103.4235302"><ele>1068</ele><name>
        </name></wpt>
  <wpt lat="29.7553326" lon="103.4234745"><ele>1072</ele><name>
        </name></wpt>
  <wpt lat="29.7553767" lon="103.4230894"><ele>1066</ele><name>
        </name></wpt>
  <wpt lat="29.7552684" lon="103.4226128"><ele>1059</ele><name>
        </name></wpt>
  <wpt lat="29.7549705" lon="103.4216107"><ele>1061</ele><name>
        </name></wpt>
  <wpt lat="29.754305" lon="103.4203445"><ele>1065</ele><name>
        </name></wpt>
  <wpt lat="29.7538708" lon="103.4197286"><ele>1071</ele><name>
        </name></wpt>
  <wpt lat="29.7531588" lon="103.4186737"><ele>1089</ele><name>
        </name></wpt>
  <wpt lat="29.7530315" lon="103.4188618"><ele>1091</ele><name>
        </name></wpt>
  <wpt lat="29.7530315" lon="103.4188618"><ele>1091</ele><name>
        </name></wpt>
  <wpt lat="29.7530116" lon="103.4186597"><ele>1093</ele><name>
        </name></wpt>
  <wpt lat="29.7529884" lon="103.4186088"><ele>1096</ele><name>
        </name></wpt>
  <wpt lat="29.7530133" lon="103.4180932"><ele>1107</ele><name>
        </name></wpt>
  <wpt lat="29.7517073" lon="103.41652"><ele>1135</ele><name>
        </name></wpt>
  <wpt lat="29.7501666" lon="103.4143335"><ele>1154</ele><name>
        </name></wpt>
  <wpt lat="29.7497887" lon="103.4138589"><ele>1145</ele><name>
        </name></wpt>
  <wpt lat="29.7495674" lon="103.4136652"><ele>1149</ele><name>
        </name></wpt>
  <wpt lat="29.748775" lon="103.4122632"><ele>1143</ele><name>
        </name></wpt>
  <wpt lat="29.7480397" lon="103.411317"><ele>1151</ele><name>
        </name></wpt>
  <wpt lat="29.7471921" lon="103.4105223"><ele>1133</ele><name>
        </name></wpt>
  <wpt lat="29.74518" lon="103.4075964"><ele>1101</ele><name>
        </name></wpt>
  <wpt lat="29.7451397" lon="103.407624"><ele>1105</ele><name>
        </name></wpt>
  <wpt lat="29.744067" lon="103.4054213"><ele>1080</ele><name>
        </name></wpt>
  <wpt lat="29.7436968" lon="103.4052275"><ele>1075</ele><name>
        </name></wpt>
  <wpt lat="29.7435656" lon="103.4052886"><ele>1058</ele><name>
        </name></wpt>
  <wpt lat="29.7435656" lon="103.4052886"><ele>1058</ele><name>
        </name></wpt>
  <wpt lat="29.7436139" lon="103.4038339"><ele>1035</ele><name>
        </name></wpt>
  <wpt lat="29.7437817" lon="103.4037725"><ele>1032</ele><name>
        </name></wpt>
  <wpt lat="29.7439816" lon="103.4030816"><ele>1023</ele><name>
        </name></wpt>
  <wpt lat="29.7441704" lon="103.4025536"><ele>1021</ele><name>
        </name></wpt>
  <wpt lat="29.7442189" lon="103.4024663"><ele>1020</ele><name>
        </name></wpt>
  <wpt lat="29.7441163" lon="103.4008109"><ele>962</ele><name>
        </name></wpt>
  <wpt lat="29.7441163" lon="103.4008109"><ele>962</ele><name>
        </name></wpt>
  <wpt lat="29.7440155" lon="103.4010292"><ele>960</ele><name>
        </name></wpt>
  <wpt lat="29.7440155" lon="103.4010292"><ele>960</ele><name>
        </name></wpt>
  <wpt lat="29.7440155" lon="103.4010292"><ele>960</ele><name>
        </name></wpt>
  <wpt lat="29.7439627" lon="103.4010441"><ele>960</ele><name>
        </name></wpt>
  <wpt lat="29.7435096" lon="103.4012316"><ele>934</ele><name>
        </name></wpt>
  <wpt lat="29.7423332" lon="103.4012998"><ele>876</ele><name>
        </name></wpt>
  <wpt lat="29.7416665" lon="103.4012173"><ele>854</ele><name>
        </name></wpt>
  <wpt lat="29.741599" lon="103.4011574"><ele>843</ele><name>
        </name></wpt>
  <wpt lat="29.7548928" lon="103.4212461"><ele>1067</ele><name>
        </name></wpt>
  <wpt lat="29.755367" lon="103.4231463"><ele>1063</ele><name>
        </name></wpt>
  <wpt lat="29.7551857" lon="103.4233982"><ele>1066</ele><name>
        </name></wpt>
  <wpt lat="29.7551857" lon="103.4233982"><ele>1066</ele><name>
        </name></wpt>
  <wpt lat="29.7551947" lon="103.4231381"><ele>1069</ele><name>
        </name></wpt>
  <wpt lat="29.7585679" lon="103.4238139"><ele>1098</ele><name>
        </name></wpt>
  <wpt lat="29.7584911" lon="103.4250605"><ele>1118</ele><name>
        </name></wpt>
  <wpt lat="29.7584516" lon="103.4250503"><ele>1120</ele><name>
        </name></wpt>
  <wpt lat="29.7584877" lon="103.4250598"><ele>1119</ele><name>
        </name></wpt>
  <trk><name>夹江大旗山大岩顶往返</name>
      <trkseg>
        <trkpt lat="29.7586921" lon="103.4258936"><ele>1125.55</ele><time>2026-04-24T19:48:32.000Z</time></trkpt>
        <trkpt lat="29.7586926" lon="103.4258462"><ele>1125.55</ele><time>2026-04-24T19:48:36.000Z</time></trkpt>
        <trkpt lat="29.7586957" lon="103.4257985"><ele>1125.1</ele><time>2026-04-24T19:48:40.000Z</time></trkpt>
        <trkpt lat="29.7587326" lon="103.4257641"><ele>1125.37</ele><time>2026-04-24T19:48:46.000Z</time></trkpt>
        <trkpt lat="29.7587546" lon="103.4257163"><ele>1125.26</ele><time>2026-04-24T19:48:52.000Z</time></trkpt>
        <trkpt lat="29.7587476" lon="103.4256517"><ele>1124.11</ele><time>2026-04-24T19:48:56.000Z</time></trkpt>
        <trkpt lat="29.7587074" lon="103.4255943"><ele>1122.73</ele><time>2026-04-24T19:49:00.000Z</time></trkpt>
        <trkpt lat="29.7586461" lon="103.4255507"><ele>1122.23</ele><time>2026-04-24T19:49:06.000Z</time></trkpt>
        <trkpt lat="29.7586073" lon="103.4255014"><ele>1124.23</ele><time>2026-04-24T19:49:12.000Z</time></trkpt>
        <trkpt lat="29.758578" lon="103.4254501"><ele>1125.72</ele><time>2026-04-24T19:49:16.000Z</time></trkpt>
        <trkpt lat="29.7585583" lon="103.4254008"><ele>1125.74</ele><time>2026-04-24T19:49:20.000Z</time></trkpt>
        <trkpt lat="29.7585407" lon="103.4253413"><ele>1125.46</ele><time>2026-04-24T19:49:32.000Z</time></trkpt>
        <trkpt lat="29.758499" lon="103.4252864"><ele>1125.21</ele><time>2026-04-24T19:49:36.000Z</time></trkpt>
        <trkpt lat="29.7584662" lon="103.4252333"><ele>1124.48</ele><time>2026-04-24T19:49:40.000Z</time></trkpt>
        <trkpt lat="29.7584518" lon="103.4251671"><ele>1124.34</ele><time>2026-04-24T19:49:44.000Z</time></trkpt>
        <trkpt lat="29.7584335" lon="103.4251074"><ele>1123.38</ele><time>2026-04-24T19:49:48.000Z</time></trkpt>
        <trkpt lat="29.7584083" lon="103.4250435"><ele>1122.56</ele><time>2026-04-24T19:49:54.000Z</time></trkpt>
        <trkpt lat="29.7583775" lon="103.4249816"><ele>1122.23</ele><time>2026-04-24T19:50:00.000Z</time></trkpt>
        <trkpt lat="29.7583604" lon="103.4249149"><ele>1121.24</ele><time>2026-04-24T19:50:06.000Z</time></trkpt>
        <trkpt lat="29.7583544" lon="103.4248491"><ele>1120.01</ele><time>2026-04-24T19:50:10.000Z</time></trkpt>
        <trkpt lat="29.758366" lon="103.4247788"><ele>1119.22</ele><time>2026-04-24T19:50:16.000Z</time></trkpt>
        <trkpt lat="29.758387" lon="103.4247185"><ele>1118.83</ele><time>2026-04-24T19:50:20.000Z</time></trkpt>
        <trkpt lat="29.7583898" lon="103.4246648"><ele>1117.07</ele><time>2026-04-24T19:50:24.000Z</time></trkpt>
        <trkpt lat="29.75839" lon="103.4246049"><ele>1115.86</ele><time>2026-04-24T19:50:30.000Z</time></trkpt>
        <trkpt lat="29.7583913" lon="103.4245343"><ele>1115.31</ele><time>2026-04-24T19:50:36.000Z</time></trkpt>
        <trkpt lat="29.7583973" lon="103.4244742"><ele>1114.72</ele><time>2026-04-24T19:50:40.000Z</time></trkpt>
        <trkpt lat="29.7583989" lon="103.4244573"><ele>1114.07</ele><time>2026-04-24T19:50:42.000Z</time></trkpt>
        <trkpt lat="29.7584239" lon="103.4244142"><ele>1113.71</ele><time>2026-04-24T19:51:00.000Z</time></trkpt>
        <trkpt lat="29.7584617" lon="103.4243631"><ele>1112.9</ele><time>2026-04-24T19:51:06.000Z</time></trkpt>
        <trkpt lat="29.7584909" lon="103.4242952"><ele>1112.25</ele><time>2026-04-24T19:51:12.000Z</time></trkpt>
        <trkpt lat="29.7584914" lon="103.4242535"><ele>1111.42</ele><time>2026-04-24T19:51:18.000Z</time></trkpt>
        <trkpt lat="29.7585001" lon="103.424204"><ele>1111</ele><time>2026-04-24T19:51:28.000Z</time></trkpt>
        <trkpt lat="29.758509" lon="103.424152"><ele>1110.14</ele><time>2026-04-24T19:51:32.000Z</time></trkpt>
        <trkpt lat="29.7585248" lon="103.424103"><ele>1109.32</ele><time>2026-04-24T19:51:36.000Z</time></trkpt>
        <trkpt lat="29.7585388" lon="103.4240366"><ele>1107.94</ele><time>2026-04-24T19:51:42.000Z</time></trkpt>
        <trkpt lat="29.758537" lon="103.4239722"><ele>1106.35</ele><time>2026-04-24T19:51:46.000Z</time></trkpt>
        <trkpt lat="29.758543" lon="103.4239075"><ele>1103.85</ele><time>2026-04-24T19:51:50.000Z</time></trkpt>
        <trkpt lat="29.7585385" lon="103.4238334"><ele>1102.79</ele><time>2026-04-24T19:51:58.000Z</time></trkpt>
        <trkpt lat="29.7585432" lon="103.4237707"><ele>1102.02</ele><time>2026-04-24T19:52:02.000Z</time></trkpt>
        <trkpt lat="29.7585507" lon="103.4237137"><ele>1101.6</ele><time>2026-04-24T19:52:06.000Z</time></trkpt>
        <trkpt lat="29.7585614" lon="103.4236625"><ele>1100.49</ele><time>2026-04-24T19:52:10.000Z</time></trkpt>
        <trkpt lat="29.7585993" lon="103.4236158"><ele>1099.92</ele><time>2026-04-24T19:52:14.000Z</time></trkpt>
        <trkpt lat="29.758615" lon="103.4235643"><ele>1098.2</ele><time>2026-04-24T19:52:18.000Z</time></trkpt>
        <trkpt lat="29.7586557" lon="103.4235611"><ele>1096.47</ele><time>2026-04-24T19:52:22.000Z</time></trkpt>
        <trkpt lat="29.7587045" lon="103.4235587"><ele>1094.78</ele><time>2026-04-24T19:52:30.000Z</time></trkpt>
        <trkpt lat="29.7587525" lon="103.4235503"><ele>1093.38</ele><time>2026-04-24T19:52:34.000Z</time></trkpt>
        <trkpt lat="29.7587909" lon="103.4235177"><ele>1092.59</ele><time>2026-04-24T19:52:42.000Z</time></trkpt>
        <trkpt lat="29.7588191" lon="103.4234724"><ele>1092.22</ele><time>2026-04-24T19:52:48.000Z</time></trkpt>
        <trkpt lat="29.7588222" lon="103.423413"><ele>1091.9</ele><time>2026-04-24T19:53:02.000Z</time></trkpt>
        <trkpt lat="29.7588537" lon="103.4233661"><ele>1090.57</ele><time>2026-04-24T19:53:06.000Z</time></trkpt>
        <trkpt lat="29.7588451" lon="103.4233013"><ele>1090.36</ele><time>2026-04-24T19:53:12.000Z</time></trkpt>
        <trkpt lat="29.7588075" lon="103.4232448"><ele>1090.68</ele><time>2026-04-24T19:53:16.000Z</time></trkpt>
        <trkpt lat="29.7587711" lon="103.4231791"><ele>1090.7</ele><time>2026-04-24T19:53:20.000Z</time></trkpt>
        <trkpt lat="29.7587397" lon="103.4231197"><ele>1090.33</ele><time>2026-04-24T19:53:24.000Z</time></trkpt>
        <trkpt lat="29.758722" lon="103.4230632"><ele>1088.78</ele><time>2026-04-24T19:53:28.000Z</time></trkpt>
        <trkpt lat="29.7587249" lon="103.4230059"><ele>1086.74</ele><time>2026-04-24T19:53:32.000Z</time></trkpt>
        <trkpt lat="29.7587329" lon="103.4229522"><ele>1085.57</ele><time>2026-04-24T19:53:36.000Z</time></trkpt>
        <trkpt lat="29.7587105" lon="103.4229061"><ele>1085.21</ele><time>2026-04-24T19:53:40.000Z</time></trkpt>
        <trkpt lat="29.7586696" lon="103.4229059"><ele>1084.28</ele><time>2026-04-24T19:53:44.000Z</time></trkpt>
        <trkpt lat="29.7586426" lon="103.4228666"><ele>1083.19</ele><time>2026-04-24T19:53:50.000Z</time></trkpt>
        <trkpt lat="29.7586297" lon="103.4228084"><ele>1082.28</ele><time>2026-04-24T19:53:56.000Z</time></trkpt>
        <trkpt lat="29.7586304" lon="103.4227504"><ele>1081.3</ele><time>2026-04-24T19:54:02.000Z</time></trkpt>
        <trkpt lat="29.7585913" lon="103.4227441"><ele>1080.45</ele><time>2026-04-24T19:54:38.000Z</time></trkpt>
        <trkpt lat="29.7585432" lon="103.4227464"><ele>1079.75</ele><time>2026-04-24T19:54:44.000Z</time></trkpt>
        <trkpt lat="29.7584953" lon="103.4227405"><ele>1078.96</ele><time>2026-04-24T19:55:24.000Z</time></trkpt>
        <trkpt lat="29.7584617" lon="103.4227731"><ele>1080.36</ele><time>2026-04-24T19:55:53.000Z</time></trkpt>
        <trkpt lat="29.7584152" lon="103.4227724"><ele>1080.65</ele><time>2026-04-24T19:56:01.000Z</time></trkpt>
        <trkpt lat="29.7583657" lon="103.4227592"><ele>1080.74</ele><time>2026-04-24T19:56:07.000Z</time></trkpt>
        <trkpt lat="29.7583235" lon="103.4227765"><ele>1080.17</ele><time>2026-04-24T19:56:19.000Z</time></trkpt>
        <trkpt lat="29.7582711" lon="103.422775"><ele>1077.45</ele><time>2026-04-24T19:56:32.000Z</time></trkpt>
        <trkpt lat="29.7582377" lon="103.422816"><ele>1075.46</ele><time>2026-04-24T19:56:56.000Z</time></trkpt>
        <trkpt lat="29.7581971" lon="103.4228515"><ele>1073.16</ele><time>2026-04-24T19:57:04.000Z</time></trkpt>
        <trkpt lat="29.7581919" lon="103.4229108"><ele>1069.71</ele><time>2026-04-24T19:57:08.000Z</time></trkpt>
        <trkpt lat="29.75822" lon="103.4229774"><ele>1067.31</ele><time>2026-04-24T19:57:14.000Z</time></trkpt>
        <trkpt lat="29.7582281" lon="103.4230055"><ele>1065.4</ele><time>2026-04-24T19:57:16.000Z</time></trkpt>
        <trkpt lat="29.7582476" lon="103.4230591"><ele>1064.63</ele><time>2026-04-24T19:57:18.000Z</time></trkpt>
        <trkpt lat="29.7582877" lon="103.4230578"><ele>1063.88</ele><time>2026-04-24T19:57:22.000Z</time></trkpt>
        <trkpt lat="29.7583079" lon="103.4230228"><ele>1063.09</ele><time>2026-04-24T19:57:30.000Z</time></trkpt>
        <trkpt lat="29.7582893" lon="103.4230367"><ele>1061.88</ele><time>2026-04-24T19:57:40.000Z</time></trkpt>
        <trkpt lat="29.7582551" lon="103.4230724"><ele>1061.61</ele><time>2026-04-24T19:57:50.000Z</time></trkpt>
        <trkpt lat="29.7582134" lon="103.4231135"><ele>1061.69</ele><time>2026-04-24T19:57:56.000Z</time></trkpt>
        <trkpt lat="29.7581866" lon="103.4231636"><ele>1062.17</ele><time>2026-04-24T19:58:10.000Z</time></trkpt>
        <trkpt lat="29.7581546" lon="103.4232158"><ele>1062.37</ele><time>2026-04-24T19:58:18.000Z</time></trkpt>
        <trkpt lat="29.7581518" lon="103.4232705"><ele>1063.35</ele><time>2026-04-24T19:58:26.000Z</time></trkpt>
        <trkpt lat="29.7581831" lon="103.4233298"><ele>1063.82</ele><time>2026-04-24T19:58:32.000Z</time></trkpt>
        <trkpt lat="29.7581994" lon="103.4233907"><ele>1063.72</ele><time>2026-04-24T19:58:38.000Z</time></trkpt>
        <trkpt lat="29.7581748" lon="103.4234329"><ele>1063.84</ele><time>2026-04-24T19:58:46.000Z</time></trkpt>
        <trkpt lat="29.7581277" lon="103.423437"><ele>1063.91</ele><time>2026-04-24T19:58:52.000Z</time></trkpt>
        <trkpt lat="29.7580769" lon="103.4234106"><ele>1063.73</ele><time>2026-04-24T19:59:06.000Z</time></trkpt>
        <trkpt lat="29.7580236" lon="103.4234069"><ele>1065.32</ele><time>2026-04-24T19:59:16.000Z</time></trkpt>
        <trkpt lat="29.7579818" lon="103.42343"><ele>1065.13</ele><time>2026-04-24T19:59:22.000Z</time></trkpt>
        <trkpt lat="29.7579337" lon="103.4234673"><ele>1063.71</ele><time>2026-04-24T19:59:28.000Z</time></trkpt>
        <trkpt lat="29.7578801" lon="103.4234814"><ele>1062.24</ele><time>2026-04-24T19:59:40.000Z</time></trkpt>
        <trkpt lat="29.7578404" lon="103.4235232"><ele>1060.94</ele><time>2026-04-24T19:59:48.000Z</time></trkpt>
        <trkpt lat="29.7578172" lon="103.4235739"><ele>1057.43</ele><time>2026-04-24T19:59:52.000Z</time></trkpt>
        <trkpt lat="29.75782" lon="103.4236356"><ele>1054.11</ele><time>2026-04-24T19:59:58.000Z</time></trkpt>
        <trkpt lat="29.7578311" lon="103.4236985"><ele>1051.95</ele><time>2026-04-24T20:00:08.000Z</time></trkpt>
        <trkpt lat="29.7577931" lon="103.4237137"><ele>1050.32</ele><time>2026-04-24T20:00:14.000Z</time></trkpt>
        <trkpt lat="29.7577434" lon="103.4237057"><ele>1050.45</ele><time>2026-04-24T20:00:18.000Z</time></trkpt>
        <trkpt lat="29.7577327" lon="103.423697"><ele>1050.99</ele><time>2026-04-24T20:00:20.000Z</time></trkpt>
        <trkpt lat="29.7577016" lon="103.4237089"><ele>1051.65</ele><time>2026-04-24T20:00:28.000Z</time></trkpt>
        <trkpt lat="29.7576977" lon="103.4237161"><ele>1050.91</ele><time>2026-04-24T20:00:32.000Z</time></trkpt>
        <trkpt lat="29.757706" lon="103.4236714"><ele>1050.98</ele><time>2026-04-24T20:00:50.000Z</time></trkpt>
        <trkpt lat="29.7577361" lon="103.423601"><ele>1050.35</ele><time>2026-04-24T20:01:02.000Z</time></trkpt>
        <trkpt lat="29.7577769" lon="103.4235804"><ele>1050.59</ele><time>2026-04-24T20:01:06.000Z</time></trkpt>
        <trkpt lat="29.7578106" lon="103.4235298"><ele>1051.63</ele><time>2026-04-24T20:01:12.000Z</time></trkpt>
        <trkpt lat="29.7578359" lon="103.4234791"><ele>1052.72</ele><time>2026-04-24T20:01:18.000Z</time></trkpt>
        <trkpt lat="29.7578749" lon="103.4234317"><ele>1051.42</ele><time>2026-04-24T20:01:28.000Z</time></trkpt>
        <trkpt lat="29.757884" lon="103.4233958"><ele>1049.5</ele><time>2026-04-24T20:01:34.000Z</time></trkpt>
        <trkpt lat="29.7578827" lon="103.4233479"><ele>1047.08</ele><time>2026-04-24T20:01:40.000Z</time></trkpt>
        <trkpt lat="29.7578486" lon="103.4233169"><ele>1045.27</ele><time>2026-04-24T20:01:48.000Z</time></trkpt>
        <trkpt lat="29.7578557" lon="103.4232758"><ele>1043.57</ele><time>2026-04-24T20:01:52.000Z</time></trkpt>
        <trkpt lat="29.7578522" lon="103.423287"><ele>1042.55</ele><time>2026-04-24T20:01:54.000Z</time></trkpt>
        <trkpt lat="29.757862" lon="103.4232544"><ele>1042.22</ele><time>2026-04-24T20:02:04.000Z</time></trkpt>
        <trkpt lat="29.7578827" lon="103.4231933"><ele>1040.36</ele><time>2026-04-24T20:02:12.000Z</time></trkpt>
        <trkpt lat="29.7579117" lon="103.4231341"><ele>1039.48</ele><time>2026-04-24T20:02:16.000Z</time></trkpt>
        <trkpt lat="29.7579146" lon="103.4230689"><ele>1039.01</ele><time>2026-04-24T20:02:20.000Z</time></trkpt>
        <trkpt lat="29.7578775" lon="103.4230222"><ele>1039.18</ele><time>2026-04-24T20:02:28.000Z</time></trkpt>
        <trkpt lat="29.757831" lon="103.4229769"><ele>1039.56</ele><time>2026-04-24T20:02:34.000Z</time></trkpt>
        <trkpt lat="29.757828" lon="103.4229676"><ele>1039.07</ele><time>2026-04-24T20:02:36.000Z</time></trkpt>
        <trkpt lat="29.757808" lon="103.4229227"><ele>1038.83</ele><time>2026-04-24T20:02:44.000Z</time></trkpt>
        <trkpt lat="29.7578122" lon="103.4228592"><ele>1038.57</ele><time>2026-04-24T20:02:48.000Z</time></trkpt>
        <trkpt lat="29.7577981" lon="103.4228361"><ele>1038.39</ele><time>2026-04-24T20:02:50.000Z</time></trkpt>
        <trkpt lat="29.7577587" lon="103.4228335"><ele>1038.53</ele><time>2026-04-24T20:03:02.000Z</time></trkpt>
        <trkpt lat="29.7577419" lon="103.4227848"><ele>1039.07</ele><time>2026-04-24T20:04:13.000Z</time></trkpt>
        <trkpt lat="29.7576863" lon="103.4227668"><ele>1039.86</ele><time>2026-04-24T20:04:23.000Z</time></trkpt>
        <trkpt lat="29.7576879" lon="103.4227173"><ele>1039.44</ele><time>2026-04-24T20:04:27.000Z</time></trkpt>
        <trkpt lat="29.7576451" lon="103.4226803"><ele>1039.28</ele><time>2026-04-24T20:04:33.000Z</time></trkpt>
        <trkpt lat="29.7575979" lon="103.4226553"><ele>1039.09</ele><time>2026-04-24T20:04:39.000Z</time></trkpt>
        <trkpt lat="29.7575443" lon="103.4226447"><ele>1037.14</ele><time>2026-04-24T20:04:43.000Z</time></trkpt>
        <trkpt lat="29.7575151" lon="103.4226884"><ele>1036.13</ele><time>2026-04-24T20:04:51.000Z</time></trkpt>
        <trkpt lat="29.7574868" lon="103.4226718"><ele>1033.25</ele><time>2026-04-24T20:05:11.000Z</time></trkpt>
        <trkpt lat="29.7574315" lon="103.4226577"><ele>1031.95</ele><time>2026-04-24T20:05:29.000Z</time></trkpt>
        <trkpt lat="29.7573762" lon="103.4226471"><ele>1031.92</ele><time>2026-04-24T20:05:33.000Z</time></trkpt>
        <trkpt lat="29.7573511" lon="103.4226437"><ele>1032.57</ele><time>2026-04-24T20:05:41.000Z</time></trkpt>
        <trkpt lat="29.7573069" lon="103.42267"><ele>1032.36</ele><time>2026-04-24T20:06:03.000Z</time></trkpt>
        <trkpt lat="29.7572731" lon="103.4226472"><ele>1031.25</ele><time>2026-04-24T20:06:25.000Z</time></trkpt>
        <trkpt lat="29.7572708" lon="103.4225907"><ele>1031.45</ele><time>2026-04-24T20:06:29.000Z</time></trkpt>
        <trkpt lat="29.7572703" lon="103.4225317"><ele>1031.38</ele><time>2026-04-24T20:06:37.000Z</time></trkpt>
        <trkpt lat="29.7572527" lon="103.4224703"><ele>1030.84</ele><time>2026-04-24T20:07:06.000Z</time></trkpt>
        <trkpt lat="29.7572437" lon="103.4224489"><ele>1032.69</ele><time>2026-04-24T20:07:08.000Z</time></trkpt>
        <trkpt lat="29.7572526" lon="103.4224057"><ele>1033.63</ele><time>2026-04-24T20:07:48.000Z</time></trkpt>
        <trkpt lat="29.7572562" lon="103.4223973"><ele>1032.8</ele><time>2026-04-24T20:07:50.000Z</time></trkpt>
        <trkpt lat="29.7572313" lon="103.4223742"><ele>1032.73</ele><time>2026-04-24T20:08:11.000Z</time></trkpt>
        <trkpt lat="29.7571949" lon="103.422343"><ele>1033.78</ele><time>2026-04-24T20:08:37.000Z</time></trkpt>
        <trkpt lat="29.7571437" lon="103.4223303"><ele>1034.4</ele><time>2026-04-24T20:08:59.000Z</time></trkpt>
        <trkpt lat="29.7571099" lon="103.4223301"><ele>1034.44</ele><time>2026-04-24T20:09:03.000Z</time></trkpt>
        <trkpt lat="29.7570548" lon="103.4223437"><ele>1035.32</ele><time>2026-04-24T20:09:21.000Z</time></trkpt>
        <trkpt lat="29.7570106" lon="103.4223739"><ele>1037.6</ele><time>2026-04-24T20:09:35.000Z</time></trkpt>
        <trkpt lat="29.756962" lon="103.4223819"><ele>1037.41</ele><time>2026-04-24T20:09:41.000Z</time></trkpt>
        <trkpt lat="29.756909" lon="103.422379"><ele>1036.74</ele><time>2026-04-24T20:09:49.000Z</time></trkpt>
        <trkpt lat="29.756885" lon="103.4224047"><ele>1038.57</ele><time>2026-04-24T20:09:55.000Z</time></trkpt>
        <trkpt lat="29.7568449" lon="103.4224318"><ele>1040.39</ele><time>2026-04-24T20:10:25.000Z</time></trkpt>
        <trkpt lat="29.756798" lon="103.4224389"><ele>1043.9</ele><time>2026-04-24T20:10:46.000Z</time></trkpt>
        <trkpt lat="29.7567413" lon="103.4224294"><ele>1046.6</ele><time>2026-04-24T20:10:54.000Z</time></trkpt>
        <trkpt lat="29.7566845" lon="103.422446"><ele>1049.64</ele><time>2026-04-24T20:11:00.000Z</time></trkpt>
        <trkpt lat="29.7566344" lon="103.4224546"><ele>1051.55</ele><time>2026-04-24T20:11:06.000Z</time></trkpt>
        <trkpt lat="29.7565884" lon="103.4224527"><ele>1053.11</ele><time>2026-04-24T20:11:14.000Z</time></trkpt>
        <trkpt lat="29.7565642" lon="103.4224915"><ele>1054.92</ele><time>2026-04-24T20:11:25.000Z</time></trkpt>
        <trkpt lat="29.7565295" lon="103.4225415"><ele>1055.81</ele><time>2026-04-24T20:11:39.000Z</time></trkpt>
        <trkpt lat="29.7564952" lon="103.4226085"><ele>1055.4</ele><time>2026-04-24T20:11:43.000Z</time></trkpt>
        <trkpt lat="29.7564779" lon="103.4226559"><ele>1054.58</ele><time>2026-04-24T20:11:47.000Z</time></trkpt>
        <trkpt lat="29.7564402" lon="103.422681"><ele>1054.02</ele><time>2026-04-24T20:11:55.000Z</time></trkpt>
        <trkpt lat="29.7564045" lon="103.4227222"><ele>1054.08</ele><time>2026-04-24T20:12:07.000Z</time></trkpt>
        <trkpt lat="29.7563703" lon="103.4227747"><ele>1053.35</ele><time>2026-04-24T20:12:43.000Z</time></trkpt>
        <trkpt lat="29.756338" lon="103.4228215"><ele>1053.38</ele><time>2026-04-24T20:12:57.000Z</time></trkpt>
        <trkpt lat="29.7562961" lon="103.4228637"><ele>1053.72</ele><time>2026-04-24T20:13:11.000Z</time></trkpt>
        <trkpt lat="29.7562614" lon="103.4229028"><ele>1054.32</ele><time>2026-04-24T20:13:21.000Z</time></trkpt>
        <trkpt lat="29.7562194" lon="103.4229411"><ele>1054.44</ele><time>2026-04-24T20:13:31.000Z</time></trkpt>
        <trkpt lat="29.756183" lon="103.4229819"><ele>1054.9</ele><time>2026-04-24T20:13:43.000Z</time></trkpt>
        <trkpt lat="29.7561435" lon="103.4230341"><ele>1055.5</ele><time>2026-04-24T20:13:51.000Z</time></trkpt>
        <trkpt lat="29.7561079" lon="103.4230752"><ele>1055.56</ele><time>2026-04-24T20:13:55.000Z</time></trkpt>
        <trkpt lat="29.7560633" lon="103.4230658"><ele>1054.84</ele><time>2026-04-24T20:14:01.000Z</time></trkpt>
        <trkpt lat="29.7560187" lon="103.4230923"><ele>1055.33</ele><time>2026-04-24T20:14:11.000Z</time></trkpt>
        <trkpt lat="29.7559744" lon="103.4231317"><ele>1055.66</ele><time>2026-04-24T20:14:25.000Z</time></trkpt>
        <trkpt lat="29.7559337" lon="103.4231665"><ele>1055.41</ele><time>2026-04-24T20:14:43.000Z</time></trkpt>
        <trkpt lat="29.7558934" lon="103.4231972"><ele>1055.62</ele><time>2026-04-24T20:15:27.000Z</time></trkpt>
        <trkpt lat="29.7558934" lon="103.4231972"><ele>1055.62</ele><time>2026-04-24T20:16:00.000Z</time></trkpt>
        <trkpt lat="29.7558531" lon="103.4232312"><ele>1056.68</ele><time>2026-04-24T20:16:07.000Z</time></trkpt>
        <trkpt lat="29.7558531" lon="103.4232312"><ele>1056.68</ele><time>2026-04-24T20:16:10.000Z</time></trkpt>
        <trkpt lat="29.7558378" lon="103.4232924"><ele>1055.48</ele><time>2026-04-24T20:16:47.000Z</time></trkpt>
        <trkpt lat="29.7558251" lon="103.4233481"><ele>1056.55</ele><time>2026-04-24T20:17:05.000Z</time></trkpt>
        <trkpt lat="29.7558066" lon="103.4234096"><ele>1058.63</ele><time>2026-04-24T20:17:29.000Z</time></trkpt>
        <trkpt lat="29.75579" lon="103.4234659"><ele>1058.95</ele><time>2026-04-24T20:17:43.000Z</time></trkpt>
        <trkpt lat="29.7557462" lon="103.4235016"><ele>1059.27</ele><time>2026-04-24T20:17:49.000Z</time></trkpt>
        <trkpt lat="29.7557014" lon="103.4235341"><ele>1059.75</ele><time>2026-04-24T20:17:55.000Z</time></trkpt>
        <trkpt lat="29.755664" lon="103.4235721"><ele>1061.09</ele><time>2026-04-24T20:18:03.000Z</time></trkpt>
        <trkpt lat="29.7556281" lon="103.4236203"><ele>1062.39</ele><time>2026-04-24T20:18:11.000Z</time></trkpt>
        <trkpt lat="29.7555944" lon="103.423665"><ele>1063.64</ele><time>2026-04-24T20:18:17.000Z</time></trkpt>
        <trkpt lat="29.7555586" lon="103.4237086"><ele>1066</ele><time>2026-04-24T20:18:25.000Z</time></trkpt>
        <trkpt lat="29.7555112" lon="103.4237498"><ele>1068.51</ele><time>2026-04-24T20:18:51.000Z</time></trkpt>
        <trkpt lat="29.7554722" lon="103.423731"><ele>1069.26</ele><time>2026-04-24T20:19:25.000Z</time></trkpt>
        <trkpt lat="29.7554236" lon="103.4237266"><ele>1070.17</ele><time>2026-04-24T20:19:35.000Z</time></trkpt>
        <trkpt lat="29.7553763" lon="103.4237289"><ele>1070.16</ele><time>2026-04-24T20:19:47.000Z</time></trkpt>
        <trkpt lat="29.7553592" lon="103.4236857"><ele>1069.38</ele><time>2026-04-24T20:19:59.000Z</time></trkpt>
        <trkpt lat="29.7553484" lon="103.4236263"><ele>1067.54</ele><time>2026-04-24T20:20:05.000Z</time></trkpt>
        <trkpt lat="29.7553776" lon="103.4235723"><ele>1066.51</ele><time>2026-04-24T20:20:11.000Z</time></trkpt>
        <trkpt lat="29.755385" lon="103.4235302"><ele>1066.07</ele><time>2026-04-24T20:20:21.000Z</time></trkpt>
        <trkpt lat="29.7553655" lon="103.4234834"><ele>1067.06</ele><time>2026-04-24T20:20:35.000Z</time></trkpt>
        <trkpt lat="29.7553623" lon="103.423429"><ele>1068.31</ele><time>2026-04-24T20:21:33.000Z</time></trkpt>
        <trkpt lat="29.7553326" lon="103.4234745"><ele>1069.33</ele><time>2026-04-24T20:22:50.000Z</time></trkpt>
        <trkpt lat="29.7553507" lon="103.423411"><ele>1070.51</ele><time>2026-04-24T20:23:18.000Z</time></trkpt>
        <trkpt lat="29.7553469" lon="103.4233497"><ele>1070.69</ele><time>2026-04-24T20:23:30.000Z</time></trkpt>
        <trkpt lat="29.7553401" lon="103.4232888"><ele>1070.92</ele><time>2026-04-24T20:23:38.000Z</time></trkpt>
        <trkpt lat="29.7553505" lon="103.4232143"><ele>1070</ele><time>2026-04-24T20:23:52.000Z</time></trkpt>
        <trkpt lat="29.7553597" lon="103.4231487"><ele>1068.15</ele><time>2026-04-24T20:23:56.000Z</time></trkpt>
        <trkpt lat="29.7553767" lon="103.4230894"><ele>1067.23</ele><time>2026-04-24T20:24:04.000Z</time></trkpt>
        <trkpt lat="29.755385" lon="103.423016"><ele>1066.77</ele><time>2026-04-24T20:25:41.000Z</time></trkpt>
        <trkpt lat="29.755374" lon="103.4229394"><ele>1065.97</ele><time>2026-04-24T20:25:45.000Z</time></trkpt>
        <trkpt lat="29.7553363" lon="103.4228716"><ele>1063.69</ele><time>2026-04-24T20:25:49.000Z</time></trkpt>
        <trkpt lat="29.7553147" lon="103.4228144"><ele>1061.85</ele><time>2026-04-24T20:25:53.000Z</time></trkpt>
        <trkpt lat="29.7553017" lon="103.4227579"><ele>1059.96</ele><time>2026-04-24T20:25:57.000Z</time></trkpt>
        <trkpt lat="29.7552848" lon="103.4227007"><ele>1057.79</ele><time>2026-04-24T20:26:01.000Z</time></trkpt>
        <trkpt lat="29.7552839" lon="103.4226427"><ele>1057.06</ele><time>2026-04-24T20:26:05.000Z</time></trkpt>
        <trkpt lat="29.7552684" lon="103.4226128"><ele>1056.66</ele><time>2026-04-24T20:26:17.000Z</time></trkpt>
        <trkpt lat="29.7552328" lon="103.4225923"><ele>1057.72</ele><time>2026-04-24T20:26:49.000Z</time></trkpt>
        <trkpt lat="29.7552166" lon="103.4225462"><ele>1059.43</ele><time>2026-04-24T20:27:03.000Z</time></trkpt>
        <trkpt lat="29.7552359" lon="103.4224971"><ele>1060.83</ele><time>2026-04-24T20:27:15.000Z</time></trkpt>
        <trkpt lat="29.7552446" lon="103.4224329"><ele>1061.66</ele><time>2026-04-24T20:27:23.000Z</time></trkpt>
        <trkpt lat="29.7552347" lon="103.4223665"><ele>1062.53</ele><time>2026-04-24T20:27:31.000Z</time></trkpt>
        <trkpt lat="29.7552137" lon="103.4223047"><ele>1062.56</ele><time>2026-04-24T20:27:35.000Z</time></trkpt>
        <trkpt lat="29.7551705" lon="103.4222498"><ele>1062.56</ele><time>2026-04-24T20:27:41.000Z</time></trkpt>
        <trkpt lat="29.7551293" lon="103.4222104"><ele>1061.74</ele><time>2026-04-24T20:27:45.000Z</time></trkpt>
        <trkpt lat="29.7550872" lon="103.4221654"><ele>1061.93</ele><time>2026-04-24T20:27:51.000Z</time></trkpt>
        <trkpt lat="29.7550611" lon="103.4221135"><ele>1061.94</ele><time>2026-04-24T20:27:57.000Z</time></trkpt>
        <trkpt lat="29.7550611" lon="103.4221135"><ele>1061.94</ele><time>2026-04-24T20:28:42.000Z</time></trkpt>
        <trkpt lat="29.7550611" lon="103.4221135"><ele>1061.94</ele><time>2026-04-24T20:28:51.000Z</time></trkpt>
        <trkpt lat="29.7550611" lon="103.4221135"><ele>1061.94</ele><time>2026-04-24T20:29:14.000Z</time></trkpt>
        <trkpt lat="29.7550538" lon="103.4220485"><ele>1062.22</ele><time>2026-04-24T20:29:29.000Z</time></trkpt>
        <trkpt lat="29.7550538" lon="103.4220485"><ele>1062.22</ele><time>2026-04-24T20:30:18.000Z</time></trkpt>
        <trkpt lat="29.7550556" lon="103.4219668"><ele>1062.3</ele><time>2026-04-24T20:30:24.000Z</time></trkpt>
        <trkpt lat="29.7550545" lon="103.4218911"><ele>1062.37</ele><time>2026-04-24T20:30:30.000Z</time></trkpt>
        <trkpt lat="29.7550383" lon="103.4218306"><ele>1062.31</ele><time>2026-04-24T20:30:34.000Z</time></trkpt>
        <trkpt lat="29.7550136" lon="103.4217808"><ele>1062.34</ele><time>2026-04-24T20:30:38.000Z</time></trkpt>
        <trkpt lat="29.7549868" lon="103.4217354"><ele>1062.59</ele><time>2026-04-24T20:30:42.000Z</time></trkpt>
        <trkpt lat="29.7549628" lon="103.4216767"><ele>1062.98</ele><time>2026-04-24T20:30:48.000Z</time></trkpt>
        <trkpt lat="29.7549809" lon="103.4216472"><ele>1062.77</ele><time>2026-04-24T20:30:54.000Z</time></trkpt>
        <trkpt lat="29.7549705" lon="103.4216107"><ele>1062.26</ele><time>2026-04-24T20:31:30.000Z</time></trkpt>
        <trkpt lat="29.7549985" lon="103.4215729"><ele>1061.92</ele><time>2026-04-24T20:33:16.000Z</time></trkpt>
        <trkpt lat="29.7550074" lon="103.4215147"><ele>1062.02</ele><time>2026-04-24T20:33:32.000Z</time></trkpt>
        <trkpt lat="29.7550141" lon="103.421459"><ele>1062.8</ele><time>2026-04-24T20:33:40.000Z</time></trkpt>
        <trkpt lat="29.7550343" lon="103.4214092"><ele>1063.72</ele><time>2026-04-24T20:33:46.000Z</time></trkpt>
        <trkpt lat="29.7550383" lon="103.4213954"><ele>1065.23</ele><time>2026-04-24T20:33:48.000Z</time></trkpt>
        <trkpt lat="29.7550045" lon="103.4213583"><ele>1066.02</ele><time>2026-04-24T20:34:07.000Z</time></trkpt>
        <trkpt lat="29.7549587" lon="103.4213087"><ele>1066.76</ele><time>2026-04-24T20:34:13.000Z</time></trkpt>
        <trkpt lat="29.754918" lon="103.4212674"><ele>1067.54</ele><time>2026-04-24T20:34:17.000Z</time></trkpt>
        <trkpt lat="29.7548734" lon="103.4212373"><ele>1068.44</ele><time>2026-04-24T20:34:25.000Z</time></trkpt>
        <trkpt lat="29.7548379" lon="103.4211902"><ele>1068.41</ele><time>2026-04-24T20:34:41.000Z</time></trkpt>
        <trkpt lat="29.7548115" lon="103.4211439"><ele>1068.48</ele><time>2026-04-24T20:34:47.000Z</time></trkpt>
        <trkpt lat="29.7548027" lon="103.4211195"><ele>1068.3</ele><time>2026-04-24T20:34:51.000Z</time></trkpt>
        <trkpt lat="29.7547919" lon="103.421079"><ele>1068.07</ele><time>2026-04-24T20:35:03.000Z</time></trkpt>
        <trkpt lat="29.7547502" lon="103.4210432"><ele>1068.26</ele><time>2026-04-24T20:35:17.000Z</time></trkpt>
        <trkpt lat="29.7547122" lon="103.4209996"><ele>1067.89</ele><time>2026-04-24T20:35:21.000Z</time></trkpt>
        <trkpt lat="29.7546669" lon="103.420941"><ele>1067.66</ele><time>2026-04-24T20:35:27.000Z</time></trkpt>
        <trkpt lat="29.75464" lon="103.4209655"><ele>1067.39</ele><time>2026-04-24T20:35:39.000Z</time></trkpt>
        <trkpt lat="29.7546518" lon="103.4210175"><ele>1067.98</ele><time>2026-04-24T20:36:11.000Z</time></trkpt>
        <trkpt lat="29.7546563" lon="103.4209901"><ele>1068.62</ele><time>2026-04-24T20:36:33.000Z</time></trkpt>
        <trkpt lat="29.7546531" lon="103.420928"><ele>1068.41</ele><time>2026-04-24T20:36:37.000Z</time></trkpt>
        <trkpt lat="29.7546305" lon="103.4208717"><ele>1068.06</ele><time>2026-04-24T20:36:41.000Z</time></trkpt>
        <trkpt lat="29.75459" lon="103.4208239"><ele>1067.15</ele><time>2026-04-24T20:36:45.000Z</time></trkpt>
        <trkpt lat="29.7545531" lon="103.4207727"><ele>1066.72</ele><time>2026-04-24T20:36:49.000Z</time></trkpt>
        <trkpt lat="29.7545169" lon="103.4207215"><ele>1066.29</ele><time>2026-04-24T20:36:55.000Z</time></trkpt>
        <trkpt lat="29.7544969" lon="103.4206703"><ele>1065.93</ele><time>2026-04-24T20:36:59.000Z</time></trkpt>
        <trkpt lat="29.754484" lon="103.420602"><ele>1066.07</ele><time>2026-04-24T20:37:05.000Z</time></trkpt>
        <trkpt lat="29.7544378" lon="103.4205492"><ele>1065.43</ele><time>2026-04-24T20:37:11.000Z</time></trkpt>
        <trkpt lat="29.7543939" lon="103.4204952"><ele>1065.18</ele><time>2026-04-24T20:37:17.000Z</time></trkpt>
        <trkpt lat="29.7543687" lon="103.420465"><ele>1064.97</ele><time>2026-04-24T20:37:21.000Z</time></trkpt>
        <trkpt lat="29.754346" lon="103.4204217"><ele>1065.35</ele><time>2026-04-24T20:38:08.000Z</time></trkpt>
        <trkpt lat="29.7543213" lon="103.4203797"><ele>1064.62</ele><time>2026-04-24T20:38:12.000Z</time></trkpt>
        <trkpt lat="29.7543091" lon="103.4203816"><ele>1064.88</ele><time>2026-04-24T20:38:16.000Z</time></trkpt>
        <trkpt lat="29.754305" lon="103.4203445"><ele>1065.03</ele><time>2026-04-24T20:38:36.000Z</time></trkpt>
        <trkpt lat="29.7542937" lon="103.4202917"><ele>1064.81</ele><time>2026-04-24T20:39:22.000Z</time></trkpt>
        <trkpt lat="29.7542876" lon="103.4202512"><ele>1063.34</ele><time>2026-04-24T20:39:28.000Z</time></trkpt>
        <trkpt lat="29.7543098" lon="103.4202096"><ele>1063.04</ele><time>2026-04-24T20:39:50.000Z</time></trkpt>
        <trkpt lat="29.7542982" lon="103.4201654"><ele>1063.23</ele><time>2026-04-24T20:40:14.000Z</time></trkpt>
        <trkpt lat="29.7542677" lon="103.42012"><ele>1063.93</ele><time>2026-04-24T20:40:24.000Z</time></trkpt>
        <trkpt lat="29.7542185" lon="103.4200749"><ele>1063.93</ele><time>2026-04-24T20:40:30.000Z</time></trkpt>
        <trkpt lat="29.7541676" lon="103.420033"><ele>1064.72</ele><time>2026-04-24T20:40:36.000Z</time></trkpt>
        <trkpt lat="29.7541207" lon="103.4199879"><ele>1065.46</ele><time>2026-04-24T20:40:44.000Z</time></trkpt>
        <trkpt lat="29.7540755" lon="103.4199595"><ele>1066.55</ele><time>2026-04-24T20:41:00.000Z</time></trkpt>
        <trkpt lat="29.7540599" lon="103.4199088"><ele>1067.34</ele><time>2026-04-24T20:41:06.000Z</time></trkpt>
        <trkpt lat="29.7540374" lon="103.4198369"><ele>1068.51</ele><time>2026-04-24T20:41:20.000Z</time></trkpt>
        <trkpt lat="29.7539961" lon="103.4197898"><ele>1070.06</ele><time>2026-04-24T20:41:26.000Z</time></trkpt>
        <trkpt lat="29.7539443" lon="103.4197614"><ele>1070.41</ele><time>2026-04-24T20:41:32.000Z</time></trkpt>
        <trkpt lat="29.7538853" lon="103.4197353"><ele>1070.26</ele><time>2026-04-24T20:41:38.000Z</time></trkpt>
        <trkpt lat="29.7538708" lon="103.4197286"><ele>1070.68</ele><time>2026-04-24T20:41:40.000Z</time></trkpt>
        <trkpt lat="29.7538365" lon="103.4197032"><ele>1070.88</ele><time>2026-04-24T20:41:58.000Z</time></trkpt>
        <trkpt lat="29.7538068" lon="103.4196639"><ele>1070.8</ele><time>2026-04-24T20:42:02.000Z</time></trkpt>
        <trkpt lat="29.753767" lon="103.41962"><ele>1071.03</ele><time>2026-04-24T20:42:10.000Z</time></trkpt>
        <trkpt lat="29.7537136" lon="103.4195933"><ele>1072.23</ele><time>2026-04-24T20:42:16.000Z</time></trkpt>
        <trkpt lat="29.7536647" lon="103.4195723"><ele>1073.75</ele><time>2026-04-24T20:42:20.000Z</time></trkpt>
        <trkpt lat="29.7536127" lon="103.4195297"><ele>1075.17</ele><time>2026-04-24T20:42:27.000Z</time></trkpt>
        <trkpt lat="29.7535638" lon="103.4195245"><ele>1075.43</ele><time>2026-04-24T20:42:33.000Z</time></trkpt>
        <trkpt lat="29.7535269" lon="103.4194777"><ele>1075.04</ele><time>2026-04-24T20:43:07.000Z</time></trkpt>
        <trkpt lat="29.7535104" lon="103.4194213"><ele>1075.6</ele><time>2026-04-24T20:43:13.000Z</time></trkpt>
        <trkpt lat="29.753476" lon="103.4194116"><ele>1076.04</ele><time>2026-04-24T20:43:17.000Z</time></trkpt>
        <trkpt lat="29.7534276" lon="103.4193818"><ele>1076.38</ele><time>2026-04-24T20:43:23.000Z</time></trkpt>
        <trkpt lat="29.753387" lon="103.4193415"><ele>1076.64</ele><time>2026-04-24T20:43:27.000Z</time></trkpt>
        <trkpt lat="29.7533753" lon="103.4193243"><ele>1077.29</ele><time>2026-04-24T20:43:29.000Z</time></trkpt>
        <trkpt lat="29.7533438" lon="103.4192922"><ele>1077.63</ele><time>2026-04-24T20:43:33.000Z</time></trkpt>
        <trkpt lat="29.753346" lon="103.4192936"><ele>1077.79</ele><time>2026-04-24T20:43:35.000Z</time></trkpt>
        <trkpt lat="29.7533163" lon="103.4192815"><ele>1078.24</ele><time>2026-04-24T20:44:02.000Z</time></trkpt>
        <trkpt lat="29.7532961" lon="103.419296"><ele>1079.06</ele><time>2026-04-24T20:44:06.000Z</time></trkpt>
        <trkpt lat="29.7533111" lon="103.4192596"><ele>1080.17</ele><time>2026-04-24T20:44:28.000Z</time></trkpt>
        <trkpt lat="29.7533056" lon="103.4192068"><ele>1080.97</ele><time>2026-04-24T20:44:40.000Z</time></trkpt>
        <trkpt lat="29.7532919" lon="103.4191508"><ele>1081.62</ele><time>2026-04-24T20:44:56.000Z</time></trkpt>
        <trkpt lat="29.7532424" lon="103.4191266"><ele>1081.96</ele><time>2026-04-24T20:45:22.000Z</time></trkpt>
        <trkpt lat="29.7532166" lon="103.4190849"><ele>1081.81</ele><time>2026-04-24T20:45:28.000Z</time></trkpt>
        <trkpt lat="29.7531834" lon="103.4190465"><ele>1083.02</ele><time>2026-04-24T20:46:24.000Z</time></trkpt>
        <trkpt lat="29.7531676" lon="103.4189964"><ele>1084.45</ele><time>2026-04-24T20:46:32.000Z</time></trkpt>
        <trkpt lat="29.7531723" lon="103.4189425"><ele>1085.06</ele><time>2026-04-24T20:46:38.000Z</time></trkpt>
        <trkpt lat="29.7531555" lon="103.4188881"><ele>1084.89</ele><time>2026-04-24T20:46:44.000Z</time></trkpt>
        <trkpt lat="29.7531473" lon="103.4188316"><ele>1084.92</ele><time>2026-04-24T20:46:50.000Z</time></trkpt>
        <trkpt lat="29.7531514" lon="103.4187776"><ele>1085.48</ele><time>2026-04-24T20:46:56.000Z</time></trkpt>
        <trkpt lat="29.7531553" lon="103.4187093"><ele>1086.81</ele><time>2026-04-24T20:47:00.000Z</time></trkpt>
        <trkpt lat="29.7531588" lon="103.4186737"><ele>1087.32</ele><time>2026-04-24T20:47:06.000Z</time></trkpt>
        <trkpt lat="29.7531595" lon="103.418627"><ele>1088.17</ele><time>2026-04-24T20:47:30.000Z</time></trkpt>
        <trkpt lat="29.7531565" lon="103.4186634"><ele>1087.49</ele><time>2026-04-24T20:48:12.000Z</time></trkpt>
        <trkpt lat="29.753149" lon="103.4187263"><ele>1085.95</ele><time>2026-04-24T20:48:16.000Z</time></trkpt>
        <trkpt lat="29.7531302" lon="103.418796"><ele>1085.73</ele><time>2026-04-24T20:48:20.000Z</time></trkpt>
        <trkpt lat="29.7531156" lon="103.4188055"><ele>1086.81</ele><time>2026-04-24T20:48:22.000Z</time></trkpt>
        <trkpt lat="29.7530717" lon="103.4188255"><ele>1087.25</ele><time>2026-04-24T20:48:52.000Z</time></trkpt>
        <trkpt lat="29.7530315" lon="103.4188618"><ele>1088.62</ele><time>2026-04-24T20:49:30.000Z</time></trkpt>
        <trkpt lat="29.7530248" lon="103.4188261"><ele>1089.62</ele><time>2026-04-24T20:50:00.000Z</time></trkpt>
        <trkpt lat="29.7530458" lon="103.4187739"><ele>1091.09</ele><time>2026-04-24T20:50:06.000Z</time></trkpt>
        <trkpt lat="29.7530485" lon="103.4187049"><ele>1092.7</ele><time>2026-04-24T20:50:12.000Z</time></trkpt>
        <trkpt lat="29.7530116" lon="103.4186597"><ele>1094</ele><time>2026-04-24T20:50:18.000Z</time></trkpt>
        <trkpt lat="29.7529884" lon="103.4186088"><ele>1093.65</ele><time>2026-04-24T20:50:48.000Z</time></trkpt>
        <trkpt lat="29.7530217" lon="103.4185658"><ele>1094.72</ele><time>2026-04-24T20:51:10.000Z</time></trkpt>
        <trkpt lat="29.7530687" lon="103.418529"><ele>1096.39</ele><time>2026-04-24T20:51:20.000Z</time></trkpt>
        <trkpt lat="29.7530779" lon="103.4184629"><ele>1096.9</ele><time>2026-04-24T20:51:43.000Z</time></trkpt>
        <trkpt lat="29.7530614" lon="103.4184303"><ele>1096.61</ele><time>2026-04-24T20:51:45.000Z</time></trkpt>
        <trkpt lat="29.7530429" lon="103.4183853"><ele>1096.21</ele><time>2026-04-24T20:52:09.000Z</time></trkpt>
        <trkpt lat="29.7530234" lon="103.4183261"><ele>1095.52</ele><time>2026-04-24T20:52:19.000Z</time></trkpt>
        <trkpt lat="29.7530436" lon="103.418279"><ele>1096.02</ele><time>2026-04-24T20:52:25.000Z</time></trkpt>
        <trkpt lat="29.7530721" lon="103.4182273"><ele>1097.97</ele><time>2026-04-24T20:52:33.000Z</time></trkpt>
        <trkpt lat="29.7530733" lon="103.4181722"><ele>1099.84</ele><time>2026-04-24T20:52:49.000Z</time></trkpt>
        <trkpt lat="29.753049" lon="103.4181232"><ele>1102.95</ele><time>2026-04-24T20:53:05.000Z</time></trkpt>
        <trkpt lat="29.7530133" lon="103.4180932"><ele>1104.93</ele><time>2026-04-24T20:53:13.000Z</time></trkpt>
        <trkpt lat="29.7529771" lon="103.4180564"><ele>1105.88</ele><time>2026-04-24T20:53:37.000Z</time></trkpt>
        <trkpt lat="29.7529353" lon="103.4180297"><ele>1107.56</ele><time>2026-04-24T20:53:41.000Z</time></trkpt>
        <trkpt lat="29.7528691" lon="103.4180226"><ele>1108.49</ele><time>2026-04-24T20:53:45.000Z</time></trkpt>
        <trkpt lat="29.7528058" lon="103.4180032"><ele>1107.69</ele><time>2026-04-24T20:53:49.000Z</time></trkpt>
        <trkpt lat="29.7527401" lon="103.4179714"><ele>1109.04</ele><time>2026-04-24T20:53:53.000Z</time></trkpt>
        <trkpt lat="29.752679" lon="103.417928"><ele>1110.23</ele><time>2026-04-24T20:53:57.000Z</time></trkpt>
        <trkpt lat="29.7526416" lon="103.4178813"><ele>1111.68</ele><time>2026-04-24T20:54:01.000Z</time></trkpt>
        <trkpt lat="29.7526028" lon="103.4178391"><ele>1112.87</ele><time>2026-04-24T20:54:13.000Z</time></trkpt>
        <trkpt lat="29.7526025" lon="103.4177878"><ele>1116.32</ele><time>2026-04-24T20:54:27.000Z</time></trkpt>
        <trkpt lat="29.752608" lon="103.417725"><ele>1116.29</ele><time>2026-04-24T20:54:33.000Z</time></trkpt>
        <trkpt lat="29.7525952" lon="103.4176637"><ele>1115.61</ele><time>2026-04-24T20:54:41.000Z</time></trkpt>
        <trkpt lat="29.7525514" lon="103.4176438"><ele>1116.5</ele><time>2026-04-24T20:54:53.000Z</time></trkpt>
        <trkpt lat="29.7525266" lon="103.4176016"><ele>1118.71</ele><time>2026-04-24T20:55:03.000Z</time></trkpt>
        <trkpt lat="29.7524943" lon="103.4175489"><ele>1120.16</ele><time>2026-04-24T20:55:09.000Z</time></trkpt>
        <trkpt lat="29.7524615" lon="103.4175062"><ele>1120.84</ele><time>2026-04-24T20:55:13.000Z</time></trkpt>
        <trkpt lat="29.7524261" lon="103.4174665"><ele>1121.53</ele><time>2026-04-24T20:55:29.000Z</time></trkpt>
        <trkpt lat="29.752411" lon="103.4174034"><ele>1123.2</ele><time>2026-04-24T20:55:35.000Z</time></trkpt>
        <trkpt lat="29.7523961" lon="103.4173324"><ele>1124.05</ele><time>2026-04-24T20:55:41.000Z</time></trkpt>
        <trkpt lat="29.752386" lon="103.4172804"><ele>1125.04</ele><time>2026-04-24T20:55:47.000Z</time></trkpt>
        <trkpt lat="29.7523513" lon="103.4172415"><ele>1125.01</ele><time>2026-04-24T20:55:55.000Z</time></trkpt>
        <trkpt lat="29.752319" lon="103.417195"><ele>1124.81</ele><time>2026-04-24T20:56:01.000Z</time></trkpt>
        <trkpt lat="29.7522806" lon="103.4171593"><ele>1124.17</ele><time>2026-04-24T20:56:07.000Z</time></trkpt>
        <trkpt lat="29.7522377" lon="103.4171162"><ele>1124.41</ele><time>2026-04-24T20:56:13.000Z</time></trkpt>
        <trkpt lat="29.752186" lon="103.4171043"><ele>1124.39</ele><time>2026-04-24T20:56:17.000Z</time></trkpt>
        <trkpt lat="29.7521335" lon="103.4170891"><ele>1124.71</ele><time>2026-04-24T20:56:21.000Z</time></trkpt>
        <trkpt lat="29.7520933" lon="103.4170573"><ele>1126.27</ele><time>2026-04-24T20:56:27.000Z</time></trkpt>
        <trkpt lat="29.7520513" lon="103.4170281"><ele>1126.62</ele><time>2026-04-24T20:56:31.000Z</time></trkpt>
        <trkpt lat="29.7520212" lon="103.4169774"><ele>1126.83</ele><time>2026-04-24T20:56:37.000Z</time></trkpt>
        <trkpt lat="29.7519836" lon="103.4169184"><ele>1126.22</ele><time>2026-04-24T20:56:43.000Z</time></trkpt>
        <trkpt lat="29.7519661" lon="103.4168979"><ele>1125.97</ele><time>2026-04-24T20:56:45.000Z</time></trkpt>
        <trkpt lat="29.7519478" lon="103.4168549"><ele>1125.53</ele><time>2026-04-24T20:56:57.000Z</time></trkpt>
        <trkpt lat="29.7519174" lon="103.4168175"><ele>1125.87</ele><time>2026-04-24T20:57:07.000Z</time></trkpt>
        <trkpt lat="29.7518847" lon="103.4167751"><ele>1126.43</ele><time>2026-04-24T20:57:19.000Z</time></trkpt>
        <trkpt lat="29.751841" lon="103.4167382"><ele>1127.13</ele><time>2026-04-24T20:57:29.000Z</time></trkpt>
        <trkpt lat="29.7518141" lon="103.4166927"><ele>1128.49</ele><time>2026-04-24T20:57:43.000Z</time></trkpt>
        <trkpt lat="29.7518104" lon="103.4166237"><ele>1128.74</ele><time>2026-04-24T20:58:05.000Z</time></trkpt>
        <trkpt lat="29.7517812" lon="103.4165854"><ele>1129.56</ele><time>2026-04-24T20:58:11.000Z</time></trkpt>
        <trkpt lat="29.7517519" lon="103.4165392"><ele>1131.15</ele><time>2026-04-24T20:58:17.000Z</time></trkpt>
        <trkpt lat="29.7517519" lon="103.4165392"><ele>1131.15</ele><time>2026-04-24T20:58:28.000Z</time></trkpt>
        <trkpt lat="29.7517813" lon="103.4165113"><ele>1132.55</ele><time>2026-04-24T20:58:41.000Z</time></trkpt>
        <trkpt lat="29.7517813" lon="103.4165113"><ele>1132.55</ele><time>2026-04-24T20:58:54.000Z</time></trkpt>
        <trkpt lat="29.7518321" lon="103.4164925"><ele>1131.05</ele><time>2026-04-24T20:59:00.000Z</time></trkpt>
        <trkpt lat="29.7518321" lon="103.4164925"><ele>1131.05</ele><time>2026-04-24T20:59:12.000Z</time></trkpt>
        <trkpt lat="29.7518152" lon="103.4164892"><ele>1130.13</ele><time>2026-04-24T20:59:25.000Z</time></trkpt>
        <trkpt lat="29.7518152" lon="103.4164892"><ele>1130.13</ele><time>2026-04-24T20:59:30.000Z</time></trkpt>
        <trkpt lat="29.7517646" lon="103.4164977"><ele>1131.79</ele><time>2026-04-24T20:59:52.000Z</time></trkpt>
        <trkpt lat="29.7517073" lon="103.41652"><ele>1132.74</ele><time>2026-04-24T20:59:58.000Z</time></trkpt>
        <trkpt lat="29.7517073" lon="103.41652"><ele>1132.74</ele><time>2026-04-24T21:00:18.000Z</time></trkpt>
        <trkpt lat="29.7516798" lon="103.4164757"><ele>1133.91</ele><time>2026-04-24T21:00:25.000Z</time></trkpt>
        <trkpt lat="29.7516798" lon="103.4164757"><ele>1133.91</ele><time>2026-04-24T21:02:04.000Z</time></trkpt>
        <trkpt lat="29.7516581" lon="103.4164293"><ele>1133.85</ele><time>2026-04-24T21:02:56.000Z</time></trkpt>
        <trkpt lat="29.7516911" lon="103.4164019"><ele>1133.7</ele><time>2026-04-24T21:03:08.000Z</time></trkpt>
        <trkpt lat="29.7517163" lon="103.4163601"><ele>1133.33</ele><time>2026-04-24T21:03:18.000Z</time></trkpt>
        <trkpt lat="29.7517072" lon="103.4163101"><ele>1132.85</ele><time>2026-04-24T21:04:10.000Z</time></trkpt>
        <trkpt lat="29.7516594" lon="103.416318"><ele>1132.13</ele><time>2026-04-24T21:04:16.000Z</time></trkpt>
        <trkpt lat="29.751624" lon="103.4162909"><ele>1132</ele><time>2026-04-24T21:04:22.000Z</time></trkpt>
        <trkpt lat="29.751624" lon="103.4162909"><ele>1132</ele><time>2026-04-24T21:05:16.000Z</time></trkpt>
        <trkpt lat="29.751624" lon="103.4162909"><ele>1132</ele><time>2026-04-24T21:07:35.000Z</time></trkpt>
        <trkpt lat="29.751624" lon="103.4162909"><ele>1132</ele><time>2026-04-24T21:09:28.000Z</time></trkpt>
        <trkpt lat="29.751624" lon="103.4162909"><ele>1132</ele><time>2026-04-24T21:09:31.000Z</time></trkpt>
        <trkpt lat="29.751624" lon="103.4162909"><ele>1132</ele><time>2026-04-24T21:09:56.000Z</time></trkpt>
        <trkpt lat="29.751624" lon="103.4162909"><ele>1132</ele><time>2026-04-24T21:09:59.000Z</time></trkpt>
        <trkpt lat="29.751624" lon="103.4162909"><ele>1132</ele><time>2026-04-24T21:13:40.000Z</time></trkpt>
        <trkpt lat="29.751624" lon="103.4162909"><ele>1132</ele><time>2026-04-24T21:13:51.000Z</time></trkpt>
        <trkpt lat="29.751624" lon="103.4162909"><ele>1132</ele><time>2026-04-24T21:14:02.000Z</time></trkpt>
        <trkpt lat="29.751624" lon="103.4162909"><ele>1132</ele><time>2026-04-24T21:14:07.000Z</time></trkpt>
        <trkpt lat="29.751624" lon="103.4162909"><ele>1132</ele><time>2026-04-24T21:15:42.000Z</time></trkpt>
        <trkpt lat="29.7516405" lon="103.4163348"><ele>1131.72</ele><time>2026-04-24T21:15:47.000Z</time></trkpt>
        <trkpt lat="29.7516405" lon="103.4163348"><ele>1131.72</ele><time>2026-04-24T21:16:10.000Z</time></trkpt>
        <trkpt lat="29.7516405" lon="103.4163348"><ele>1131.72</ele><time>2026-04-24T21:16:32.000Z</time></trkpt>
        <trkpt lat="29.7516405" lon="103.4163348"><ele>1131.72</ele><time>2026-04-24T21:17:11.000Z</time></trkpt>
        <trkpt lat="29.7516405" lon="103.4163348"><ele>1131.72</ele><time>2026-04-24T21:18:54.000Z</time></trkpt>
        <trkpt lat="29.7516405" lon="103.4163348"><ele>1131.72</ele><time>2026-04-24T21:19:17.000Z</time></trkpt>
        <trkpt lat="29.7516405" lon="103.4163348"><ele>1131.72</ele><time>2026-04-24T21:19:40.000Z</time></trkpt>
        <trkpt lat="29.7516405" lon="103.4163348"><ele>1131.72</ele><time>2026-04-24T21:20:05.000Z</time></trkpt>
        <trkpt lat="29.7516405" lon="103.4163348"><ele>1131.72</ele><time>2026-04-24T21:21:04.000Z</time></trkpt>
        <trkpt lat="29.7516071" lon="103.4162967"><ele>1132.71</ele><time>2026-04-24T21:21:27.000Z</time></trkpt>
        <trkpt lat="29.7516071" lon="103.4162967"><ele>1132.71</ele><time>2026-04-24T21:21:30.000Z</time></trkpt>
        <trkpt lat="29.7516071" lon="103.4162967"><ele>1132.71</ele><time>2026-04-24T21:21:36.000Z</time></trkpt>
        <trkpt lat="29.7516071" lon="103.4162967"><ele>1132.71</ele><time>2026-04-24T21:21:45.000Z</time></trkpt>
        <trkpt lat="29.7516071" lon="103.4162967"><ele>1132.71</ele><time>2026-04-24T21:21:56.000Z</time></trkpt>
        <trkpt lat="29.7516367" lon="103.416252"><ele>1128.31</ele><time>2026-04-24T21:23:05.000Z</time></trkpt>
        <trkpt lat="29.7516367" lon="103.416252"><ele>1128.31</ele><time>2026-04-24T21:23:56.000Z</time></trkpt>
        <trkpt lat="29.7516084" lon="103.4162034"><ele>1127.74</ele><time>2026-04-24T21:24:18.000Z</time></trkpt>
        <trkpt lat="29.7515709" lon="103.4161608"><ele>1128.23</ele><time>2026-04-24T21:24:32.000Z</time></trkpt>
        <trkpt lat="29.751575" lon="103.4161132"><ele>1126.96</ele><time>2026-04-24T21:24:46.000Z</time></trkpt>
        <trkpt lat="29.7515721" lon="103.4160535"><ele>1125.48</ele><time>2026-04-24T21:24:52.000Z</time></trkpt>
        <trkpt lat="29.7515789" lon="103.4159854"><ele>1123.73</ele><time>2026-04-24T21:25:01.000Z</time></trkpt>
        <trkpt lat="29.7515762" lon="103.4159196"><ele>1122.27</ele><time>2026-04-24T21:25:07.000Z</time></trkpt>
        <trkpt lat="29.7515637" lon="103.4158589"><ele>1120.83</ele><time>2026-04-24T21:25:13.000Z</time></trkpt>
        <trkpt lat="29.7515442" lon="103.4158075"><ele>1120.3</ele><time>2026-04-24T21:25:17.000Z</time></trkpt>
        <trkpt lat="29.7515093" lon="103.4157602"><ele>1120.49</ele><time>2026-04-24T21:25:23.000Z</time></trkpt>
        <trkpt lat="29.7514683" lon="103.4157262"><ele>1119.72</ele><time>2026-04-24T21:25:27.000Z</time></trkpt>
        <trkpt lat="29.7514205" lon="103.4156893"><ele>1120.22</ele><time>2026-04-24T21:25:33.000Z</time></trkpt>
        <trkpt lat="29.7513769" lon="103.4156522"><ele>1121.59</ele><time>2026-04-24T21:25:39.000Z</time></trkpt>
        <trkpt lat="29.7513371" lon="103.4156042"><ele>1122.56</ele><time>2026-04-24T21:25:45.000Z</time></trkpt>
        <trkpt lat="29.7512952" lon="103.415561"><ele>1122.48</ele><time>2026-04-24T21:25:51.000Z</time></trkpt>
        <trkpt lat="29.751256" lon="103.4155164"><ele>1123.58</ele><time>2026-04-24T21:25:59.000Z</time></trkpt>
        <trkpt lat="29.7512119" lon="103.4154751"><ele>1125.11</ele><time>2026-04-24T21:26:05.000Z</time></trkpt>
        <trkpt lat="29.75117" lon="103.4154448"><ele>1126.17</ele><time>2026-04-24T21:26:09.000Z</time></trkpt>
        <trkpt lat="29.7511246" lon="103.4154165"><ele>1126.59</ele><time>2026-04-24T21:26:13.000Z</time></trkpt>
        <trkpt lat="29.7510761" lon="103.4153965"><ele>1127.24</ele><time>2026-04-24T21:26:19.000Z</time></trkpt>
        <trkpt lat="29.7510378" lon="103.4153592"><ele>1127.83</ele><time>2026-04-24T21:26:29.000Z</time></trkpt>
        <trkpt lat="29.7510026" lon="103.4153072"><ele>1127.88</ele><time>2026-04-24T21:26:39.000Z</time></trkpt>
        <trkpt lat="29.7509711" lon="103.4152552"><ele>1127.62</ele><time>2026-04-24T21:26:47.000Z</time></trkpt>
        <trkpt lat="29.7509294" lon="103.4152269"><ele>1128.19</ele><time>2026-04-24T21:26:53.000Z</time></trkpt>
        <trkpt lat="29.7508822" lon="103.4152073"><ele>1128.86</ele><time>2026-04-24T21:27:03.000Z</time></trkpt>
        <trkpt lat="29.7508266" lon="103.415197"><ele>1130.26</ele><time>2026-04-24T21:27:11.000Z</time></trkpt>
        <trkpt lat="29.7507735" lon="103.415181"><ele>1131.92</ele><time>2026-04-24T21:27:21.000Z</time></trkpt>
        <trkpt lat="29.7507236" lon="103.4151574"><ele>1133.82</ele><time>2026-04-24T21:27:29.000Z</time></trkpt>
        <trkpt lat="29.7506886" lon="103.4151127"><ele>1136.67</ele><time>2026-04-24T21:27:37.000Z</time></trkpt>
        <trkpt lat="29.7506788" lon="103.4150504"><ele>1139.65</ele><time>2026-04-24T21:27:47.000Z</time></trkpt>
        <trkpt lat="29.7506707" lon="103.4149906"><ele>1142.63</ele><time>2026-04-24T21:27:53.000Z</time></trkpt>
        <trkpt lat="29.7506377" lon="103.4149511"><ele>1144.62</ele><time>2026-04-24T21:27:57.000Z</time></trkpt>
        <trkpt lat="29.7506178" lon="103.4149057"><ele>1146.15</ele><time>2026-04-24T21:28:03.000Z</time></trkpt>
        <trkpt lat="29.7506183" lon="103.4148539"><ele>1147.17</ele><time>2026-04-24T21:28:09.000Z</time></trkpt>
        <trkpt lat="29.7506118" lon="103.4147985"><ele>1145.48</ele><time>2026-04-24T21:28:13.000Z</time></trkpt>
        <trkpt lat="29.7505886" lon="103.4147398"><ele>1144.65</ele><time>2026-04-24T21:28:19.000Z</time></trkpt>
        <trkpt lat="29.7505508" lon="103.414687"><ele>1143.32</ele><time>2026-04-24T21:28:27.000Z</time></trkpt>
        <trkpt lat="29.7505066" lon="103.4146347"><ele>1141.81</ele><time>2026-04-24T21:28:33.000Z</time></trkpt>
        <trkpt lat="29.7504663" lon="103.4145964"><ele>1142.57</ele><time>2026-04-24T21:28:37.000Z</time></trkpt>
        <trkpt lat="29.7504296" lon="103.4145579"><ele>1142.73</ele><time>2026-04-24T21:28:41.000Z</time></trkpt>
        <trkpt lat="29.7503951" lon="103.4145141"><ele>1143.28</ele><time>2026-04-24T21:28:45.000Z</time></trkpt>
        <trkpt lat="29.7503645" lon="103.41447"><ele>1144.12</ele><time>2026-04-24T21:28:49.000Z</time></trkpt>
        <trkpt lat="29.7503302" lon="103.4144281"><ele>1145.28</ele><time>2026-04-24T21:28:53.000Z</time></trkpt>
        <trkpt lat="29.7502811" lon="103.4144041"><ele>1145.97</ele><time>2026-04-24T21:29:01.000Z</time></trkpt>
        <trkpt lat="29.7502295" lon="103.4143945"><ele>1147.95</ele><time>2026-04-24T21:29:11.000Z</time></trkpt>
        <trkpt lat="29.7501906" lon="103.4143648"><ele>1150.71</ele><time>2026-04-24T21:29:31.000Z</time></trkpt>
        <trkpt lat="29.7501666" lon="103.4143335"><ele>1152.47</ele><time>2026-04-24T21:29:35.000Z</time></trkpt>
        <trkpt lat="29.750121" lon="103.414321"><ele>1153</ele><time>2026-04-24T21:31:21.000Z</time></trkpt>
        <trkpt lat="29.7500666" lon="103.4142939"><ele>1152.22</ele><time>2026-04-24T21:31:31.000Z</time></trkpt>
        <trkpt lat="29.750019" lon="103.41426"><ele>1151.55</ele><time>2026-04-24T21:31:47.000Z</time></trkpt>
        <trkpt lat="29.749973" lon="103.4142298"><ele>1151.21</ele><time>2026-04-24T21:32:21.000Z</time></trkpt>
        <trkpt lat="29.7499317" lon="103.4142008"><ele>1150.95</ele><time>2026-04-24T21:32:33.000Z</time></trkpt>
        <trkpt lat="29.7499089" lon="103.4141526"><ele>1150.82</ele><time>2026-04-24T21:32:46.000Z</time></trkpt>
        <trkpt lat="29.7499012" lon="103.4141411"><ele>1150.09</ele><time>2026-04-24T21:32:50.000Z</time></trkpt>
        <trkpt lat="29.7498892" lon="103.4141057"><ele>1149.59</ele><time>2026-04-24T21:33:14.000Z</time></trkpt>
        <trkpt lat="29.7498782" lon="103.4140564"><ele>1148.17</ele><time>2026-04-24T21:33:20.000Z</time></trkpt>
        <trkpt lat="29.7498685" lon="103.4139996"><ele>1146.27</ele><time>2026-04-24T21:33:30.000Z</time></trkpt>
        <trkpt lat="29.7498386" lon="103.413961"><ele>1145.57</ele><time>2026-04-24T21:33:42.000Z</time></trkpt>
        <trkpt lat="29.7498139" lon="103.4139106"><ele>1145.14</ele><time>2026-04-24T21:34:23.000Z</time></trkpt>
        <trkpt lat="29.7497887" lon="103.4138589"><ele>1144.54</ele><time>2026-04-24T21:34:29.000Z</time></trkpt>
        <trkpt lat="29.7497571" lon="103.4138118"><ele>1144.63</ele><time>2026-04-24T21:34:53.000Z</time></trkpt>
        <trkpt lat="29.7497357" lon="103.4137633"><ele>1144.85</ele><time>2026-04-24T21:35:09.000Z</time></trkpt>
        <trkpt lat="29.7497075" lon="103.4137194"><ele>1145.55</ele><time>2026-04-24T21:35:35.000Z</time></trkpt>
        <trkpt lat="29.7496664" lon="103.4136865"><ele>1145.71</ele><time>2026-04-24T21:35:43.000Z</time></trkpt>
        <trkpt lat="29.7496172" lon="103.4136848"><ele>1145.91</ele><time>2026-04-24T21:35:57.000Z</time></trkpt>
        <trkpt lat="29.7495674" lon="103.4136652"><ele>1146.64</ele><time>2026-04-24T21:36:21.000Z</time></trkpt>
        <trkpt lat="29.7495315" lon="103.4136265"><ele>1147.57</ele><time>2026-04-24T21:37:01.000Z</time></trkpt>
        <trkpt lat="29.7495174" lon="103.4135763"><ele>1147.2</ele><time>2026-04-24T21:37:11.000Z</time></trkpt>
        <trkpt lat="29.7494878" lon="103.4135301"><ele>1146.72</ele><time>2026-04-24T21:37:17.000Z</time></trkpt>
        <trkpt lat="29.7494668" lon="103.4134766"><ele>1146.2</ele><time>2026-04-24T21:37:25.000Z</time></trkpt>
        <trkpt lat="29.7494381" lon="103.4134224"><ele>1146.6</ele><time>2026-04-24T21:37:37.000Z</time></trkpt>
        <trkpt lat="29.7494013" lon="103.4133845"><ele>1147.27</ele><time>2026-04-24T21:37:55.000Z</time></trkpt>
        <trkpt lat="29.7493746" lon="103.4133402"><ele>1147.26</ele><time>2026-04-24T21:38:05.000Z</time></trkpt>
        <trkpt lat="29.7493837" lon="103.4132812"><ele>1147.15</ele><time>2026-04-24T21:38:15.000Z</time></trkpt>
        <trkpt lat="29.7493546" lon="103.4132308"><ele>1146.79</ele><time>2026-04-24T21:38:23.000Z</time></trkpt>
        <trkpt lat="29.7493251" lon="103.4131774"><ele>1146.83</ele><time>2026-04-24T21:38:29.000Z</time></trkpt>
        <trkpt lat="29.749285" lon="103.4131487"><ele>1147.2</ele><time>2026-04-24T21:38:35.000Z</time></trkpt>
        <trkpt lat="29.749242" lon="103.4131095"><ele>1147.49</ele><time>2026-04-24T21:38:43.000Z</time></trkpt>
        <trkpt lat="29.7492017" lon="103.4130699"><ele>1147.46</ele><time>2026-04-24T21:38:51.000Z</time></trkpt>
        <trkpt lat="29.7491755" lon="103.4130204"><ele>1147.85</ele><time>2026-04-24T21:38:59.000Z</time></trkpt>
        <trkpt lat="29.7491426" lon="103.4129725"><ele>1148.41</ele><time>2026-04-24T21:39:05.000Z</time></trkpt>
        <trkpt lat="29.7491255" lon="103.4129109"><ele>1148.93</ele><time>2026-04-24T21:39:13.000Z</time></trkpt>
        <trkpt lat="29.7491121" lon="103.4128559"><ele>1148.62</ele><time>2026-04-24T21:39:23.000Z</time></trkpt>
        <trkpt lat="29.7491137" lon="103.4128013"><ele>1148.89</ele><time>2026-04-24T21:39:29.000Z</time></trkpt>
        <trkpt lat="29.7491577" lon="103.4127708"><ele>1148.74</ele><time>2026-04-24T21:39:37.000Z</time></trkpt>
        <trkpt lat="29.7491645" lon="103.4127255"><ele>1148.37</ele><time>2026-04-24T21:39:47.000Z</time></trkpt>
        <trkpt lat="29.7491922" lon="103.4126827"><ele>1148.87</ele><time>2026-04-24T21:40:01.000Z</time></trkpt>
        <trkpt lat="29.7491777" lon="103.4126268"><ele>1148.53</ele><time>2026-04-24T21:40:11.000Z</time></trkpt>
        <trkpt lat="29.7491367" lon="103.4125892"><ele>1147.53</ele><time>2026-04-24T21:40:17.000Z</time></trkpt>
        <trkpt lat="29.7491186" lon="103.412579"><ele>1147.49</ele><time>2026-04-24T21:40:23.000Z</time></trkpt>
        <trkpt lat="29.7490886" lon="103.4125453"><ele>1147.54</ele><time>2026-04-24T21:40:31.000Z</time></trkpt>
        <trkpt lat="29.7490583" lon="103.4125102"><ele>1147.99</ele><time>2026-04-24T21:40:39.000Z</time></trkpt>
        <trkpt lat="29.7490295" lon="103.4124577"><ele>1148.02</ele><time>2026-04-24T21:40:49.000Z</time></trkpt>
        <trkpt lat="29.7489916" lon="103.4124101"><ele>1147.29</ele><time>2026-04-24T21:41:01.000Z</time></trkpt>
        <trkpt lat="29.7489497" lon="103.412367"><ele>1145.64</ele><time>2026-04-24T21:41:05.000Z</time></trkpt>
        <trkpt lat="29.7489052" lon="103.4123283"><ele>1143.35</ele><time>2026-04-24T21:41:09.000Z</time></trkpt>
        <trkpt lat="29.7488559" lon="103.4123137"><ele>1142.55</ele><time>2026-04-24T21:41:19.000Z</time></trkpt>
        <trkpt lat="29.7488142" lon="103.4122896"><ele>1142.53</ele><time>2026-04-24T21:41:25.000Z</time></trkpt>
        <trkpt lat="29.748775" lon="103.4122632"><ele>1143.22</ele><time>2026-04-24T21:41:35.000Z</time></trkpt>
        <trkpt lat="29.7487472" lon="103.412224"><ele>1143.17</ele><time>2026-04-24T21:42:13.000Z</time></trkpt>
        <trkpt lat="29.7487462" lon="103.4121704"><ele>1143.43</ele><time>2026-04-24T21:42:21.000Z</time></trkpt>
        <trkpt lat="29.7487387" lon="103.4120933"><ele>1144.44</ele><time>2026-04-24T21:42:29.000Z</time></trkpt>
        <trkpt lat="29.7487039" lon="103.412034"><ele>1144.85</ele><time>2026-04-24T21:42:33.000Z</time></trkpt>
        <trkpt lat="29.7486668" lon="103.4119831"><ele>1145.61</ele><time>2026-04-24T21:42:39.000Z</time></trkpt>
        <trkpt lat="29.7486274" lon="103.4119352"><ele>1145.47</ele><time>2026-04-24T21:42:45.000Z</time></trkpt>
        <trkpt lat="29.7485895" lon="103.4118991"><ele>1145.02</ele><time>2026-04-24T21:42:49.000Z</time></trkpt>
        <trkpt lat="29.7485519" lon="103.4118683"><ele>1144.95</ele><time>2026-04-24T21:42:55.000Z</time></trkpt>
        <trkpt lat="29.7485075" lon="103.411856"><ele>1145.15</ele><time>2026-04-24T21:43:13.000Z</time></trkpt>
        <trkpt lat="29.7484832" lon="103.4118118"><ele>1144.25</ele><time>2026-04-24T21:43:17.000Z</time></trkpt>
        <trkpt lat="29.7484644" lon="103.4117604"><ele>1143.96</ele><time>2026-04-24T21:43:21.000Z</time></trkpt>
        <trkpt lat="29.7484264" lon="103.4117093"><ele>1144.44</ele><time>2026-04-24T21:43:27.000Z</time></trkpt>
        <trkpt lat="29.7483932" lon="103.411697"><ele>1144.71</ele><time>2026-04-24T21:43:33.000Z</time></trkpt>
        <trkpt lat="29.7483451" lon="103.411704"><ele>1145.09</ele><time>2026-04-24T21:43:39.000Z</time></trkpt>
        <trkpt lat="29.7482943" lon="103.4117037"><ele>1145.61</ele><time>2026-04-24T21:43:43.000Z</time></trkpt>
        <trkpt lat="29.7482391" lon="103.4116938"><ele>1145.5</ele><time>2026-04-24T21:43:53.000Z</time></trkpt>
        <trkpt lat="29.7481988" lon="103.411686"><ele>1146.83</ele><time>2026-04-24T21:43:59.000Z</time></trkpt>
        <trkpt lat="29.7481726" lon="103.4116391"><ele>1147.28</ele><time>2026-04-24T21:44:05.000Z</time></trkpt>
        <trkpt lat="29.7481405" lon="103.4115979"><ele>1148.01</ele><time>2026-04-24T21:44:09.000Z</time></trkpt>
        <trkpt lat="29.748108" lon="103.4115573"><ele>1149.5</ele><time>2026-04-24T21:44:13.000Z</time></trkpt>
        <trkpt lat="29.7481053" lon="103.4115039"><ele>1149.91</ele><time>2026-04-24T21:44:19.000Z</time></trkpt>
        <trkpt lat="29.7480971" lon="103.4114506"><ele>1149.71</ele><time>2026-04-24T21:44:27.000Z</time></trkpt>
        <trkpt lat="29.748066" lon="103.4114179"><ele>1148.71</ele><time>2026-04-24T21:44:31.000Z</time></trkpt>
        <trkpt lat="29.7480622" lon="103.4113719"><ele>1149.04</ele><time>2026-04-24T21:44:41.000Z</time></trkpt>
        <trkpt lat="29.7480397" lon="103.411317"><ele>1148.89</ele><time>2026-04-24T21:44:51.000Z</time></trkpt>
        <trkpt lat="29.747999" lon="103.4112848"><ele>1149.75</ele><time>2026-04-24T21:46:11.000Z</time></trkpt>
        <trkpt lat="29.7479796" lon="103.4113091"><ele>1150.81</ele><time>2026-04-24T21:46:17.000Z</time></trkpt>
        <trkpt lat="29.7479796" lon="103.4113091"><ele>1150.81</ele><time>2026-04-24T21:46:26.000Z</time></trkpt>
        <trkpt lat="29.7479796" lon="103.4113091"><ele>1150.81</ele><time>2026-04-24T21:46:29.000Z</time></trkpt>
        <trkpt lat="29.7479796" lon="103.4113091"><ele>1150.81</ele><time>2026-04-24T21:46:46.000Z</time></trkpt>
        <trkpt lat="29.7479378" lon="103.4113119"><ele>1151.1</ele><time>2026-04-24T21:46:47.000Z</time></trkpt>
        <trkpt lat="29.7479378" lon="103.4113119"><ele>1151.1</ele><time>2026-04-24T21:47:11.000Z</time></trkpt>
        <trkpt lat="29.7478925" lon="103.411297"><ele>1152.29</ele><time>2026-04-24T21:47:17.000Z</time></trkpt>
        <trkpt lat="29.7478385" lon="103.4113155"><ele>1153.04</ele><time>2026-04-24T21:47:35.000Z</time></trkpt>
        <trkpt lat="29.7477897" lon="103.4113064"><ele>1153.44</ele><time>2026-04-24T21:47:53.000Z</time></trkpt>
        <trkpt lat="29.7477334" lon="103.4112743"><ele>1154.77</ele><time>2026-04-24T21:48:57.000Z</time></trkpt>
        <trkpt lat="29.7476965" lon="103.4112416"><ele>1153.16</ele><time>2026-04-24T21:49:03.000Z</time></trkpt>
        <trkpt lat="29.7476491" lon="103.4112237"><ele>1152.27</ele><time>2026-04-24T21:49:35.000Z</time></trkpt>
        <trkpt lat="29.7476005" lon="103.4112222"><ele>1148.79</ele><time>2026-04-24T21:49:41.000Z</time></trkpt>
        <trkpt lat="29.7475512" lon="103.4112264"><ele>1146.05</ele><time>2026-04-24T21:49:49.000Z</time></trkpt>
        <trkpt lat="29.7475029" lon="103.4112517"><ele>1143.3</ele><time>2026-04-24T21:49:57.000Z</time></trkpt>
        <trkpt lat="29.7474913" lon="103.4112207"><ele>1140.72</ele><time>2026-04-24T21:50:03.000Z</time></trkpt>
        <trkpt lat="29.747479" lon="103.411164"><ele>1138.66</ele><time>2026-04-24T21:50:11.000Z</time></trkpt>
        <trkpt lat="29.7474733" lon="103.4110867"><ele>1137.84</ele><time>2026-04-24T21:50:25.000Z</time></trkpt>
        <trkpt lat="29.7474579" lon="103.4110356"><ele>1137.11</ele><time>2026-04-24T21:50:29.000Z</time></trkpt>
        <trkpt lat="29.747435" lon="103.4109669"><ele>1137.22</ele><time>2026-04-24T21:50:41.000Z</time></trkpt>
        <trkpt lat="29.7474318" lon="103.4108927"><ele>1137.32</ele><time>2026-04-24T21:50:47.000Z</time></trkpt>
        <trkpt lat="29.747407" lon="103.4108269"><ele>1137.25</ele><time>2026-04-24T21:50:53.000Z</time></trkpt>
        <trkpt lat="29.7473729" lon="103.4107644"><ele>1137.23</ele><time>2026-04-24T21:50:59.000Z</time></trkpt>
        <trkpt lat="29.7473386" lon="103.4107096"><ele>1137.45</ele><time>2026-04-24T21:51:15.000Z</time></trkpt>
        <trkpt lat="29.7473119" lon="103.4106544"><ele>1137.34</ele><time>2026-04-24T21:51:23.000Z</time></trkpt>
        <trkpt lat="29.7472792" lon="103.4105971"><ele>1136.73</ele><time>2026-04-24T21:51:29.000Z</time></trkpt>
        <trkpt lat="29.7472384" lon="103.4105475"><ele>1135.77</ele><time>2026-04-24T21:51:39.000Z</time></trkpt>
        <trkpt lat="29.7471921" lon="103.4105223"><ele>1133.49</ele><time>2026-04-24T21:51:43.000Z</time></trkpt>
        <trkpt lat="29.7471567" lon="103.4104779"><ele>1133.34</ele><time>2026-04-24T21:52:09.000Z</time></trkpt>
        <trkpt lat="29.7471167" lon="103.4104459"><ele>1133.36</ele><time>2026-04-24T21:52:13.000Z</time></trkpt>
        <trkpt lat="29.747069" lon="103.4104135"><ele>1133.86</ele><time>2026-04-24T21:52:19.000Z</time></trkpt>
        <trkpt lat="29.7470267" lon="103.4103612"><ele>1132.36</ele><time>2026-04-24T21:52:25.000Z</time></trkpt>
        <trkpt lat="29.7469903" lon="103.4103077"><ele>1130.94</ele><time>2026-04-24T21:52:29.000Z</time></trkpt>
        <trkpt lat="29.7469797" lon="103.4102375"><ele>1131.32</ele><time>2026-04-24T21:52:35.000Z</time></trkpt>
        <trkpt lat="29.7469903" lon="103.4101746"><ele>1132.02</ele><time>2026-04-24T21:52:43.000Z</time></trkpt>
        <trkpt lat="29.7469568" lon="103.4101691"><ele>1133.75</ele><time>2026-04-24T21:52:55.000Z</time></trkpt>
        <trkpt lat="29.7469303" lon="103.4101375"><ele>1135.5</ele><time>2026-04-24T21:53:09.000Z</time></trkpt>
        <trkpt lat="29.7469022" lon="103.4100958"><ele>1135.79</ele><time>2026-04-24T21:53:23.000Z</time></trkpt>
        <trkpt lat="29.7468752" lon="103.4100415"><ele>1137.85</ele><time>2026-04-24T21:53:35.000Z</time></trkpt>
        <trkpt lat="29.7468637" lon="103.4099869"><ele>1138.78</ele><time>2026-04-24T21:53:41.000Z</time></trkpt>
        <trkpt lat="29.7468542" lon="103.409933"><ele>1138.86</ele><time>2026-04-24T21:54:01.000Z</time></trkpt>
        <trkpt lat="29.7468376" lon="103.4098703"><ele>1140.26</ele><time>2026-04-24T21:54:07.000Z</time></trkpt>
        <trkpt lat="29.7468449" lon="103.4098167"><ele>1141.19</ele><time>2026-04-24T21:54:49.000Z</time></trkpt>
        <trkpt lat="29.7468658" lon="103.4097621"><ele>1138.81</ele><time>2026-04-24T21:54:53.000Z</time></trkpt>
        <trkpt lat="29.7469004" lon="103.4097063"><ele>1138.14</ele><time>2026-04-24T21:54:59.000Z</time></trkpt>
        <trkpt lat="29.7468962" lon="103.4096469"><ele>1138.16</ele><time>2026-04-24T21:55:09.000Z</time></trkpt>
        <trkpt lat="29.7468588" lon="103.4096157"><ele>1138.45</ele><time>2026-04-24T21:55:17.000Z</time></trkpt>
        <trkpt lat="29.7468481" lon="103.4096122"><ele>1138.41</ele><time>2026-04-24T21:55:19.000Z</time></trkpt>
        <trkpt lat="29.746846" lon="103.4095762"><ele>1138.06</ele><time>2026-04-24T21:55:31.000Z</time></trkpt>
        <trkpt lat="29.7468281" lon="103.409522"><ele>1137.51</ele><time>2026-04-24T21:55:45.000Z</time></trkpt>
        <trkpt lat="29.7467853" lon="103.4095108"><ele>1136.83</ele><time>2026-04-24T21:56:01.000Z</time></trkpt>
        <trkpt lat="29.7467728" lon="103.4094653"><ele>1136.87</ele><time>2026-04-24T21:57:19.000Z</time></trkpt>
        <trkpt lat="29.746756" lon="103.409417"><ele>1135.63</ele><time>2026-04-24T21:57:27.000Z</time></trkpt>
        <trkpt lat="29.7467116" lon="103.4094045"><ele>1133.7</ele><time>2026-04-24T21:57:47.000Z</time></trkpt>
        <trkpt lat="29.7466602" lon="103.4093973"><ele>1132.31</ele><time>2026-04-24T21:57:53.000Z</time></trkpt>
        <trkpt lat="29.7466117" lon="103.4093792"><ele>1131.04</ele><time>2026-04-24T21:58:01.000Z</time></trkpt>
        <trkpt lat="29.7465637" lon="103.4093632"><ele>1128.82</ele><time>2026-04-24T21:58:11.000Z</time></trkpt>
        <trkpt lat="29.746517" lon="103.4093336"><ele>1127.52</ele><time>2026-04-24T21:58:17.000Z</time></trkpt>
        <trkpt lat="29.7464669" lon="103.4093322"><ele>1126.12</ele><time>2026-04-24T21:58:23.000Z</time></trkpt>
        <trkpt lat="29.7464326" lon="103.4093311"><ele>1125.01</ele><time>2026-04-24T21:58:31.000Z</time></trkpt>
        <trkpt lat="29.7463953" lon="103.4092921"><ele>1124.44</ele><time>2026-04-24T21:59:05.000Z</time></trkpt>
        <trkpt lat="29.746377" lon="103.4092719"><ele>1122.62</ele><time>2026-04-24T21:59:07.000Z</time></trkpt>
        <trkpt lat="29.7463499" lon="103.4092379"><ele>1121.89</ele><time>2026-04-24T21:59:21.000Z</time></trkpt>
        <trkpt lat="29.746334" lon="103.4091817"><ele>1121.51</ele><time>2026-04-24T21:59:39.000Z</time></trkpt>
        <trkpt lat="29.7462975" lon="103.4091562"><ele>1120.5</ele><time>2026-04-24T22:00:21.000Z</time></trkpt>
        <trkpt lat="29.7463142" lon="103.4091111"><ele>1120.93</ele><time>2026-04-24T22:00:41.000Z</time></trkpt>
        <trkpt lat="29.746296" lon="103.409066"><ele>1119.06</ele><time>2026-04-24T22:00:47.000Z</time></trkpt>
        <trkpt lat="29.7462609" lon="103.4090186"><ele>1117.15</ele><time>2026-04-24T22:00:53.000Z</time></trkpt>
        <trkpt lat="29.7462164" lon="103.4089878"><ele>1116.19</ele><time>2026-04-24T22:00:59.000Z</time></trkpt>
        <trkpt lat="29.7462044" lon="103.4089715"><ele>1116.08</ele><time>2026-04-24T22:01:01.000Z</time></trkpt>
        <trkpt lat="29.7461687" lon="103.4089641"><ele>1116.35</ele><time>2026-04-24T22:01:15.000Z</time></trkpt>
        <trkpt lat="29.7461197" lon="103.4089474"><ele>1115.66</ele><time>2026-04-24T22:01:29.000Z</time></trkpt>
        <trkpt lat="29.7460707" lon="103.4089161"><ele>1114.84</ele><time>2026-04-24T22:01:39.000Z</time></trkpt>
        <trkpt lat="29.7460717" lon="103.4088579"><ele>1113.03</ele><time>2026-04-24T22:01:45.000Z</time></trkpt>
        <trkpt lat="29.7460871" lon="103.4087934"><ele>1112.05</ele><time>2026-04-24T22:01:51.000Z</time></trkpt>
        <trkpt lat="29.7460954" lon="103.4087288"><ele>1111.57</ele><time>2026-04-24T22:01:57.000Z</time></trkpt>
        <trkpt lat="29.7461117" lon="103.4086673"><ele>1110.36</ele><time>2026-04-24T22:02:03.000Z</time></trkpt>
        <trkpt lat="29.7461213" lon="103.4085908"><ele>1108.23</ele><time>2026-04-24T22:02:09.000Z</time></trkpt>
        <trkpt lat="29.7461101" lon="103.4085307"><ele>1106.91</ele><time>2026-04-24T22:02:17.000Z</time></trkpt>
        <trkpt lat="29.7461038" lon="103.4084685"><ele>1104.07</ele><time>2026-04-24T22:02:29.000Z</time></trkpt>
        <trkpt lat="29.7460756" lon="103.4084251"><ele>1103.36</ele><time>2026-04-24T22:02:45.000Z</time></trkpt>
        <trkpt lat="29.7460481" lon="103.4083827"><ele>1102.95</ele><time>2026-04-24T22:03:01.000Z</time></trkpt>
        <trkpt lat="29.7460272" lon="103.40833"><ele>1103</ele><time>2026-04-24T22:03:09.000Z</time></trkpt>
        <trkpt lat="29.7460004" lon="103.4082817"><ele>1103.51</ele><time>2026-04-24T22:03:17.000Z</time></trkpt>
        <trkpt lat="29.7459796" lon="103.4082269"><ele>1104.19</ele><time>2026-04-24T22:03:49.000Z</time></trkpt>
        <trkpt lat="29.7459463" lon="103.4081862"><ele>1103.03</ele><time>2026-04-24T22:03:59.000Z</time></trkpt>
        <trkpt lat="29.74592" lon="103.4081434"><ele>1102.09</ele><time>2026-04-24T22:04:15.000Z</time></trkpt>
        <trkpt lat="29.7458884" lon="103.4081029"><ele>1101.24</ele><time>2026-04-24T22:04:25.000Z</time></trkpt>
        <trkpt lat="29.745842" lon="103.4080703"><ele>1100.9</ele><time>2026-04-24T22:04:33.000Z</time></trkpt>
        <trkpt lat="29.7458115" lon="103.4080266"><ele>1101.11</ele><time>2026-04-24T22:04:39.000Z</time></trkpt>
        <trkpt lat="29.7457733" lon="103.4079862"><ele>1101.77</ele><time>2026-04-24T22:05:01.000Z</time></trkpt>
        <trkpt lat="29.7457233" lon="103.4079616"><ele>1101.69</ele><time>2026-04-24T22:05:09.000Z</time></trkpt>
        <trkpt lat="29.7456865" lon="103.4079353"><ele>1102.61</ele><time>2026-04-24T22:05:15.000Z</time></trkpt>
        <trkpt lat="29.745647" lon="103.4079613"><ele>1102.94</ele><time>2026-04-24T22:05:31.000Z</time></trkpt>
        <trkpt lat="29.7455905" lon="103.4079639"><ele>1101.97</ele><time>2026-04-24T22:05:47.000Z</time></trkpt>
        <trkpt lat="29.7455615" lon="103.4079412"><ele>1102.15</ele><time>2026-04-24T22:05:55.000Z</time></trkpt>
        <trkpt lat="29.7455398" lon="103.4078934"><ele>1101.67</ele><time>2026-04-24T22:06:25.000Z</time></trkpt>
        <trkpt lat="29.745573" lon="103.4078445"><ele>1101.74</ele><time>2026-04-24T22:06:37.000Z</time></trkpt>
        <trkpt lat="29.7455817" lon="103.4077934"><ele>1100.84</ele><time>2026-04-24T22:06:45.000Z</time></trkpt>
        <trkpt lat="29.745584" lon="103.4077365"><ele>1100.19</ele><time>2026-04-24T22:07:37.000Z</time></trkpt>
        <trkpt lat="29.745587" lon="103.407671"><ele>1098.78</ele><time>2026-04-24T22:07:49.000Z</time></trkpt>
        <trkpt lat="29.7455605" lon="103.4076255"><ele>1097.99</ele><time>2026-04-24T22:07:57.000Z</time></trkpt>
        <trkpt lat="29.7455136" lon="103.4076036"><ele>1098.21</ele><time>2026-04-24T22:08:03.000Z</time></trkpt>
        <trkpt lat="29.7454677" lon="103.4075779"><ele>1098.68</ele><time>2026-04-24T22:08:11.000Z</time></trkpt>
        <trkpt lat="29.7454511" lon="103.4075307"><ele>1098.96</ele><time>2026-04-24T22:09:59.000Z</time></trkpt>
        <trkpt lat="29.7454511" lon="103.4075307"><ele>1098.96</ele><time>2026-04-24T22:10:24.000Z</time></trkpt>
        <trkpt lat="29.7454118" lon="103.4075001"><ele>1099.36</ele><time>2026-04-24T22:10:29.000Z</time></trkpt>
        <trkpt lat="29.7454118" lon="103.4075001"><ele>1099.36</ele><time>2026-04-24T22:10:38.000Z</time></trkpt>
        <trkpt lat="29.7453492" lon="103.4074935"><ele>1099.27</ele><time>2026-04-24T22:10:44.000Z</time></trkpt>
        <trkpt lat="29.7453011" lon="103.4075139"><ele>1098.71</ele><time>2026-04-24T22:11:24.000Z</time></trkpt>
        <trkpt lat="29.7452502" lon="103.4075313"><ele>1098.78</ele><time>2026-04-24T22:12:10.000Z</time></trkpt>
        <trkpt lat="29.745218" lon="103.4075707"><ele>1099.07</ele><time>2026-04-24T22:12:44.000Z</time></trkpt>
        <trkpt lat="29.74518" lon="103.4075964"><ele>1099.11</ele><time>2026-04-24T22:13:08.000Z</time></trkpt>
        <trkpt lat="29.7451397" lon="103.407624"><ele>1099.79</ele><time>2026-04-24T22:15:00.000Z</time></trkpt>
        <trkpt lat="29.7451752" lon="103.4075917"><ele>1101.96</ele><time>2026-04-24T22:16:26.000Z</time></trkpt>
        <trkpt lat="29.7452238" lon="103.4075841"><ele>1101.94</ele><time>2026-04-24T22:17:28.000Z</time></trkpt>
        <trkpt lat="29.7452238" lon="103.4075841"><ele>1101.94</ele><time>2026-04-24T22:20:14.000Z</time></trkpt>
        <trkpt lat="29.7452606" lon="103.4075367"><ele>1099.67</ele><time>2026-04-24T22:20:17.000Z</time></trkpt>
        <trkpt lat="29.7452606" lon="103.4075367"><ele>1099.67</ele><time>2026-04-24T22:21:20.000Z</time></trkpt>
        <trkpt lat="29.7453123" lon="103.4075338"><ele>1099.61</ele><time>2026-04-24T22:21:28.000Z</time></trkpt>
        <trkpt lat="29.7453123" lon="103.4075338"><ele>1099.61</ele><time>2026-04-24T22:22:24.000Z</time></trkpt>
        <trkpt lat="29.7453452" lon="103.4074882"><ele>1099.76</ele><time>2026-04-24T22:22:41.000Z</time></trkpt>
        <trkpt lat="29.7453452" lon="103.4074882"><ele>1099.76</ele><time>2026-04-24T22:23:34.000Z</time></trkpt>
        <trkpt lat="29.7452996" lon="103.4074473"><ele>1097.59</ele><time>2026-04-24T22:23:42.000Z</time></trkpt>
        <trkpt lat="29.7452563" lon="103.4073971"><ele>1095.91</ele><time>2026-04-24T22:23:50.000Z</time></trkpt>
        <trkpt lat="29.7452047" lon="103.407374"><ele>1095.62</ele><time>2026-04-24T22:23:54.000Z</time></trkpt>
        <trkpt lat="29.7451553" lon="103.4073679"><ele>1096.19</ele><time>2026-04-24T22:23:58.000Z</time></trkpt>
        <trkpt lat="29.7451132" lon="103.4073989"><ele>1097.66</ele><time>2026-04-24T22:24:12.000Z</time></trkpt>
        <trkpt lat="29.7450665" lon="103.407422"><ele>1099.19</ele><time>2026-04-24T22:24:30.000Z</time></trkpt>
        <trkpt lat="29.7450873" lon="103.4074026"><ele>1101.04</ele><time>2026-04-24T22:24:44.000Z</time></trkpt>
        <trkpt lat="29.745115" lon="103.4073533"><ele>1101.58</ele><time>2026-04-24T22:24:52.000Z</time></trkpt>
        <trkpt lat="29.7451103" lon="103.4072941"><ele>1101.39</ele><time>2026-04-24T22:24:58.000Z</time></trkpt>
        <trkpt lat="29.7450565" lon="103.4072666"><ele>1100.9</ele><time>2026-04-24T22:25:04.000Z</time></trkpt>
        <trkpt lat="29.7450263" lon="103.4072232"><ele>1101.7</ele><time>2026-04-24T22:25:10.000Z</time></trkpt>
        <trkpt lat="29.7449876" lon="103.4071845"><ele>1101.51</ele><time>2026-04-24T22:25:18.000Z</time></trkpt>
        <trkpt lat="29.7449637" lon="103.407135"><ele>1100.86</ele><time>2026-04-24T22:25:38.000Z</time></trkpt>
        <trkpt lat="29.7449411" lon="103.4070816"><ele>1100.81</ele><time>2026-04-24T22:26:07.000Z</time></trkpt>
        <trkpt lat="29.7449711" lon="103.407029"><ele>1101.28</ele><time>2026-04-24T22:26:25.000Z</time></trkpt>
        <trkpt lat="29.7449697" lon="103.4069656"><ele>1098.85</ele><time>2026-04-24T22:26:31.000Z</time></trkpt>
        <trkpt lat="29.744952" lon="103.4069004"><ele>1096.95</ele><time>2026-04-24T22:26:35.000Z</time></trkpt>
        <trkpt lat="29.7449398" lon="103.4068395"><ele>1096.32</ele><time>2026-04-24T22:26:39.000Z</time></trkpt>
        <trkpt lat="29.7449263" lon="103.4067748"><ele>1095.45</ele><time>2026-04-24T22:26:53.000Z</time></trkpt>
        <trkpt lat="29.744908" lon="103.4067279"><ele>1091.93</ele><time>2026-04-24T22:26:57.000Z</time></trkpt>
        <trkpt lat="29.7449073" lon="103.4066718"><ele>1088.92</ele><time>2026-04-24T22:27:11.000Z</time></trkpt>
        <trkpt lat="29.7448743" lon="103.4066338"><ele>1087.91</ele><time>2026-04-24T22:27:17.000Z</time></trkpt>
        <trkpt lat="29.7448302" lon="103.4066385"><ele>1086.98</ele><time>2026-04-24T22:27:23.000Z</time></trkpt>
        <trkpt lat="29.7447997" lon="103.4066906"><ele>1086.94</ele><time>2026-04-24T22:27:33.000Z</time></trkpt>
        <trkpt lat="29.7447978" lon="103.4067151"><ele>1087.46</ele><time>2026-04-24T22:27:35.000Z</time></trkpt>
        <trkpt lat="29.7448295" lon="103.4066829"><ele>1086.94</ele><time>2026-04-24T22:27:41.000Z</time></trkpt>
        <trkpt lat="29.7448221" lon="103.4066355"><ele>1086.32</ele><time>2026-04-24T22:27:49.000Z</time></trkpt>
        <trkpt lat="29.7447932" lon="103.4065861"><ele>1084.23</ele><time>2026-04-24T22:27:55.000Z</time></trkpt>
        <trkpt lat="29.7447425" lon="103.4065415"><ele>1083.02</ele><time>2026-04-24T22:28:01.000Z</time></trkpt>
        <trkpt lat="29.74469" lon="103.4065217"><ele>1082.97</ele><time>2026-04-24T22:28:07.000Z</time></trkpt>
        <trkpt lat="29.7446345" lon="103.4065016"><ele>1083.91</ele><time>2026-04-24T22:28:13.000Z</time></trkpt>
        <trkpt lat="29.7445881" lon="103.4064685"><ele>1084.18</ele><time>2026-04-24T22:28:45.000Z</time></trkpt>
        <trkpt lat="29.7445336" lon="103.4064495"><ele>1086.78</ele><time>2026-04-24T22:28:51.000Z</time></trkpt>
        <trkpt lat="29.7444838" lon="103.4064367"><ele>1089.27</ele><time>2026-04-24T22:29:05.000Z</time></trkpt>
        <trkpt lat="29.7444367" lon="103.4064073"><ele>1091.49</ele><time>2026-04-24T22:29:21.000Z</time></trkpt>
        <trkpt lat="29.7443838" lon="103.406363"><ele>1092.38</ele><time>2026-04-24T22:29:27.000Z</time></trkpt>
        <trkpt lat="29.7443706" lon="103.406343"><ele>1092.23</ele><time>2026-04-24T22:29:29.000Z</time></trkpt>
        <trkpt lat="29.7443643" lon="103.406297"><ele>1092.78</ele><time>2026-04-24T22:29:35.000Z</time></trkpt>
        <trkpt lat="29.7443685" lon="103.4062445"><ele>1093.6</ele><time>2026-04-24T22:29:43.000Z</time></trkpt>
        <trkpt lat="29.7444044" lon="103.4062024"><ele>1093.31</ele><time>2026-04-24T22:29:51.000Z</time></trkpt>
        <trkpt lat="29.7444304" lon="103.406138"><ele>1091.77</ele><time>2026-04-24T22:29:57.000Z</time></trkpt>
        <trkpt lat="29.7444196" lon="103.4060835"><ele>1089.71</ele><time>2026-04-24T22:30:01.000Z</time></trkpt>
        <trkpt lat="29.7444002" lon="103.4060209"><ele>1088.69</ele><time>2026-04-24T22:30:07.000Z</time></trkpt>
        <trkpt lat="29.7443948" lon="103.4059619"><ele>1088.76</ele><time>2026-04-24T22:30:17.000Z</time></trkpt>
        <trkpt lat="29.7444176" lon="103.4059127"><ele>1088.89</ele><time>2026-04-24T22:30:23.000Z</time></trkpt>
        <trkpt lat="29.7444215" lon="103.4059043"><ele>1088.52</ele><time>2026-04-24T22:30:25.000Z</time></trkpt>
        <trkpt lat="29.7443802" lon="103.405898"><ele>1088.03</ele><time>2026-04-24T22:30:31.000Z</time></trkpt>
        <trkpt lat="29.7443579" lon="103.4058587"><ele>1086.52</ele><time>2026-04-24T22:30:39.000Z</time></trkpt>
        <trkpt lat="29.7443469" lon="103.4058045"><ele>1083.69</ele><time>2026-04-24T22:30:47.000Z</time></trkpt>
        <trkpt lat="29.7443256" lon="103.4057463"><ele>1081.34</ele><time>2026-04-24T22:30:55.000Z</time></trkpt>
        <trkpt lat="29.7442836" lon="103.4057096"><ele>1079.78</ele><time>2026-04-24T22:31:01.000Z</time></trkpt>
        <trkpt lat="29.7442709" lon="103.4056511"><ele>1079.05</ele><time>2026-04-24T22:31:13.000Z</time></trkpt>
        <trkpt lat="29.744237" lon="103.405616"><ele>1078.19</ele><time>2026-04-24T22:31:19.000Z</time></trkpt>
        <trkpt lat="29.7441969" lon="103.4055822"><ele>1077.5</ele><time>2026-04-24T22:31:27.000Z</time></trkpt>
        <trkpt lat="29.7441598" lon="103.4055396"><ele>1077.01</ele><time>2026-04-24T22:31:33.000Z</time></trkpt>
        <trkpt lat="29.7441584" lon="103.4055239"><ele>1076.43</ele><time>2026-04-24T22:31:37.000Z</time></trkpt>
        <trkpt lat="29.7441584" lon="103.4055239"><ele>1076.43</ele><time>2026-04-24T22:34:10.000Z</time></trkpt>
        <trkpt lat="29.7441402" lon="103.405488"><ele>1076.34</ele><time>2026-04-24T22:34:13.000Z</time></trkpt>
        <trkpt lat="29.7441402" lon="103.405488"><ele>1076.34</ele><time>2026-04-24T22:34:37.000Z</time></trkpt>
        <trkpt lat="29.7441047" lon="103.4054548"><ele>1077.23</ele><time>2026-04-24T22:34:43.000Z</time></trkpt>
        <trkpt lat="29.744067" lon="103.4054213"><ele>1078.28</ele><time>2026-04-24T22:34:53.000Z</time></trkpt>
        <trkpt lat="29.7440172" lon="103.4053848"><ele>1079.1</ele><time>2026-04-24T22:35:25.000Z</time></trkpt>
        <trkpt lat="29.7439697" lon="103.4053504"><ele>1079.9</ele><time>2026-04-24T22:35:31.000Z</time></trkpt>
        <trkpt lat="29.7439514" lon="103.4053182"><ele>1080.79</ele><time>2026-04-24T22:35:39.000Z</time></trkpt>
        <trkpt lat="29.7439465" lon="103.4052614"><ele>1081.33</ele><time>2026-04-24T22:36:05.000Z</time></trkpt>
        <trkpt lat="29.7439455" lon="103.4052049"><ele>1081.34</ele><time>2026-04-24T22:36:11.000Z</time></trkpt>
        <trkpt lat="29.743958" lon="103.4051502"><ele>1082.27</ele><time>2026-04-24T22:36:15.000Z</time></trkpt>
        <trkpt lat="29.7439508" lon="103.4050987"><ele>1081.54</ele><time>2026-04-24T22:36:25.000Z</time></trkpt>
        <trkpt lat="29.7439066" lon="103.4050853"><ele>1080.58</ele><time>2026-04-24T22:37:01.000Z</time></trkpt>
        <trkpt lat="29.7438688" lon="103.4051194"><ele>1080.87</ele><time>2026-04-24T22:37:09.000Z</time></trkpt>
        <trkpt lat="29.7438256" lon="103.4051672"><ele>1079.77</ele><time>2026-04-24T22:37:17.000Z</time></trkpt>
        <trkpt lat="29.743779" lon="103.4052102"><ele>1079.97</ele><time>2026-04-24T22:37:25.000Z</time></trkpt>
        <trkpt lat="29.7437428" lon="103.4052386"><ele>1080.36</ele><time>2026-04-24T22:37:31.000Z</time></trkpt>
        <trkpt lat="29.7436978" lon="103.4052336"><ele>1081.52</ele><time>2026-04-24T22:37:47.000Z</time></trkpt>
        <trkpt lat="29.7436968" lon="103.4052275"><ele>1079.03</ele><time>2026-04-24T22:37:49.000Z</time></trkpt>
        <trkpt lat="29.7436741" lon="103.4052005"><ele>1077.39</ele><time>2026-04-24T22:38:33.000Z</time></trkpt>
        <trkpt lat="29.7436307" lon="103.4052138"><ele>1071.49</ele><time>2026-04-24T22:38:39.000Z</time></trkpt>
        <trkpt lat="29.7435852" lon="103.4052349"><ele>1068.7</ele><time>2026-04-24T22:38:55.000Z</time></trkpt>
        <trkpt lat="29.7435656" lon="103.4052886"><ele>1064.91</ele><time>2026-04-24T22:39:05.000Z</time></trkpt>
        <trkpt lat="29.7435838" lon="103.4052322"><ele>1062.11</ele><time>2026-04-24T22:40:09.000Z</time></trkpt>
        <trkpt lat="29.7435968" lon="103.4051724"><ele>1060.43</ele><time>2026-04-24T22:40:41.000Z</time></trkpt>
        <trkpt lat="29.7435966" lon="103.4051704"><ele>1059.72</ele><time>2026-04-24T22:40:43.000Z</time></trkpt>
        <trkpt lat="29.7436039" lon="103.4051276"><ele>1059.3</ele><time>2026-04-24T22:40:53.000Z</time></trkpt>
        <trkpt lat="29.7436113" lon="103.4050706"><ele>1059.38</ele><time>2026-04-24T22:41:03.000Z</time></trkpt>
        <trkpt lat="29.7435968" lon="103.405028"><ele>1058.45</ele><time>2026-04-24T22:41:09.000Z</time></trkpt>
        <trkpt lat="29.7436003" lon="103.4049773"><ele>1057.47</ele><time>2026-04-24T22:41:13.000Z</time></trkpt>
        <trkpt lat="29.7436166" lon="103.404922"><ele>1056.55</ele><time>2026-04-24T22:41:19.000Z</time></trkpt>
        <trkpt lat="29.7436385" lon="103.4048919"><ele>1056.32</ele><time>2026-04-24T22:41:27.000Z</time></trkpt>
        <trkpt lat="29.7436158" lon="103.4048632"><ele>1056.64</ele><time>2026-04-24T22:42:01.000Z</time></trkpt>
        <trkpt lat="29.7435682" lon="103.4048164"><ele>1056.02</ele><time>2026-04-24T22:42:07.000Z</time></trkpt>
        <trkpt lat="29.7435189" lon="103.4047782"><ele>1055.41</ele><time>2026-04-24T22:42:13.000Z</time></trkpt>
        <trkpt lat="29.7434764" lon="103.4047425"><ele>1055.05</ele><time>2026-04-24T22:42:19.000Z</time></trkpt>
        <trkpt lat="29.743439" lon="103.4046962"><ele>1053.81</ele><time>2026-04-24T22:42:25.000Z</time></trkpt>
        <trkpt lat="29.7433882" lon="103.4046518"><ele>1051.76</ele><time>2026-04-24T22:42:29.000Z</time></trkpt>
        <trkpt lat="29.7433632" lon="103.4045976"><ele>1050.96</ele><time>2026-04-24T22:42:33.000Z</time></trkpt>
        <trkpt lat="29.7433901" lon="103.4045575"><ele>1050.99</ele><time>2026-04-24T22:42:37.000Z</time></trkpt>
        <trkpt lat="29.7434065" lon="103.4045475"><ele>1050.89</ele><time>2026-04-24T22:42:39.000Z</time></trkpt>
        <trkpt lat="29.7434329" lon="103.4045132"><ele>1050.8</ele><time>2026-04-24T22:43:15.000Z</time></trkpt>
        <trkpt lat="29.7434582" lon="103.4044647"><ele>1051.99</ele><time>2026-04-24T22:43:23.000Z</time></trkpt>
        <trkpt lat="29.7434866" lon="103.4043994"><ele>1051.72</ele><time>2026-04-24T22:43:33.000Z</time></trkpt>
        <trkpt lat="29.7435141" lon="103.4043475"><ele>1051.49</ele><time>2026-04-24T22:43:37.000Z</time></trkpt>
        <trkpt lat="29.7435401" lon="103.4043061"><ele>1051.79</ele><time>2026-04-24T22:43:50.000Z</time></trkpt>
        <trkpt lat="29.7435771" lon="103.4042484"><ele>1051.48</ele><time>2026-04-24T22:43:56.000Z</time></trkpt>
        <trkpt lat="29.7435809" lon="103.4041873"><ele>1051.01</ele><time>2026-04-24T22:44:00.000Z</time></trkpt>
        <trkpt lat="29.7435387" lon="103.4042152"><ele>1050.49</ele><time>2026-04-24T22:44:06.000Z</time></trkpt>
        <trkpt lat="29.7434713" lon="103.4042696"><ele>1049.4</ele><time>2026-04-24T22:44:10.000Z</time></trkpt>
        <trkpt lat="29.7434153" lon="103.4043301"><ele>1047.97</ele><time>2026-04-24T22:44:14.000Z</time></trkpt>
        <trkpt lat="29.7433488" lon="103.4043705"><ele>1046.35</ele><time>2026-04-24T22:44:20.000Z</time></trkpt>
        <trkpt lat="29.7432897" lon="103.4043759"><ele>1045.53</ele><time>2026-04-24T22:44:24.000Z</time></trkpt>
        <trkpt lat="29.7432377" lon="103.4043546"><ele>1044.21</ele><time>2026-04-24T22:44:28.000Z</time></trkpt>
        <trkpt lat="29.7432001" lon="103.4043153"><ele>1042.71</ele><time>2026-04-24T22:44:32.000Z</time></trkpt>
        <trkpt lat="29.7431946" lon="103.4042628"><ele>1042.74</ele><time>2026-04-24T22:44:40.000Z</time></trkpt>
        <trkpt lat="29.7432175" lon="103.4041973"><ele>1043.95</ele><time>2026-04-24T22:47:13.000Z</time></trkpt>
        <trkpt lat="29.74317" lon="103.404186"><ele>1041.87</ele><time>2026-04-24T22:48:25.000Z</time></trkpt>
        <trkpt lat="29.7432279" lon="103.4041895"><ele>1039.37</ele><time>2026-04-24T22:50:03.000Z</time></trkpt>
        <trkpt lat="29.7432303" lon="103.4041826"><ele>1037.37</ele><time>2026-04-24T22:50:05.000Z</time></trkpt>
        <trkpt lat="29.7432648" lon="103.4041548"><ele>1036.37</ele><time>2026-04-24T22:50:14.000Z</time></trkpt>
        <trkpt lat="29.7433055" lon="103.4041121"><ele>1035.84</ele><time>2026-04-24T22:50:20.000Z</time></trkpt>
        <trkpt lat="29.7433529" lon="103.4040979"><ele>1036.21</ele><time>2026-04-24T22:50:30.000Z</time></trkpt>
        <trkpt lat="29.743401" lon="103.4041056"><ele>1036.53</ele><time>2026-04-24T22:50:36.000Z</time></trkpt>
        <trkpt lat="29.7434535" lon="103.404103"><ele>1037.52</ele><time>2026-04-24T22:50:42.000Z</time></trkpt>
        <trkpt lat="29.7435053" lon="103.4040792"><ele>1038.03</ele><time>2026-04-24T22:50:50.000Z</time></trkpt>
        <trkpt lat="29.7435534" lon="103.4040365"><ele>1038.74</ele><time>2026-04-24T22:50:56.000Z</time></trkpt>
        <trkpt lat="29.7436012" lon="103.4039934"><ele>1036.5</ele><time>2026-04-24T22:51:00.000Z</time></trkpt>
        <trkpt lat="29.7436127" lon="103.4039256"><ele>1034.63</ele><time>2026-04-24T22:51:06.000Z</time></trkpt>
        <trkpt lat="29.7436339" lon="103.4038763"><ele>1033.96</ele><time>2026-04-24T22:51:14.000Z</time></trkpt>
        <trkpt lat="29.743603" lon="103.4038555"><ele>1032.79</ele><time>2026-04-24T22:51:42.000Z</time></trkpt>
        <trkpt lat="29.7435886" lon="103.4038528"><ele>1033.81</ele><time>2026-04-24T22:51:44.000Z</time></trkpt>
        <trkpt lat="29.7436139" lon="103.4038339"><ele>1034.4</ele><time>2026-04-24T22:52:20.000Z</time></trkpt>
        <trkpt lat="29.7436606" lon="103.4038267"><ele>1034.53</ele><time>2026-04-24T22:52:46.000Z</time></trkpt>
        <trkpt lat="29.7437232" lon="103.4038101"><ele>1034.17</ele><time>2026-04-24T22:52:52.000Z</time></trkpt>
        <trkpt lat="29.7437817" lon="103.4037725"><ele>1033.25</ele><time>2026-04-24T22:52:58.000Z</time></trkpt>
        <trkpt lat="29.7437895" lon="103.4037105"><ele>1032.86</ele><time>2026-04-24T22:53:35.000Z</time></trkpt>
        <trkpt lat="29.7437917" lon="103.4036383"><ele>1032.72</ele><time>2026-04-24T22:53:41.000Z</time></trkpt>
        <trkpt lat="29.7438206" lon="103.4036017"><ele>1032.48</ele><time>2026-04-24T22:53:47.000Z</time></trkpt>
        <trkpt lat="29.7438372" lon="103.4035559"><ele>1032.04</ele><time>2026-04-24T22:54:07.000Z</time></trkpt>
        <trkpt lat="29.7438312" lon="103.4035036"><ele>1030.4</ele><time>2026-04-24T22:54:27.000Z</time></trkpt>
        <trkpt lat="29.7438369" lon="103.4034414"><ele>1028.97</ele><time>2026-04-24T22:54:47.000Z</time></trkpt>
        <trkpt lat="29.743856" lon="103.4033876"><ele>1027.46</ele><time>2026-04-24T22:54:51.000Z</time></trkpt>
        <trkpt lat="29.7438774" lon="103.4033344"><ele>1026.34</ele><time>2026-04-24T22:54:55.000Z</time></trkpt>
        <trkpt lat="29.7438938" lon="103.4032792"><ele>1026.22</ele><time>2026-04-24T22:54:59.000Z</time></trkpt>
        <trkpt lat="29.7438938" lon="103.4032792"><ele>1026.22</ele><time>2026-04-24T22:55:12.000Z</time></trkpt>
        <trkpt lat="29.7439237" lon="103.4032259"><ele>1026.68</ele><time>2026-04-24T22:55:33.000Z</time></trkpt>
        <trkpt lat="29.7439237" lon="103.4032259"><ele>1026.68</ele><time>2026-04-24T22:55:42.000Z</time></trkpt>
        <trkpt lat="29.7439483" lon="103.4031711"><ele>1025.08</ele><time>2026-04-24T22:55:50.000Z</time></trkpt>
        <trkpt lat="29.7439774" lon="103.4031124"><ele>1023.27</ele><time>2026-04-24T22:55:58.000Z</time></trkpt>
        <trkpt lat="29.7439816" lon="103.4030816"><ele>1022.83</ele><time>2026-04-24T22:56:00.000Z</time></trkpt>
        <trkpt lat="29.7439766" lon="103.4030334"><ele>1022.97</ele><time>2026-04-24T22:56:30.000Z</time></trkpt>
        <trkpt lat="29.7439828" lon="103.4029837"><ele>1024.89</ele><time>2026-04-24T22:56:34.000Z</time></trkpt>
        <trkpt lat="29.7440091" lon="103.4029363"><ele>1025.98</ele><time>2026-04-24T22:56:38.000Z</time></trkpt>
        <trkpt lat="29.7440254" lon="103.4028843"><ele>1025.54</ele><time>2026-04-24T22:56:42.000Z</time></trkpt>
        <trkpt lat="29.7440582" lon="103.4028149"><ele>1024.22</ele><time>2026-04-24T22:56:46.000Z</time></trkpt>
        <trkpt lat="29.7440855" lon="103.4027568"><ele>1021.76</ele><time>2026-04-24T22:56:48.000Z</time></trkpt>
        <trkpt lat="29.744126" lon="103.4026603"><ele>1020.22</ele><time>2026-04-24T22:56:52.000Z</time></trkpt>
        <trkpt lat="29.7441608" lon="103.4025815"><ele>1019.82</ele><time>2026-04-24T22:56:56.000Z</time></trkpt>
        <trkpt lat="29.7441704" lon="103.4025536"><ele>1019.92</ele><time>2026-04-24T22:56:58.000Z</time></trkpt>
        <trkpt lat="29.744202" lon="103.4025305"><ele>1020.39</ele><time>2026-04-24T22:57:12.000Z</time></trkpt>
        <trkpt lat="29.7442189" lon="103.4024663"><ele>1020.4</ele><time>2026-04-24T22:57:18.000Z</time></trkpt>
        <trkpt lat="29.7442256" lon="103.4023936"><ele>1020.11</ele><time>2026-04-24T22:57:28.000Z</time></trkpt>
        <trkpt lat="29.7442354" lon="103.4023218"><ele>1019.67</ele><time>2026-04-24T22:57:32.000Z</time></trkpt>
        <trkpt lat="29.7442661" lon="103.4022478"><ele>1017.47</ele><time>2026-04-24T22:57:36.000Z</time></trkpt>
        <trkpt lat="29.744285" lon="103.40217"><ele>1015.05</ele><time>2026-04-24T22:57:40.000Z</time></trkpt>
        <trkpt lat="29.7443096" lon="103.4020974"><ele>1012.77</ele><time>2026-04-24T22:57:44.000Z</time></trkpt>
        <trkpt lat="29.7443414" lon="103.4020163"><ele>1010.75</ele><time>2026-04-24T22:57:48.000Z</time></trkpt>
        <trkpt lat="29.7443844" lon="103.4019405"><ele>1008.41</ele><time>2026-04-24T22:57:52.000Z</time></trkpt>
        <trkpt lat="29.7444161" lon="103.4018831"><ele>1006.36</ele><time>2026-04-24T22:57:54.000Z</time></trkpt>
        <trkpt lat="29.7444383" lon="103.4018225"><ele>1005.54</ele><time>2026-04-24T22:57:58.000Z</time></trkpt>
        <trkpt lat="29.7444274" lon="103.4017535"><ele>1005.25</ele><time>2026-04-24T22:58:04.000Z</time></trkpt>
        <trkpt lat="29.7443999" lon="103.4017316"><ele>1005.38</ele><time>2026-04-24T22:58:08.000Z</time></trkpt>
        <trkpt lat="29.7443579" lon="103.401768"><ele>1005.62</ele><time>2026-04-24T22:58:14.000Z</time></trkpt>
        <trkpt lat="29.7442992" lon="103.4017717"><ele>1006.37</ele><time>2026-04-24T22:58:18.000Z</time></trkpt>
        <trkpt lat="29.7442449" lon="103.4017608"><ele>1006.48</ele><time>2026-04-24T22:58:22.000Z</time></trkpt>
        <trkpt lat="29.7441784" lon="103.4017619"><ele>1006.27</ele><time>2026-04-24T22:58:26.000Z</time></trkpt>
        <trkpt lat="29.7441207" lon="103.4017358"><ele>1005.22</ele><time>2026-04-24T22:58:34.000Z</time></trkpt>
        <trkpt lat="29.7440781" lon="103.4016967"><ele>1003.63</ele><time>2026-04-24T22:58:40.000Z</time></trkpt>
        <trkpt lat="29.7440274" lon="103.4016901"><ele>1002.46</ele><time>2026-04-24T22:58:48.000Z</time></trkpt>
        <trkpt lat="29.7439768" lon="103.401732"><ele>998.8</ele><time>2026-04-24T22:58:56.000Z</time></trkpt>
        <trkpt lat="29.7439663" lon="103.401761"><ele>995.47</ele><time>2026-04-24T22:58:58.000Z</time></trkpt>
        <trkpt lat="29.7439292" lon="103.4017298"><ele>992.95</ele><time>2026-04-24T22:59:12.000Z</time></trkpt>
        <trkpt lat="29.743899" lon="103.4016776"><ele>991.57</ele><time>2026-04-24T22:59:20.000Z</time></trkpt>
        <trkpt lat="29.7439099" lon="103.4016368"><ele>988.77</ele><time>2026-04-24T22:59:26.000Z</time></trkpt>
        <trkpt lat="29.7439177" lon="103.4015807"><ele>985.72</ele><time>2026-04-24T22:59:40.000Z</time></trkpt>
        <trkpt lat="29.743888" lon="103.401522"><ele>984.33</ele><time>2026-04-24T22:59:44.000Z</time></trkpt>
        <trkpt lat="29.7438865" lon="103.4014608"><ele>983.43</ele><time>2026-04-24T22:59:48.000Z</time></trkpt>
        <trkpt lat="29.743886" lon="103.4013955"><ele>981.51</ele><time>2026-04-24T22:59:52.000Z</time></trkpt>
        <trkpt lat="29.7439154" lon="103.4013234"><ele>979.97</ele><time>2026-04-24T22:59:58.000Z</time></trkpt>
        <trkpt lat="29.7439437" lon="103.401268"><ele>976.41</ele><time>2026-04-24T23:00:00.000Z</time></trkpt>
        <trkpt lat="29.7439447" lon="103.4012167"><ele>974.07</ele><time>2026-04-24T23:00:04.000Z</time></trkpt>
        <trkpt lat="29.743954" lon="103.4011667"><ele>973.08</ele><time>2026-04-24T23:00:08.000Z</time></trkpt>
        <trkpt lat="29.7439823" lon="103.4011286"><ele>972.19</ele><time>2026-04-24T23:00:14.000Z</time></trkpt>
        <trkpt lat="29.7439927" lon="103.4011499"><ele>970.58</ele><time>2026-04-24T23:00:16.000Z</time></trkpt>
        <trkpt lat="29.7440093" lon="103.4010853"><ele>968.79</ele><time>2026-04-24T23:00:22.000Z</time></trkpt>
        <trkpt lat="29.7440499" lon="103.401022"><ele>967.7</ele><time>2026-04-24T23:00:28.000Z</time></trkpt>
        <trkpt lat="29.744087" lon="103.400956"><ele>966.3</ele><time>2026-04-24T23:00:32.000Z</time></trkpt>
        <trkpt lat="29.7441134" lon="103.4008939"><ele>965.46</ele><time>2026-04-24T23:00:36.000Z</time></trkpt>
        <trkpt lat="29.7441073" lon="103.4008257"><ele>964.92</ele><time>2026-04-24T23:00:40.000Z</time></trkpt>
        <trkpt lat="29.7441163" lon="103.4008109"><ele>964.43</ele><time>2026-04-24T23:00:46.000Z</time></trkpt>
        <trkpt lat="29.7441098" lon="103.4008606"><ele>963.45</ele><time>2026-04-24T23:01:14.000Z</time></trkpt>
        <trkpt lat="29.7440796" lon="103.4009125"><ele>962.06</ele><time>2026-04-24T23:01:22.000Z</time></trkpt>
        <trkpt lat="29.7440484" lon="103.4009759"><ele>960.54</ele><time>2026-04-24T23:01:26.000Z</time></trkpt>
        <trkpt lat="29.7440155" lon="103.4010292"><ele>959.54</ele><time>2026-04-24T23:01:32.000Z</time></trkpt>
        <trkpt lat="29.7440155" lon="103.4010292"><ele>959.54</ele><time>2026-04-24T23:02:18.000Z</time></trkpt>
        <trkpt lat="29.7439627" lon="103.4010441"><ele>959.67</ele><time>2026-04-24T23:02:25.000Z</time></trkpt>
        <trkpt lat="29.7439627" lon="103.4010441"><ele>959.67</ele><time>2026-04-24T23:04:39.000Z</time></trkpt>
        <trkpt lat="29.7439446" lon="103.4010918"><ele>959.65</ele><time>2026-04-24T23:05:53.000Z</time></trkpt>
        <trkpt lat="29.7439059" lon="103.4011216"><ele>954.48</ele><time>2026-04-24T23:06:05.000Z</time></trkpt>
        <trkpt lat="29.7438632" lon="103.4011504"><ele>949.23</ele><time>2026-04-24T23:06:32.000Z</time></trkpt>
        <trkpt lat="29.7438321" lon="103.4011927"><ele>943.65</ele><time>2026-04-24T23:06:36.000Z</time></trkpt>
        <trkpt lat="29.7438202" lon="103.4012074"><ele>941.2</ele><time>2026-04-24T23:06:38.000Z</time></trkpt>
        <trkpt lat="29.7437889" lon="103.4012312"><ele>939.73</ele><time>2026-04-24T23:06:50.000Z</time></trkpt>
        <trkpt lat="29.7437386" lon="103.4012676"><ele>937.98</ele><time>2026-04-24T23:06:56.000Z</time></trkpt>
        <trkpt lat="29.7437016" lon="103.4013188"><ele>937.47</ele><time>2026-04-24T23:07:00.000Z</time></trkpt>
        <trkpt lat="29.7436514" lon="103.4013646"><ele>937.18</ele><time>2026-04-24T23:07:08.000Z</time></trkpt>
        <trkpt lat="29.7436259" lon="103.4013381"><ele>937.36</ele><time>2026-04-24T23:07:16.000Z</time></trkpt>
        <trkpt lat="29.7435836" lon="103.4012999"><ele>937.27</ele><time>2026-04-24T23:07:26.000Z</time></trkpt>
        <trkpt lat="29.7435309" lon="103.401265"><ele>938.11</ele><time>2026-04-24T23:07:34.000Z</time></trkpt>
        <trkpt lat="29.7435133" lon="103.4012465"><ele>939.38</ele><time>2026-04-24T23:07:38.000Z</time></trkpt>
        <trkpt lat="29.7435142" lon="103.401197"><ele>938.74</ele><time>2026-04-24T23:07:52.000Z</time></trkpt>
        <trkpt lat="29.743525" lon="103.4011933"><ele>936.47</ele><time>2026-04-24T23:07:56.000Z</time></trkpt>
        <trkpt lat="29.7435096" lon="103.4012316"><ele>934.42</ele><time>2026-04-24T23:08:04.000Z</time></trkpt>
        <trkpt lat="29.7434739" lon="103.4012704"><ele>934.31</ele><time>2026-04-24T23:08:45.000Z</time></trkpt>
        <trkpt lat="29.7434593" lon="103.4013276"><ele>931.22</ele><time>2026-04-24T23:08:51.000Z</time></trkpt>
        <trkpt lat="29.7434404" lon="103.4013831"><ele>928.6</ele><time>2026-04-24T23:08:59.000Z</time></trkpt>
        <trkpt lat="29.7434019" lon="103.4013694"><ele>925.19</ele><time>2026-04-24T23:09:19.000Z</time></trkpt>
        <trkpt lat="29.7433647" lon="103.40133"><ele>920.8</ele><time>2026-04-24T23:09:25.000Z</time></trkpt>
        <trkpt lat="29.7433246" lon="103.4012948"><ele>917.46</ele><time>2026-04-24T23:09:33.000Z</time></trkpt>
        <trkpt lat="29.7432655" lon="103.4012779"><ele>914.15</ele><time>2026-04-24T23:09:45.000Z</time></trkpt>
        <trkpt lat="29.7432082" lon="103.4012946"><ele>907.8</ele><time>2026-04-24T23:09:51.000Z</time></trkpt>
        <trkpt lat="29.7431676" lon="103.4013419"><ele>903.57</ele><time>2026-04-24T23:09:55.000Z</time></trkpt>
        <trkpt lat="29.743146" lon="103.4014012"><ele>900.34</ele><time>2026-04-24T23:09:59.000Z</time></trkpt>
        <trkpt lat="29.7431235" lon="103.4014557"><ele>897.14</ele><time>2026-04-24T23:10:05.000Z</time></trkpt>
        <trkpt lat="29.7430862" lon="103.401491"><ele>894.72</ele><time>2026-04-24T23:10:09.000Z</time></trkpt>
        <trkpt lat="29.7430394" lon="103.4015302"><ele>892.94</ele><time>2026-04-24T23:10:13.000Z</time></trkpt>
        <trkpt lat="29.7429905" lon="103.4015693"><ele>891.34</ele><time>2026-04-24T23:10:17.000Z</time></trkpt>
        <trkpt lat="29.7429358" lon="103.4015669"><ele>890.49</ele><time>2026-04-24T23:10:23.000Z</time></trkpt>
        <trkpt lat="29.7428873" lon="103.40155"><ele>889.26</ele><time>2026-04-24T23:10:27.000Z</time></trkpt>
        <trkpt lat="29.7428408" lon="103.4015299"><ele>887.93</ele><time>2026-04-24T23:10:31.000Z</time></trkpt>
        <trkpt lat="29.7427905" lon="103.4015073"><ele>886.61</ele><time>2026-04-24T23:10:37.000Z</time></trkpt>
        <trkpt lat="29.7427463" lon="103.401528"><ele>884.42</ele><time>2026-04-24T23:10:41.000Z</time></trkpt>
        <trkpt lat="29.7427004" lon="103.4015697"><ele>882.59</ele><time>2026-04-24T23:10:47.000Z</time></trkpt>
        <trkpt lat="29.7426538" lon="103.4015904"><ele>880</ele><time>2026-04-24T23:10:51.000Z</time></trkpt>
        <trkpt lat="29.7426072" lon="103.401605"><ele>878.77</ele><time>2026-04-24T23:10:55.000Z</time></trkpt>
        <trkpt lat="29.7425508" lon="103.4016085"><ele>877.33</ele><time>2026-04-24T23:10:59.000Z</time></trkpt>
        <trkpt lat="29.7424916" lon="103.4015921"><ele>877.69</ele><time>2026-04-24T23:11:03.000Z</time></trkpt>
        <trkpt lat="29.7424529" lon="103.4015496"><ele>878.29</ele><time>2026-04-24T23:11:07.000Z</time></trkpt>
        <trkpt lat="29.7424148" lon="103.4014895"><ele>879.19</ele><time>2026-04-24T23:11:13.000Z</time></trkpt>
        <trkpt lat="29.7423761" lon="103.4014272"><ele>879.22</ele><time>2026-04-24T23:11:19.000Z</time></trkpt>
        <trkpt lat="29.7423741" lon="103.4013615"><ele>879</ele><time>2026-04-24T23:11:23.000Z</time></trkpt>
        <trkpt lat="29.7423743" lon="103.4012945"><ele>879.08</ele><time>2026-04-24T23:11:27.000Z</time></trkpt>
        <trkpt lat="29.7423413" lon="103.4012824"><ele>879.87</ele><time>2026-04-24T23:11:31.000Z</time></trkpt>
        <trkpt lat="29.7423332" lon="103.4012998"><ele>879.4</ele><time>2026-04-24T23:11:33.000Z</time></trkpt>
        <trkpt lat="29.7422897" lon="103.401329"><ele>878.13</ele><time>2026-04-24T23:12:38.000Z</time></trkpt>
        <trkpt lat="29.7422538" lon="103.4012904"><ele>876.82</ele><time>2026-04-24T23:12:42.000Z</time></trkpt>
        <trkpt lat="29.7422006" lon="103.4012713"><ele>875.64</ele><time>2026-04-24T23:12:50.000Z</time></trkpt>
        <trkpt lat="29.7421506" lon="103.4012509"><ele>873.23</ele><time>2026-04-24T23:12:58.000Z</time></trkpt>
        <trkpt lat="29.7420927" lon="103.4012576"><ele>870.79</ele><time>2026-04-24T23:13:06.000Z</time></trkpt>
        <trkpt lat="29.7420363" lon="103.401253"><ele>868</ele><time>2026-04-24T23:13:12.000Z</time></trkpt>
        <trkpt lat="29.7419896" lon="103.4012408"><ele>866.57</ele><time>2026-04-24T23:13:18.000Z</time></trkpt>
        <trkpt lat="29.7419301" lon="103.4012531"><ele>864.69</ele><time>2026-04-24T23:13:24.000Z</time></trkpt>
        <trkpt lat="29.7418731" lon="103.4012424"><ele>863.98</ele><time>2026-04-24T23:13:30.000Z</time></trkpt>
        <trkpt lat="29.7418198" lon="103.4012322"><ele>863.26</ele><time>2026-04-24T23:13:36.000Z</time></trkpt>
        <trkpt lat="29.7417757" lon="103.4012128"><ele>862.12</ele><time>2026-04-24T23:13:42.000Z</time></trkpt>
        <trkpt lat="29.7417268" lon="103.4012025"><ele>860.52</ele><time>2026-04-24T23:13:46.000Z</time></trkpt>
        <trkpt lat="29.7416713" lon="103.4012077"><ele>858.85</ele><time>2026-04-24T23:13:52.000Z</time></trkpt>
        <trkpt lat="29.7416665" lon="103.4012173"><ele>857.36</ele><time>2026-04-24T23:13:54.000Z</time></trkpt>
        <trkpt lat="29.7416238" lon="103.4011939"><ele>856.03</ele><time>2026-04-24T23:14:18.000Z</time></trkpt>
        <trkpt lat="29.741599" lon="103.4011574"><ele>852.9</ele><time>2026-04-24T23:14:24.000Z</time></trkpt>
        <trkpt lat="29.7415912" lon="103.4011055"><ele>848.51</ele><time>2026-04-24T23:14:42.000Z</time></trkpt>
        <trkpt lat="29.7416317" lon="103.4010352"><ele>845.74</ele><time>2026-04-24T23:15:44.000Z</time></trkpt>
        <trkpt lat="29.7416656" lon="103.4009934"><ele>843.87</ele><time>2026-04-24T23:15:50.000Z</time></trkpt>
        <trkpt lat="29.7416647" lon="103.4009278"><ele>843.08</ele><time>2026-04-24T23:15:56.000Z</time></trkpt>
        <trkpt lat="29.7416594" lon="103.4008947"><ele>841.9</ele><time>2026-04-24T23:16:06.000Z</time></trkpt>
        <trkpt lat="29.7416594" lon="103.4008947"><ele>841.9</ele><time>2026-04-24T23:18:04.000Z</time></trkpt>
        <trkpt lat="29.7416912" lon="103.4009331"><ele>839.85</ele><time>2026-04-24T23:18:09.000Z</time></trkpt>
        <trkpt lat="29.7416912" lon="103.4009331"><ele>839.85</ele><time>2026-04-24T23:19:00.000Z</time></trkpt>
        <trkpt lat="29.741733" lon="103.4009057"><ele>839.35</ele><time>2026-04-24T23:19:04.000Z</time></trkpt>
        <trkpt lat="29.7417678" lon="103.4008686"><ele>839.17</ele><time>2026-04-24T23:19:08.000Z</time></trkpt>
        <trkpt lat="29.741792" lon="103.4008219"><ele>839.11</ele><time>2026-04-24T23:19:12.000Z</time></trkpt>
        <trkpt lat="29.741816" lon="103.4007995"><ele>839.25</ele><time>2026-04-24T23:19:18.000Z</time></trkpt>
        <trkpt lat="29.741816" lon="103.4007995"><ele>839.25</ele><time>2026-04-24T23:20:04.000Z</time></trkpt>
        <trkpt lat="29.741816" lon="103.4007995"><ele>839.25</ele><time>2026-04-24T23:20:07.000Z</time></trkpt>
        <trkpt lat="29.741816" lon="103.4007995"><ele>839.25</ele><time>2026-04-24T23:22:42.000Z</time></trkpt>
        <trkpt lat="29.741816" lon="103.4007995"><ele>839.25</ele><time>2026-04-24T23:22:45.000Z</time></trkpt>
        <trkpt lat="29.741816" lon="103.4007995"><ele>839.25</ele><time>2026-04-24T23:23:30.000Z</time></trkpt>
        <trkpt lat="29.7418206" lon="103.4008614"><ele>840.07</ele><time>2026-04-24T23:23:35.000Z</time></trkpt>
        <trkpt lat="29.7418206" lon="103.4008614"><ele>840.07</ele><time>2026-04-24T23:27:34.000Z</time></trkpt>
        <trkpt lat="29.7418332" lon="103.4009155"><ele>840.42</ele><time>2026-04-24T23:27:40.000Z</time></trkpt>
        <trkpt lat="29.7418401" lon="103.4009923"><ele>841.07</ele><time>2026-04-24T23:27:50.000Z</time></trkpt>
        <trkpt lat="29.7418799" lon="103.4010179"><ele>841.67</ele><time>2026-04-24T23:27:58.000Z</time></trkpt>
        <trkpt lat="29.7418599" lon="103.4010368"><ele>843.31</ele><time>2026-04-24T23:28:02.000Z</time></trkpt>
        <trkpt lat="29.7418072" lon="103.4010295"><ele>844.91</ele><time>2026-04-24T23:28:06.000Z</time></trkpt>
        <trkpt lat="29.7417482" lon="103.4010613"><ele>846.65</ele><time>2026-04-24T23:28:12.000Z</time></trkpt>
        <trkpt lat="29.741698" lon="103.4011023"><ele>847.91</ele><time>2026-04-24T23:28:16.000Z</time></trkpt>
        <trkpt lat="29.7416568" lon="103.4011399"><ele>847.95</ele><time>2026-04-24T23:28:20.000Z</time></trkpt>
        <trkpt lat="29.7416465" lon="103.4011944"><ele>847.98</ele><time>2026-04-24T23:28:26.000Z</time></trkpt>
        <trkpt lat="29.7416945" lon="103.401216"><ele>847.17</ele><time>2026-04-24T23:28:32.000Z</time></trkpt>
        <trkpt lat="29.741756" lon="103.4012082"><ele>847.23</ele><time>2026-04-24T23:28:38.000Z</time></trkpt>
        <trkpt lat="29.7418084" lon="103.4012246"><ele>846.43</ele><time>2026-04-24T23:28:44.000Z</time></trkpt>
        <trkpt lat="29.7418626" lon="103.4012421"><ele>846.11</ele><time>2026-04-24T23:28:50.000Z</time></trkpt>
        <trkpt lat="29.7419166" lon="103.4012482"><ele>847.05</ele><time>2026-04-24T23:28:56.000Z</time></trkpt>
        <trkpt lat="29.7419816" lon="103.40125"><ele>849.3</ele><time>2026-04-24T23:29:02.000Z</time></trkpt>
        <trkpt lat="29.742023" lon="103.4012656"><ele>851.15</ele><time>2026-04-24T23:29:08.000Z</time></trkpt>
        <trkpt lat="29.742066" lon="103.4012793"><ele>853.12</ele><time>2026-04-24T23:29:24.000Z</time></trkpt>
        <trkpt lat="29.7421081" lon="103.4012991"><ele>855.57</ele><time>2026-04-24T23:29:28.000Z</time></trkpt>
        <trkpt lat="29.7421522" lon="103.4013094"><ele>857.94</ele><time>2026-04-24T23:29:34.000Z</time></trkpt>
        <trkpt lat="29.7422052" lon="103.4013424"><ele>858.97</ele><time>2026-04-24T23:29:44.000Z</time></trkpt>
        <trkpt lat="29.7422602" lon="103.4013592"><ele>858.8</ele><time>2026-04-24T23:29:52.000Z</time></trkpt>
        <trkpt lat="29.7423043" lon="103.4013912"><ele>859</ele><time>2026-04-24T23:30:00.000Z</time></trkpt>
        <trkpt lat="29.742348" lon="103.401416"><ele>859.36</ele><time>2026-04-24T23:30:06.000Z</time></trkpt>
        <trkpt lat="29.7423848" lon="103.4014552"><ele>861.22</ele><time>2026-04-24T23:30:18.000Z</time></trkpt>
        <trkpt lat="29.7424" lon="103.4015067"><ele>862.95</ele><time>2026-04-24T23:30:28.000Z</time></trkpt>
        <trkpt lat="29.7424304" lon="103.4015624"><ele>865</ele><time>2026-04-24T23:30:36.000Z</time></trkpt>
        <trkpt lat="29.7424649" lon="103.4016125"><ele>868.04</ele><time>2026-04-24T23:30:42.000Z</time></trkpt>
        <trkpt lat="29.7425135" lon="103.401635"><ele>869.66</ele><time>2026-04-24T23:30:46.000Z</time></trkpt>
        <trkpt lat="29.7425738" lon="103.4016481"><ele>871.08</ele><time>2026-04-24T23:30:50.000Z</time></trkpt>
        <trkpt lat="29.7426424" lon="103.4016379"><ele>872.31</ele><time>2026-04-24T23:30:56.000Z</time></trkpt>
        <trkpt lat="29.742697" lon="103.4016155"><ele>872.41</ele><time>2026-04-24T23:31:00.000Z</time></trkpt>
        <trkpt lat="29.7427448" lon="103.4015936"><ele>870.85</ele><time>2026-04-24T23:31:04.000Z</time></trkpt>
        <trkpt lat="29.7427886" lon="103.4015662"><ele>869.55</ele><time>2026-04-24T23:31:08.000Z</time></trkpt>
        <trkpt lat="29.7428304" lon="103.4015385"><ele>868.75</ele><time>2026-04-24T23:31:12.000Z</time></trkpt>
        <trkpt lat="29.7428835" lon="103.4015287"><ele>869.61</ele><time>2026-04-24T23:31:18.000Z</time></trkpt>
        <trkpt lat="29.7429333" lon="103.4015309"><ele>870.73</ele><time>2026-04-24T23:31:22.000Z</time></trkpt>
        <trkpt lat="29.7429903" lon="103.4015535"><ele>871.88</ele><time>2026-04-24T23:31:28.000Z</time></trkpt>
        <trkpt lat="29.7430469" lon="103.4015804"><ele>874.69</ele><time>2026-04-24T23:31:34.000Z</time></trkpt>
        <trkpt lat="29.7430803" lon="103.4015557"><ele>877.96</ele><time>2026-04-24T23:31:38.000Z</time></trkpt>
        <trkpt lat="29.7431077" lon="103.4015052"><ele>881.74</ele><time>2026-04-24T23:31:44.000Z</time></trkpt>
        <trkpt lat="29.7431561" lon="103.4014714"><ele>883.53</ele><time>2026-04-24T23:31:52.000Z</time></trkpt>
        <trkpt lat="29.743209" lon="103.4014319"><ele>884.03</ele><time>2026-04-24T23:32:00.000Z</time></trkpt>
        <trkpt lat="29.7432343" lon="103.4013758"><ele>886.47</ele><time>2026-04-24T23:32:12.000Z</time></trkpt>
        <trkpt lat="29.7432729" lon="103.4013367"><ele>887.78</ele><time>2026-04-24T23:32:16.000Z</time></trkpt>
        <trkpt lat="29.7433219" lon="103.4013142"><ele>889.16</ele><time>2026-04-24T23:32:22.000Z</time></trkpt>
        <trkpt lat="29.7433702" lon="103.4013034"><ele>890.14</ele><time>2026-04-24T23:32:30.000Z</time></trkpt>
        <trkpt lat="29.743411" lon="103.4013323"><ele>890.64</ele><time>2026-04-24T23:32:40.000Z</time></trkpt>
        <trkpt lat="29.7434493" lon="103.4013665"><ele>891.82</ele><time>2026-04-24T23:32:54.000Z</time></trkpt>
        <trkpt lat="29.7434493" lon="103.4013665"><ele>891.82</ele><time>2026-04-24T23:33:12.000Z</time></trkpt>
        <trkpt lat="29.7434493" lon="103.4013665"><ele>891.82</ele><time>2026-04-24T23:33:41.000Z</time></trkpt>
        <trkpt lat="29.7434493" lon="103.4013665"><ele>891.82</ele><time>2026-04-24T23:33:54.000Z</time></trkpt>
        <trkpt lat="29.7434916" lon="103.4014024"><ele>894.71</ele><time>2026-04-24T23:34:33.000Z</time></trkpt>
        <trkpt lat="29.7434916" lon="103.4014024"><ele>894.71</ele><time>2026-04-24T23:34:50.000Z</time></trkpt>
        <trkpt lat="29.7435084" lon="103.4013486"><ele>904.2</ele><time>2026-04-24T23:35:02.000Z</time></trkpt>
        <trkpt lat="29.7435084" lon="103.4013486"><ele>904.2</ele><time>2026-04-24T23:35:18.000Z</time></trkpt>
        <trkpt lat="29.7435225" lon="103.4012956"><ele>910.9</ele><time>2026-04-24T23:35:25.000Z</time></trkpt>
        <trkpt lat="29.7435225" lon="103.4012956"><ele>910.9</ele><time>2026-04-24T23:35:38.000Z</time></trkpt>
        <trkpt lat="29.7435597" lon="103.4013057"><ele>916.53</ele><time>2026-04-24T23:35:56.000Z</time></trkpt>
        <trkpt lat="29.7436086" lon="103.4013156"><ele>922.4</ele><time>2026-04-24T23:36:14.000Z</time></trkpt>
        <trkpt lat="29.7436571" lon="103.4013309"><ele>926.69</ele><time>2026-04-24T23:36:40.000Z</time></trkpt>
        <trkpt lat="29.7437029" lon="103.4013246"><ele>931.87</ele><time>2026-04-24T23:37:02.000Z</time></trkpt>
        <trkpt lat="29.7437461" lon="103.401304"><ele>936.2</ele><time>2026-04-24T23:37:12.000Z</time></trkpt>
        <trkpt lat="29.7437901" lon="103.4012903"><ele>936.67</ele><time>2026-04-24T23:37:32.000Z</time></trkpt>
        <trkpt lat="29.7438304" lon="103.4012529"><ele>936.85</ele><time>2026-04-24T23:37:42.000Z</time></trkpt>
        <trkpt lat="29.7438481" lon="103.401199"><ele>937.61</ele><time>2026-04-24T23:37:48.000Z</time></trkpt>
        <trkpt lat="29.7438648" lon="103.4011451"><ele>938.74</ele><time>2026-04-24T23:37:56.000Z</time></trkpt>
        <trkpt lat="29.7439083" lon="103.4011222"><ele>938.62</ele><time>2026-04-24T23:38:14.000Z</time></trkpt>
        <trkpt lat="29.7439595" lon="103.4011125"><ele>937.93</ele><time>2026-04-24T23:38:26.000Z</time></trkpt>
        <trkpt lat="29.7440181" lon="103.4010981"><ele>939.52</ele><time>2026-04-24T23:38:36.000Z</time></trkpt>
        <trkpt lat="29.7439964" lon="103.4010751"><ele>942.11</ele><time>2026-04-24T23:38:52.000Z</time></trkpt>
        <trkpt lat="29.7439964" lon="103.4010751"><ele>942.11</ele><time>2026-04-24T23:39:54.000Z</time></trkpt>
        <trkpt lat="29.7440354" lon="103.4010324"><ele>949.06</ele><time>2026-04-24T23:40:05.000Z</time></trkpt>
        <trkpt lat="29.7440354" lon="103.4010324"><ele>949.06</ele><time>2026-04-24T23:40:08.000Z</time></trkpt>
        <trkpt lat="29.7440699" lon="103.4009797"><ele>957.52</ele><time>2026-04-24T23:40:16.000Z</time></trkpt>
        <trkpt lat="29.7440897" lon="103.4009216"><ele>959.12</ele><time>2026-04-24T23:40:26.000Z</time></trkpt>
        <trkpt lat="29.7440658" lon="103.4009364"><ele>961.74</ele><time>2026-04-24T23:40:40.000Z</time></trkpt>
        <trkpt lat="29.7440577" lon="103.4009953"><ele>965.97</ele><time>2026-04-24T23:40:46.000Z</time></trkpt>
        <trkpt lat="29.7440516" lon="103.4010625"><ele>968.5</ele><time>2026-04-24T23:40:52.000Z</time></trkpt>
        <trkpt lat="29.7440263" lon="103.4011119"><ele>970.04</ele><time>2026-04-24T23:41:02.000Z</time></trkpt>
        <trkpt lat="29.7439928" lon="103.4011643"><ele>971.69</ele><time>2026-04-24T23:41:16.000Z</time></trkpt>
        <trkpt lat="29.7439573" lon="103.4012175"><ele>972.83</ele><time>2026-04-24T23:41:24.000Z</time></trkpt>
        <trkpt lat="29.7439271" lon="103.40128"><ele>974.15</ele><time>2026-04-24T23:42:14.000Z</time></trkpt>
        <trkpt lat="29.7439291" lon="103.4013436"><ele>976.77</ele><time>2026-04-24T23:42:22.000Z</time></trkpt>
        <trkpt lat="29.743915" lon="103.4013997"><ele>976.85</ele><time>2026-04-24T23:42:28.000Z</time></trkpt>
        <trkpt lat="29.7438874" lon="103.401447"><ele>977.62</ele><time>2026-04-24T23:42:36.000Z</time></trkpt>
        <trkpt lat="29.7438696" lon="103.4015066"><ele>978.66</ele><time>2026-04-24T23:42:46.000Z</time></trkpt>
        <trkpt lat="29.7438903" lon="103.4015519"><ele>979.95</ele><time>2026-04-24T23:42:54.000Z</time></trkpt>
        <trkpt lat="29.7439192" lon="103.4016023"><ele>980.76</ele><time>2026-04-24T23:43:04.000Z</time></trkpt>
        <trkpt lat="29.743908" lon="103.4016509"><ele>980.79</ele><time>2026-04-24T23:43:10.000Z</time></trkpt>
        <trkpt lat="29.7439184" lon="103.4017007"><ele>981.39</ele><time>2026-04-24T23:43:16.000Z</time></trkpt>
        <trkpt lat="29.743905" lon="103.4017483"><ele>982.2</ele><time>2026-04-24T23:43:32.000Z</time></trkpt>
        <trkpt lat="29.7439394" lon="103.401762"><ele>984.26</ele><time>2026-04-24T23:44:04.000Z</time></trkpt>
        <trkpt lat="29.743981" lon="103.4017888"><ele>987</ele><time>2026-04-24T23:44:16.000Z</time></trkpt>
        <trkpt lat="29.7440175" lon="103.4017619"><ele>989.11</ele><time>2026-04-24T23:44:24.000Z</time></trkpt>
        <trkpt lat="29.7440459" lon="103.4017897"><ele>991.19</ele><time>2026-04-24T23:44:42.000Z</time></trkpt>
        <trkpt lat="29.7440952" lon="103.4017845"><ele>994.06</ele><time>2026-04-24T23:44:46.000Z</time></trkpt>
        <trkpt lat="29.7441381" lon="103.4017505"><ele>994.43</ele><time>2026-04-24T23:44:58.000Z</time></trkpt>
        <trkpt lat="29.7441786" lon="103.4017702"><ele>994.71</ele><time>2026-04-24T23:45:06.000Z</time></trkpt>
        <trkpt lat="29.7441728" lon="103.4018134"><ele>994.94</ele><time>2026-04-24T23:45:22.000Z</time></trkpt>
        <trkpt lat="29.7442053" lon="103.4018301"><ele>994.99</ele><time>2026-04-24T23:45:34.000Z</time></trkpt>
        <trkpt lat="29.7442515" lon="103.4018085"><ele>998.02</ele><time>2026-04-24T23:45:40.000Z</time></trkpt>
        <trkpt lat="29.744301" lon="103.4018099"><ele>1000.54</ele><time>2026-04-24T23:45:46.000Z</time></trkpt>
        <trkpt lat="29.7443539" lon="103.4017936"><ele>1002.99</ele><time>2026-04-24T23:45:52.000Z</time></trkpt>
        <trkpt lat="29.744396" lon="103.4017634"><ele>1004.92</ele><time>2026-04-24T23:45:56.000Z</time></trkpt>
        <trkpt lat="29.7444421" lon="103.4017536"><ele>1007.05</ele><time>2026-04-24T23:46:06.000Z</time></trkpt>
        <trkpt lat="29.7444565" lon="103.4017967"><ele>1008.76</ele><time>2026-04-24T23:46:14.000Z</time></trkpt>
        <trkpt lat="29.7444275" lon="103.4018376"><ele>1010.85</ele><time>2026-04-24T23:46:22.000Z</time></trkpt>
        <trkpt lat="29.744381" lon="103.4018899"><ele>1012.88</ele><time>2026-04-24T23:46:30.000Z</time></trkpt>
        <trkpt lat="29.7443471" lon="103.4019423"><ele>1014.55</ele><time>2026-04-24T23:46:36.000Z</time></trkpt>
        <trkpt lat="29.7443298" lon="103.40201"><ele>1015.85</ele><time>2026-04-24T23:46:42.000Z</time></trkpt>
        <trkpt lat="29.7442989" lon="103.4020646"><ele>1017.28</ele><time>2026-04-24T23:46:48.000Z</time></trkpt>
        <trkpt lat="29.7442871" lon="103.4021201"><ele>1017.92</ele><time>2026-04-24T23:46:54.000Z</time></trkpt>
        <trkpt lat="29.744283" lon="103.4021813"><ele>1018.64</ele><time>2026-04-24T23:47:06.000Z</time></trkpt>
        <trkpt lat="29.744283" lon="103.4021813"><ele>1018.64</ele><time>2026-04-24T23:47:24.000Z</time></trkpt>
        <trkpt lat="29.7442691" lon="103.4022367"><ele>1018.25</ele><time>2026-04-24T23:47:27.000Z</time></trkpt>
        <trkpt lat="29.7442691" lon="103.4022367"><ele>1018.25</ele><time>2026-04-24T23:47:30.000Z</time></trkpt>
        <trkpt lat="29.7442691" lon="103.4022367"><ele>1018.25</ele><time>2026-04-24T23:47:40.000Z</time></trkpt>
        <trkpt lat="29.7442323" lon="103.4022954"><ele>1018.06</ele><time>2026-04-24T23:47:41.000Z</time></trkpt>
        <trkpt lat="29.7442323" lon="103.4022954"><ele>1018.06</ele><time>2026-04-24T23:47:47.000Z</time></trkpt>
        <trkpt lat="29.7442243" lon="103.4023555"><ele>1019.1</ele><time>2026-04-24T23:47:55.000Z</time></trkpt>
        <trkpt lat="29.7442117" lon="103.4024236"><ele>1019.97</ele><time>2026-04-24T23:48:03.000Z</time></trkpt>
        <trkpt lat="29.7442086" lon="103.4024846"><ele>1020.17</ele><time>2026-04-24T23:48:09.000Z</time></trkpt>
        <trkpt lat="29.7442014" lon="103.4025386"><ele>1020.55</ele><time>2026-04-24T23:48:15.000Z</time></trkpt>
        <trkpt lat="29.7441838" lon="103.4025881"><ele>1021.7</ele><time>2026-04-24T23:48:19.000Z</time></trkpt>
        <trkpt lat="29.7441531" lon="103.4026321"><ele>1021.87</ele><time>2026-04-24T23:48:23.000Z</time></trkpt>
        <trkpt lat="29.7441248" lon="103.4026775"><ele>1022.04</ele><time>2026-04-24T23:48:27.000Z</time></trkpt>
        <trkpt lat="29.7440907" lon="103.4027201"><ele>1021.76</ele><time>2026-04-24T23:48:31.000Z</time></trkpt>
        <trkpt lat="29.7440624" lon="103.4027677"><ele>1021.99</ele><time>2026-04-24T23:48:35.000Z</time></trkpt>
        <trkpt lat="29.7440363" lon="103.4028261"><ele>1022.18</ele><time>2026-04-24T23:48:41.000Z</time></trkpt>
        <trkpt lat="29.7440288" lon="103.4028841"><ele>1022.09</ele><time>2026-04-24T23:48:45.000Z</time></trkpt>
        <trkpt lat="29.7440152" lon="103.4029393"><ele>1022.23</ele><time>2026-04-24T23:48:49.000Z</time></trkpt>
        <trkpt lat="29.7439932" lon="103.4029968"><ele>1023.98</ele><time>2026-04-24T23:48:53.000Z</time></trkpt>
        <trkpt lat="29.7439625" lon="103.4030619"><ele>1025.42</ele><time>2026-04-24T23:48:59.000Z</time></trkpt>
        <trkpt lat="29.7439413" lon="103.403124"><ele>1026.01</ele><time>2026-04-24T23:49:03.000Z</time></trkpt>
        <trkpt lat="29.7439318" lon="103.4031948"><ele>1026.16</ele><time>2026-04-24T23:49:09.000Z</time></trkpt>
        <trkpt lat="29.743901" lon="103.4032504"><ele>1026.7</ele><time>2026-04-24T23:49:15.000Z</time></trkpt>
        <trkpt lat="29.7438751" lon="103.4033105"><ele>1027.38</ele><time>2026-04-24T23:49:21.000Z</time></trkpt>
        <trkpt lat="29.7438604" lon="103.4033732"><ele>1028.13</ele><time>2026-04-24T23:49:25.000Z</time></trkpt>
        <trkpt lat="29.7438427" lon="103.4034265"><ele>1029.18</ele><time>2026-04-24T23:49:29.000Z</time></trkpt>
        <trkpt lat="29.7438279" lon="103.4034946"><ele>1029.04</ele><time>2026-04-24T23:49:35.000Z</time></trkpt>
        <trkpt lat="29.7438189" lon="103.4035511"><ele>1028.04</ele><time>2026-04-24T23:49:39.000Z</time></trkpt>
        <trkpt lat="29.7438026" lon="103.4036138"><ele>1027.48</ele><time>2026-04-24T23:49:45.000Z</time></trkpt>
        <trkpt lat="29.7438026" lon="103.4036138"><ele>1027.48</ele><time>2026-04-24T23:49:58.000Z</time></trkpt>
        <trkpt lat="29.7437833" lon="103.4036798"><ele>1027.59</ele><time>2026-04-24T23:50:21.000Z</time></trkpt>
        <trkpt lat="29.7437833" lon="103.4036798"><ele>1027.59</ele><time>2026-04-24T23:50:24.000Z</time></trkpt>
        <trkpt lat="29.7437617" lon="103.4037359"><ele>1027.29</ele><time>2026-04-24T23:50:30.000Z</time></trkpt>
        <trkpt lat="29.7437776" lon="103.4037821"><ele>1027.04</ele><time>2026-04-24T23:50:56.000Z</time></trkpt>
        <trkpt lat="29.7437785" lon="103.403835"><ele>1028.31</ele><time>2026-04-24T23:51:06.000Z</time></trkpt>
        <trkpt lat="29.743779" lon="103.4038899"><ele>1030.25</ele><time>2026-04-24T23:51:14.000Z</time></trkpt>
        <trkpt lat="29.7437651" lon="103.4039502"><ele>1032.03</ele><time>2026-04-24T23:51:23.000Z</time></trkpt>
        <trkpt lat="29.7437374" lon="103.4040019"><ele>1033.84</ele><time>2026-04-24T23:51:31.000Z</time></trkpt>
        <trkpt lat="29.743714" lon="103.4040504"><ele>1035.63</ele><time>2026-04-24T23:51:37.000Z</time></trkpt>
        <trkpt lat="29.7436944" lon="103.4041005"><ele>1037.58</ele><time>2026-04-24T23:51:43.000Z</time></trkpt>
        <trkpt lat="29.7436652" lon="103.4041533"><ele>1039.45</ele><time>2026-04-24T23:51:49.000Z</time></trkpt>
        <trkpt lat="29.7436339" lon="103.4041974"><ele>1041.82</ele><time>2026-04-24T23:51:55.000Z</time></trkpt>
        <trkpt lat="29.7436041" lon="103.4042443"><ele>1044.29</ele><time>2026-04-24T23:52:16.000Z</time></trkpt>
        <trkpt lat="29.7435682" lon="103.4042835"><ele>1046.18</ele><time>2026-04-24T23:52:38.000Z</time></trkpt>
        <trkpt lat="29.7435438" lon="103.4043362"><ele>1048.39</ele><time>2026-04-24T23:52:44.000Z</time></trkpt>
        <trkpt lat="29.7435065" lon="103.4043813"><ele>1050.08</ele><time>2026-04-24T23:52:50.000Z</time></trkpt>
        <trkpt lat="29.743486" lon="103.4044365"><ele>1051.47</ele><time>2026-04-24T23:52:54.000Z</time></trkpt>
        <trkpt lat="29.7434641" lon="103.4044919"><ele>1051.94</ele><time>2026-04-24T23:53:00.000Z</time></trkpt>
        <trkpt lat="29.7434455" lon="103.4045439"><ele>1053.13</ele><time>2026-04-24T23:53:06.000Z</time></trkpt>
        <trkpt lat="29.7434193" lon="103.4045876"><ele>1054.24</ele><time>2026-04-24T23:53:10.000Z</time></trkpt>
        <trkpt lat="29.7434193" lon="103.4045876"><ele>1054.24</ele><time>2026-04-24T23:53:38.000Z</time></trkpt>
        <trkpt lat="29.743404" lon="103.4046361"><ele>1055.18</ele><time>2026-04-24T23:53:59.000Z</time></trkpt>
        <trkpt lat="29.743404" lon="103.4046361"><ele>1055.18</ele><time>2026-04-24T23:54:02.000Z</time></trkpt>
        <trkpt lat="29.7434146" lon="103.4046909"><ele>1058.32</ele><time>2026-04-24T23:54:12.000Z</time></trkpt>
        <trkpt lat="29.7434465" lon="103.4047323"><ele>1054.38</ele><time>2026-04-24T23:54:18.000Z</time></trkpt>
        <trkpt lat="29.7434776" lon="103.4047814"><ele>1051.91</ele><time>2026-04-24T23:54:28.000Z</time></trkpt>
        <trkpt lat="29.7435055" lon="103.4048399"><ele>1050.65</ele><time>2026-04-24T23:54:34.000Z</time></trkpt>
        <trkpt lat="29.7435349" lon="103.4048858"><ele>1050.03</ele><time>2026-04-24T23:54:38.000Z</time></trkpt>
        <trkpt lat="29.743574" lon="103.4049265"><ele>1048.98</ele><time>2026-04-24T23:54:44.000Z</time></trkpt>
        <trkpt lat="29.743614" lon="103.4049631"><ele>1048.24</ele><time>2026-04-24T23:54:50.000Z</time></trkpt>
        <trkpt lat="29.743657" lon="103.4049894"><ele>1048.01</ele><time>2026-04-24T23:54:58.000Z</time></trkpt>
        <trkpt lat="29.7436535" lon="103.4050384"><ele>1049.45</ele><time>2026-04-24T23:55:06.000Z</time></trkpt>
        <trkpt lat="29.7436453" lon="103.4050941"><ele>1050.04</ele><time>2026-04-24T23:55:14.000Z</time></trkpt>
        <trkpt lat="29.7436552" lon="103.4051469"><ele>1051.27</ele><time>2026-04-24T23:55:22.000Z</time></trkpt>
        <trkpt lat="29.7436492" lon="103.4052036"><ele>1051.74</ele><time>2026-04-24T23:55:32.000Z</time></trkpt>
        <trkpt lat="29.7436759" lon="103.4052374"><ele>1054.56</ele><time>2026-04-24T23:55:40.000Z</time></trkpt>
        <trkpt lat="29.7437192" lon="103.4052413"><ele>1055.94</ele><time>2026-04-24T23:55:56.000Z</time></trkpt>
        <trkpt lat="29.7437721" lon="103.4052256"><ele>1059.14</ele><time>2026-04-24T23:56:32.000Z</time></trkpt>
        <trkpt lat="29.7438287" lon="103.4052176"><ele>1063.06</ele><time>2026-04-24T23:57:02.000Z</time></trkpt>
        <trkpt lat="29.7438684" lon="103.4051851"><ele>1066.94</ele><time>2026-04-24T23:57:12.000Z</time></trkpt>
        <trkpt lat="29.7438879" lon="103.4051303"><ele>1069.97</ele><time>2026-04-24T23:57:24.000Z</time></trkpt>
        <trkpt lat="29.7439136" lon="103.4050844"><ele>1073.15</ele><time>2026-04-24T23:57:40.000Z</time></trkpt>
        <trkpt lat="29.7439509" lon="103.4050879"><ele>1076.43</ele><time>2026-04-24T23:57:50.000Z</time></trkpt>
        <trkpt lat="29.7439719" lon="103.405143"><ele>1079.41</ele><time>2026-04-24T23:58:04.000Z</time></trkpt>
        <trkpt lat="29.7439816" lon="103.4052046"><ele>1080.32</ele><time>2026-04-24T23:58:20.000Z</time></trkpt>
        <trkpt lat="29.7439689" lon="103.4052653"><ele>1080.91</ele><time>2026-04-24T23:58:32.000Z</time></trkpt>
        <trkpt lat="29.7439456" lon="103.4053193"><ele>1082.08</ele><time>2026-04-24T23:58:40.000Z</time></trkpt>
        <trkpt lat="29.7439678" lon="103.4053603"><ele>1083.12</ele><time>2026-04-24T23:58:52.000Z</time></trkpt>
        <trkpt lat="29.7440134" lon="103.4053918"><ele>1082.6</ele><time>2026-04-24T23:59:04.000Z</time></trkpt>
        <trkpt lat="29.7440595" lon="103.4054347"><ele>1081.63</ele><time>2026-04-24T23:59:10.000Z</time></trkpt>
        <trkpt lat="29.7441055" lon="103.4054642"><ele>1081.62</ele><time>2026-04-24T23:59:20.000Z</time></trkpt>
        <trkpt lat="29.7441055" lon="103.4054642"><ele>1081.62</ele><time>2026-04-24T23:59:34.000Z</time></trkpt>
        <trkpt lat="29.7441486" lon="103.405507"><ele>1080.93</ele><time>2026-04-24T23:59:41.000Z</time></trkpt>
        <trkpt lat="29.7441486" lon="103.405507"><ele>1080.93</ele><time>2026-04-24T23:59:44.000Z</time></trkpt>
        <trkpt lat="29.7441604" lon="103.4055646"><ele>1082.11</ele><time>2026-04-24T23:59:50.000Z</time></trkpt>
        <trkpt lat="29.7441959" lon="103.4056002"><ele>1083.15</ele><time>2026-04-24T23:59:56.000Z</time></trkpt>
        <trkpt lat="29.7442382" lon="103.4056368"><ele>1082.87</ele><time>2026-04-25T00:00:04.000Z</time></trkpt>
        <trkpt lat="29.7442635" lon="103.4056879"><ele>1082.6</ele><time>2026-04-25T00:00:16.000Z</time></trkpt>
        <trkpt lat="29.7442892" lon="103.40574"><ele>1083.3</ele><time>2026-04-25T00:00:24.000Z</time></trkpt>
        <trkpt lat="29.7443276" lon="103.4057651"><ele>1084.09</ele><time>2026-04-25T00:00:30.000Z</time></trkpt>
        <trkpt lat="29.7443507" lon="103.4058128"><ele>1084.44</ele><time>2026-04-25T00:00:38.000Z</time></trkpt>
        <trkpt lat="29.7443614" lon="103.4058761"><ele>1084.32</ele><time>2026-04-25T00:00:54.000Z</time></trkpt>
        <trkpt lat="29.7443685" lon="103.4059328"><ele>1084.23</ele><time>2026-04-25T00:01:00.000Z</time></trkpt>
        <trkpt lat="29.7444107" lon="103.4059552"><ele>1083.43</ele><time>2026-04-25T00:01:08.000Z</time></trkpt>
        <trkpt lat="29.7444259" lon="103.4059973"><ele>1082.66</ele><time>2026-04-25T00:01:18.000Z</time></trkpt>
        <trkpt lat="29.7444037" lon="103.4060452"><ele>1083.22</ele><time>2026-04-25T00:01:30.000Z</time></trkpt>
        <trkpt lat="29.744402" lon="103.4060967"><ele>1085.74</ele><time>2026-04-25T00:01:42.000Z</time></trkpt>
        <trkpt lat="29.7444332" lon="103.4061446"><ele>1087.48</ele><time>2026-04-25T00:01:52.000Z</time></trkpt>
        <trkpt lat="29.7444391" lon="103.4062028"><ele>1089.04</ele><time>2026-04-25T00:02:00.000Z</time></trkpt>
        <trkpt lat="29.744408" lon="103.4062523"><ele>1090.56</ele><time>2026-04-25T00:02:12.000Z</time></trkpt>
        <trkpt lat="29.7443681" lon="103.4062873"><ele>1092.22</ele><time>2026-04-25T00:02:20.000Z</time></trkpt>
        <trkpt lat="29.7443574" lon="103.406342"><ele>1093.36</ele><time>2026-04-25T00:02:30.000Z</time></trkpt>
        <trkpt lat="29.7443864" lon="103.4063947"><ele>1094.13</ele><time>2026-04-25T00:02:36.000Z</time></trkpt>
        <trkpt lat="29.744407" lon="103.4064074"><ele>1094.12</ele><time>2026-04-25T00:02:38.000Z</time></trkpt>
        <trkpt lat="29.7444456" lon="103.4064387"><ele>1094.88</ele><time>2026-04-25T00:02:46.000Z</time></trkpt>
        <trkpt lat="29.7444898" lon="103.4064696"><ele>1095.07</ele><time>2026-04-25T00:02:52.000Z</time></trkpt>
        <trkpt lat="29.7445398" lon="103.4064845"><ele>1094.43</ele><time>2026-04-25T00:02:56.000Z</time></trkpt>
        <trkpt lat="29.7445942" lon="103.4065122"><ele>1094.48</ele><time>2026-04-25T00:03:02.000Z</time></trkpt>
        <trkpt lat="29.7446471" lon="103.4065183"><ele>1093.91</ele><time>2026-04-25T00:03:06.000Z</time></trkpt>
        <trkpt lat="29.7446965" lon="103.406549"><ele>1093.41</ele><time>2026-04-25T00:03:12.000Z</time></trkpt>
        <trkpt lat="29.7447361" lon="103.4065698"><ele>1092.83</ele><time>2026-04-25T00:03:20.000Z</time></trkpt>
        <trkpt lat="29.7447818" lon="103.4065979"><ele>1091.69</ele><time>2026-04-25T00:03:24.000Z</time></trkpt>
        <trkpt lat="29.7448231" lon="103.4066375"><ele>1091.24</ele><time>2026-04-25T00:03:34.000Z</time></trkpt>
        <trkpt lat="29.7448685" lon="103.4066795"><ele>1090.41</ele><time>2026-04-25T00:03:42.000Z</time></trkpt>
        <trkpt lat="29.7449128" lon="103.4067183"><ele>1088.92</ele><time>2026-04-25T00:03:48.000Z</time></trkpt>
        <trkpt lat="29.7449457" lon="103.4067619"><ele>1088.68</ele><time>2026-04-25T00:03:54.000Z</time></trkpt>
        <trkpt lat="29.7449382" lon="103.4068208"><ele>1088.79</ele><time>2026-04-25T00:04:02.000Z</time></trkpt>
        <trkpt lat="29.744914" lon="103.4068739"><ele>1089.43</ele><time>2026-04-25T00:04:10.000Z</time></trkpt>
        <trkpt lat="29.7449246" lon="103.4069283"><ele>1091.27</ele><time>2026-04-25T00:04:18.000Z</time></trkpt>
        <trkpt lat="29.7449591" lon="103.4069682"><ele>1092.72</ele><time>2026-04-25T00:04:34.000Z</time></trkpt>
        <trkpt lat="29.744997" lon="103.4070278"><ele>1094.9</ele><time>2026-04-25T00:04:48.000Z</time></trkpt>
        <trkpt lat="29.7450046" lon="103.4070565"><ele>1096.63</ele><time>2026-04-25T00:04:52.000Z</time></trkpt>
        <trkpt lat="29.7450138" lon="103.4070991"><ele>1097.15</ele><time>2026-04-25T00:05:00.000Z</time></trkpt>
        <trkpt lat="29.7450342" lon="103.4071514"><ele>1097.86</ele><time>2026-04-25T00:05:12.000Z</time></trkpt>
        <trkpt lat="29.7450506" lon="103.407217"><ele>1098.21</ele><time>2026-04-25T00:05:22.000Z</time></trkpt>
        <trkpt lat="29.74506" lon="103.4072855"><ele>1099.26</ele><time>2026-04-25T00:05:30.000Z</time></trkpt>
        <trkpt lat="29.7450947" lon="103.4073134"><ele>1100.87</ele><time>2026-04-25T00:05:36.000Z</time></trkpt>
        <trkpt lat="29.7451337" lon="103.4073517"><ele>1101.75</ele><time>2026-04-25T00:05:50.000Z</time></trkpt>
        <trkpt lat="29.7451791" lon="103.4073606"><ele>1102.67</ele><time>2026-04-25T00:05:56.000Z</time></trkpt>
        <trkpt lat="29.7452277" lon="103.4073939"><ele>1103.7</ele><time>2026-04-25T00:06:02.000Z</time></trkpt>
        <trkpt lat="29.7452702" lon="103.4074329"><ele>1103.2</ele><time>2026-04-25T00:06:08.000Z</time></trkpt>
        <trkpt lat="29.7453192" lon="103.4074591"><ele>1102.35</ele><time>2026-04-25T00:06:12.000Z</time></trkpt>
        <trkpt lat="29.7453656" lon="103.4074882"><ele>1101.03</ele><time>2026-04-25T00:06:18.000Z</time></trkpt>
        <trkpt lat="29.7454198" lon="103.4075199"><ele>1100.87</ele><time>2026-04-25T00:06:22.000Z</time></trkpt>
        <trkpt lat="29.7454672" lon="103.4075693"><ele>1100</ele><time>2026-04-25T00:06:28.000Z</time></trkpt>
        <trkpt lat="29.7454983" lon="103.4076185"><ele>1100.43</ele><time>2026-04-25T00:06:34.000Z</time></trkpt>
        <trkpt lat="29.7455356" lon="103.4076598"><ele>1101.62</ele><time>2026-04-25T00:06:40.000Z</time></trkpt>
        <trkpt lat="29.745557" lon="103.4077145"><ele>1101.12</ele><time>2026-04-25T00:06:48.000Z</time></trkpt>
        <trkpt lat="29.7455783" lon="103.4077659"><ele>1100.21</ele><time>2026-04-25T00:07:00.000Z</time></trkpt>
        <trkpt lat="29.7455615" lon="103.4078197"><ele>1101.05</ele><time>2026-04-25T00:07:06.000Z</time></trkpt>
        <trkpt lat="29.7455578" lon="103.4078785"><ele>1101.79</ele><time>2026-04-25T00:07:10.000Z</time></trkpt>
        <trkpt lat="29.7455613" lon="103.4079465"><ele>1102.01</ele><time>2026-04-25T00:07:18.000Z</time></trkpt>
        <trkpt lat="29.7455787" lon="103.4079556"><ele>1102.44</ele><time>2026-04-25T00:07:20.000Z</time></trkpt>
        <trkpt lat="29.745611" lon="103.4079858"><ele>1102.78</ele><time>2026-04-25T00:07:28.000Z</time></trkpt>
        <trkpt lat="29.745666" lon="103.4079967"><ele>1102.69</ele><time>2026-04-25T00:07:40.000Z</time></trkpt>
        <trkpt lat="29.7457269" lon="103.4080072"><ele>1102.92</ele><time>2026-04-25T00:07:46.000Z</time></trkpt>
        <trkpt lat="29.7457867" lon="103.408034"><ele>1103.5</ele><time>2026-04-25T00:07:52.000Z</time></trkpt>
        <trkpt lat="29.7458327" lon="103.4080751"><ele>1103.12</ele><time>2026-04-25T00:07:58.000Z</time></trkpt>
        <trkpt lat="29.7458846" lon="103.4081078"><ele>1102.93</ele><time>2026-04-25T00:08:04.000Z</time></trkpt>
        <trkpt lat="29.7459197" lon="103.4081469"><ele>1101.82</ele><time>2026-04-25T00:08:08.000Z</time></trkpt>
        <trkpt lat="29.7459301" lon="103.4081975"><ele>1102.16</ele><time>2026-04-25T00:08:12.000Z</time></trkpt>
        <trkpt lat="29.7459552" lon="103.4082468"><ele>1102.75</ele><time>2026-04-25T00:08:18.000Z</time></trkpt>
        <trkpt lat="29.7459945" lon="103.4082807"><ele>1103.66</ele><time>2026-04-25T00:08:24.000Z</time></trkpt>
        <trkpt lat="29.7460178" lon="103.4083277"><ele>1104.78</ele><time>2026-04-25T00:08:32.000Z</time></trkpt>
        <trkpt lat="29.7460309" lon="103.4083826"><ele>1106.3</ele><time>2026-04-25T00:08:38.000Z</time></trkpt>
        <trkpt lat="29.7460526" lon="103.4084389"><ele>1108.24</ele><time>2026-04-25T00:08:46.000Z</time></trkpt>
        <trkpt lat="29.7460835" lon="103.4084862"><ele>1109.08</ele><time>2026-04-25T00:08:52.000Z</time></trkpt>
        <trkpt lat="29.7460911" lon="103.4085564"><ele>1109.89</ele><time>2026-04-25T00:08:58.000Z</time></trkpt>
        <trkpt lat="29.7460918" lon="103.4086197"><ele>1110.62</ele><time>2026-04-25T00:09:02.000Z</time></trkpt>
        <trkpt lat="29.7461064" lon="103.4086786"><ele>1110.68</ele><time>2026-04-25T00:09:08.000Z</time></trkpt>
        <trkpt lat="29.7460863" lon="103.408733"><ele>1110.54</ele><time>2026-04-25T00:09:14.000Z</time></trkpt>
        <trkpt lat="29.7460717" lon="103.4087896"><ele>1109.88</ele><time>2026-04-25T00:09:20.000Z</time></trkpt>
        <trkpt lat="29.7460591" lon="103.4088487"><ele>1109.6</ele><time>2026-04-25T00:09:28.000Z</time></trkpt>
        <trkpt lat="29.7460474" lon="103.4089147"><ele>1110.04</ele><time>2026-04-25T00:09:36.000Z</time></trkpt>
        <trkpt lat="29.7460699" lon="103.4089585"><ele>1112.03</ele><time>2026-04-25T00:09:42.000Z</time></trkpt>
        <trkpt lat="29.7461065" lon="103.4089911"><ele>1114.15</ele><time>2026-04-25T00:09:50.000Z</time></trkpt>
        <trkpt lat="29.7461571" lon="103.409003"><ele>1115.27</ele><time>2026-04-25T00:09:58.000Z</time></trkpt>
        <trkpt lat="29.7462105" lon="103.4090059"><ele>1115.74</ele><time>2026-04-25T00:10:10.000Z</time></trkpt>
        <trkpt lat="29.7462704" lon="103.4090154"><ele>1116.51</ele><time>2026-04-25T00:10:24.000Z</time></trkpt>
        <trkpt lat="29.7463134" lon="103.4090435"><ele>1116.62</ele><time>2026-04-25T00:10:28.000Z</time></trkpt>
        <trkpt lat="29.7463562" lon="103.4090787"><ele>1116.34</ele><time>2026-04-25T00:10:34.000Z</time></trkpt>
        <trkpt lat="29.7463541" lon="103.4091394"><ele>1117.28</ele><time>2026-04-25T00:10:42.000Z</time></trkpt>
        <trkpt lat="29.7463457" lon="103.4092072"><ele>1118.05</ele><time>2026-04-25T00:10:50.000Z</time></trkpt>
        <trkpt lat="29.7463555" lon="103.4092655"><ele>1117.9</ele><time>2026-04-25T00:10:56.000Z</time></trkpt>
        <trkpt lat="29.7463934" lon="103.4093034"><ele>1118.43</ele><time>2026-04-25T00:11:02.000Z</time></trkpt>
        <trkpt lat="29.7464441" lon="103.4093281"><ele>1118.97</ele><time>2026-04-25T00:11:08.000Z</time></trkpt>
        <trkpt lat="29.7465008" lon="103.409351"><ele>1120.12</ele><time>2026-04-25T00:11:14.000Z</time></trkpt>
        <trkpt lat="29.7465528" lon="103.4093719"><ele>1121.2</ele><time>2026-04-25T00:11:20.000Z</time></trkpt>
        <trkpt lat="29.7466038" lon="103.4093896"><ele>1121.21</ele><time>2026-04-25T00:11:28.000Z</time></trkpt>
        <trkpt lat="29.746654" lon="103.4094175"><ele>1122.9</ele><time>2026-04-25T00:11:40.000Z</time></trkpt>
        <trkpt lat="29.746699" lon="103.4094393"><ele>1125.33</ele><time>2026-04-25T00:11:48.000Z</time></trkpt>
        <trkpt lat="29.7467441" lon="103.4094385"><ele>1126.68</ele><time>2026-04-25T00:11:56.000Z</time></trkpt>
        <trkpt lat="29.7467974" lon="103.409439"><ele>1126.92</ele><time>2026-04-25T00:12:10.000Z</time></trkpt>
        <trkpt lat="29.7468168" lon="103.4094466"><ele>1128.07</ele><time>2026-04-25T00:12:18.000Z</time></trkpt>
        <trkpt lat="29.7468228" lon="103.4094904"><ele>1129</ele><time>2026-04-25T00:12:42.000Z</time></trkpt>
        <trkpt lat="29.7468508" lon="103.409536"><ele>1130.92</ele><time>2026-04-25T00:12:48.000Z</time></trkpt>
        <trkpt lat="29.7468718" lon="103.4095869"><ele>1132.73</ele><time>2026-04-25T00:12:58.000Z</time></trkpt>
        <trkpt lat="29.746909" lon="103.4096139"><ele>1134.59</ele><time>2026-04-25T00:13:04.000Z</time></trkpt>
        <trkpt lat="29.7469027" lon="103.4096577"><ele>1136.56</ele><time>2026-04-25T00:13:14.000Z</time></trkpt>
        <trkpt lat="29.7468792" lon="103.4097056"><ele>1138</ele><time>2026-04-25T00:13:20.000Z</time></trkpt>
        <trkpt lat="29.7468702" lon="103.409758"><ele>1138.52</ele><time>2026-04-25T00:13:28.000Z</time></trkpt>
        <trkpt lat="29.7468572" lon="103.4098105"><ele>1138.66</ele><time>2026-04-25T00:13:38.000Z</time></trkpt>
        <trkpt lat="29.7468439" lon="103.4098623"><ele>1139.78</ele><time>2026-04-25T00:13:44.000Z</time></trkpt>
        <trkpt lat="29.7468363" lon="103.4099149"><ele>1140.93</ele><time>2026-04-25T00:13:50.000Z</time></trkpt>
        <trkpt lat="29.746853" lon="103.4099716"><ele>1141.58</ele><time>2026-04-25T00:13:56.000Z</time></trkpt>
        <trkpt lat="29.7468696" lon="103.4100349"><ele>1142.43</ele><time>2026-04-25T00:14:02.000Z</time></trkpt>
        <trkpt lat="29.7468758" lon="103.410091"><ele>1142.83</ele><time>2026-04-25T00:14:14.000Z</time></trkpt>
        <trkpt lat="29.7469042" lon="103.4101351"><ele>1142.86</ele><time>2026-04-25T00:14:28.000Z</time></trkpt>
        <trkpt lat="29.7469233" lon="103.4101905"><ele>1142.43</ele><time>2026-04-25T00:14:36.000Z</time></trkpt>
        <trkpt lat="29.7469661" lon="103.4102092"><ele>1141.79</ele><time>2026-04-25T00:14:44.000Z</time></trkpt>
        <trkpt lat="29.7470097" lon="103.4102282"><ele>1141.02</ele><time>2026-04-25T00:14:54.000Z</time></trkpt>
        <trkpt lat="29.7470169" lon="103.4102774"><ele>1138.75</ele><time>2026-04-25T00:15:02.000Z</time></trkpt>
        <trkpt lat="29.7470323" lon="103.4103316"><ele>1137.04</ele><time>2026-04-25T00:15:08.000Z</time></trkpt>
        <trkpt lat="29.7470678" lon="103.410381"><ele>1136.68</ele><time>2026-04-25T00:15:14.000Z</time></trkpt>
        <trkpt lat="29.7470936" lon="103.4104343"><ele>1136.01</ele><time>2026-04-25T00:15:20.000Z</time></trkpt>
        <trkpt lat="29.74713" lon="103.4104779"><ele>1136.08</ele><time>2026-04-25T00:15:26.000Z</time></trkpt>
        <trkpt lat="29.7471737" lon="103.410514"><ele>1136.26</ele><time>2026-04-25T00:15:34.000Z</time></trkpt>
        <trkpt lat="29.7472142" lon="103.4105489"><ele>1136.03</ele><time>2026-04-25T00:15:40.000Z</time></trkpt>
        <trkpt lat="29.7472605" lon="103.4105855"><ele>1135.66</ele><time>2026-04-25T00:15:44.000Z</time></trkpt>
        <trkpt lat="29.7472926" lon="103.4106297"><ele>1135.29</ele><time>2026-04-25T00:15:50.000Z</time></trkpt>
        <trkpt lat="29.7473307" lon="103.4106709"><ele>1135.87</ele><time>2026-04-25T00:15:58.000Z</time></trkpt>
        <trkpt lat="29.7473547" lon="103.4107206"><ele>1137.03</ele><time>2026-04-25T00:16:04.000Z</time></trkpt>
        <trkpt lat="29.7473835" lon="103.4107623"><ele>1137.75</ele><time>2026-04-25T00:16:14.000Z</time></trkpt>
        <trkpt lat="29.7474179" lon="103.4108007"><ele>1139.11</ele><time>2026-04-25T00:16:18.000Z</time></trkpt>
        <trkpt lat="29.7474454" lon="103.4108427"><ele>1139.32</ele><time>2026-04-25T00:16:23.000Z</time></trkpt>
        <trkpt lat="29.7474601" lon="103.4109047"><ele>1139.77</ele><time>2026-04-25T00:16:31.000Z</time></trkpt>
        <trkpt lat="29.7474586" lon="103.4109813"><ele>1139.87</ele><time>2026-04-25T00:16:43.000Z</time></trkpt>
        <trkpt lat="29.7474645" lon="103.4110603"><ele>1140.17</ele><time>2026-04-25T00:16:51.000Z</time></trkpt>
        <trkpt lat="29.7474717" lon="103.4111263"><ele>1141.02</ele><time>2026-04-25T00:16:55.000Z</time></trkpt>
        <trkpt lat="29.7474855" lon="103.4111812"><ele>1140.33</ele><time>2026-04-25T00:17:03.000Z</time></trkpt>
        <trkpt lat="29.7475027" lon="103.4112358"><ele>1140.08</ele><time>2026-04-25T00:17:07.000Z</time></trkpt>
        <trkpt lat="29.7475489" lon="103.4112663"><ele>1139.16</ele><time>2026-04-25T00:17:13.000Z</time></trkpt>
        <trkpt lat="29.7476086" lon="103.4112793"><ele>1138.59</ele><time>2026-04-25T00:17:21.000Z</time></trkpt>
        <trkpt lat="29.7476335" lon="103.4112661"><ele>1138.69</ele><time>2026-04-25T00:17:23.000Z</time></trkpt>
        <trkpt lat="29.7476791" lon="103.4112523"><ele>1138.82</ele><time>2026-04-25T00:17:33.000Z</time></trkpt>
        <trkpt lat="29.74773" lon="103.4112639"><ele>1139.31</ele><time>2026-04-25T00:17:41.000Z</time></trkpt>
        <trkpt lat="29.7477627" lon="103.4113113"><ele>1139.93</ele><time>2026-04-25T00:17:49.000Z</time></trkpt>
        <trkpt lat="29.7478074" lon="103.4113444"><ele>1140.26</ele><time>2026-04-25T00:17:55.000Z</time></trkpt>
        <trkpt lat="29.7478575" lon="103.4113515"><ele>1140.48</ele><time>2026-04-25T00:18:01.000Z</time></trkpt>
        <trkpt lat="29.747915" lon="103.4113737"><ele>1141.51</ele><time>2026-04-25T00:18:07.000Z</time></trkpt>
        <trkpt lat="29.7479709" lon="103.4113583"><ele>1141.65</ele><time>2026-04-25T00:18:27.000Z</time></trkpt>
        <trkpt lat="29.7480185" lon="103.4113321"><ele>1142.17</ele><time>2026-04-25T00:18:49.000Z</time></trkpt>
        <trkpt lat="29.748025" lon="103.4113689"><ele>1143.98</ele><time>2026-04-25T00:19:11.000Z</time></trkpt>
        <trkpt lat="29.748035" lon="103.4114221"><ele>1147.53</ele><time>2026-04-25T00:19:19.000Z</time></trkpt>
        <trkpt lat="29.7480521" lon="103.4114746"><ele>1149.68</ele><time>2026-04-25T00:19:23.000Z</time></trkpt>
        <trkpt lat="29.748093" lon="103.4114857"><ele>1149.98</ele><time>2026-04-25T00:19:58.000Z</time></trkpt>
        <trkpt lat="29.7481251" lon="103.4115244"><ele>1149.95</ele><time>2026-04-25T00:20:43.000Z</time></trkpt>
        <trkpt lat="29.748141" lon="103.4115875"><ele>1150.34</ele><time>2026-04-25T00:20:49.000Z</time></trkpt>
        <trkpt lat="29.7481568" lon="103.4116543"><ele>1150.24</ele><time>2026-04-25T00:20:55.000Z</time></trkpt>
        <trkpt lat="29.748192" lon="103.4116973"><ele>1151.83</ele><time>2026-04-25T00:20:59.000Z</time></trkpt>
        <trkpt lat="29.7482471" lon="103.4117283"><ele>1152.19</ele><time>2026-04-25T00:21:06.000Z</time></trkpt>
        <trkpt lat="29.7482978" lon="103.4117397"><ele>1151.51</ele><time>2026-04-25T00:21:16.000Z</time></trkpt>
        <trkpt lat="29.7483542" lon="103.4117194"><ele>1150.57</ele><time>2026-04-25T00:21:24.000Z</time></trkpt>
        <trkpt lat="29.7484126" lon="103.4117276"><ele>1148.95</ele><time>2026-04-25T00:21:28.000Z</time></trkpt>
        <trkpt lat="29.7484527" lon="103.411762"><ele>1148.72</ele><time>2026-04-25T00:21:34.000Z</time></trkpt>
        <trkpt lat="29.7485084" lon="103.4118149"><ele>1148.45</ele><time>2026-04-25T00:21:40.000Z</time></trkpt>
        <trkpt lat="29.7485474" lon="103.4118735"><ele>1149.46</ele><time>2026-04-25T00:21:44.000Z</time></trkpt>
        <trkpt lat="29.7485887" lon="103.4119278"><ele>1149.14</ele><time>2026-04-25T00:21:50.000Z</time></trkpt>
        <trkpt lat="29.7486355" lon="103.4119676"><ele>1148.48</ele><time>2026-04-25T00:21:56.000Z</time></trkpt>
        <trkpt lat="29.7486704" lon="103.4120122"><ele>1149.52</ele><time>2026-04-25T00:22:02.000Z</time></trkpt>
        <trkpt lat="29.7487084" lon="103.4120635"><ele>1149.88</ele><time>2026-04-25T00:22:08.000Z</time></trkpt>
        <trkpt lat="29.7487226" lon="103.4121166"><ele>1150.01</ele><time>2026-04-25T00:22:12.000Z</time></trkpt>
        <trkpt lat="29.748724" lon="103.4121778"><ele>1151.55</ele><time>2026-04-25T00:22:18.000Z</time></trkpt>
        <trkpt lat="29.7487334" lon="103.4122382"><ele>1153.4</ele><time>2026-04-25T00:22:24.000Z</time></trkpt>
        <trkpt lat="29.7487386" lon="103.4122842"><ele>1152.93</ele><time>2026-04-25T00:22:30.000Z</time></trkpt>
        <trkpt lat="29.7487689" lon="103.4123165"><ele>1152.53</ele><time>2026-04-25T00:22:36.000Z</time></trkpt>
        <trkpt lat="29.7488252" lon="103.4123077"><ele>1151.49</ele><time>2026-04-25T00:22:42.000Z</time></trkpt>
        <trkpt lat="29.748886" lon="103.4123226"><ele>1151.44</ele><time>2026-04-25T00:22:46.000Z</time></trkpt>
        <trkpt lat="29.7489267" lon="103.4123794"><ele>1150.58</ele><time>2026-04-25T00:22:52.000Z</time></trkpt>
        <trkpt lat="29.7489685" lon="103.4124261"><ele>1149.82</ele><time>2026-04-25T00:22:56.000Z</time></trkpt>
        <trkpt lat="29.7490101" lon="103.4124755"><ele>1149.34</ele><time>2026-04-25T00:23:02.000Z</time></trkpt>
        <trkpt lat="29.7490325" lon="103.4125352"><ele>1149.12</ele><time>2026-04-25T00:23:08.000Z</time></trkpt>
        <trkpt lat="29.7490454" lon="103.4125956"><ele>1149.13</ele><time>2026-04-25T00:23:14.000Z</time></trkpt>
        <trkpt lat="29.7490835" lon="103.4126381"><ele>1149.94</ele><time>2026-04-25T00:23:20.000Z</time></trkpt>
        <trkpt lat="29.7491313" lon="103.4126691"><ele>1149.34</ele><time>2026-04-25T00:23:26.000Z</time></trkpt>
        <trkpt lat="29.7491737" lon="103.412708"><ele>1149.07</ele><time>2026-04-25T00:23:34.000Z</time></trkpt>
        <trkpt lat="29.7492056" lon="103.4127575"><ele>1148.65</ele><time>2026-04-25T00:23:38.000Z</time></trkpt>
        <trkpt lat="29.7492281" lon="103.4128191"><ele>1149.1</ele><time>2026-04-25T00:23:44.000Z</time></trkpt>
        <trkpt lat="29.749244" lon="103.4128693"><ele>1149.8</ele><time>2026-04-25T00:23:52.000Z</time></trkpt>
        <trkpt lat="29.7492703" lon="103.4129113"><ele>1149.44</ele><time>2026-04-25T00:24:09.000Z</time></trkpt>
        <trkpt lat="29.7492798" lon="103.4129595"><ele>1149.5</ele><time>2026-04-25T00:24:13.000Z</time></trkpt>
        <trkpt lat="29.7492887" lon="103.4130094"><ele>1148.98</ele><time>2026-04-25T00:24:17.000Z</time></trkpt>
        <trkpt lat="29.7493053" lon="103.4130688"><ele>1148.26</ele><time>2026-04-25T00:24:23.000Z</time></trkpt>
        <trkpt lat="29.7493372" lon="103.4131299"><ele>1148.05</ele><time>2026-04-25T00:24:29.000Z</time></trkpt>
        <trkpt lat="29.7493659" lon="103.4131808"><ele>1148.22</ele><time>2026-04-25T00:24:35.000Z</time></trkpt>
        <trkpt lat="29.7494009" lon="103.413226"><ele>1148.89</ele><time>2026-04-25T00:24:39.000Z</time></trkpt>
        <trkpt lat="29.7494356" lon="103.4132732"><ele>1148.88</ele><time>2026-04-25T00:24:43.000Z</time></trkpt>
        <trkpt lat="29.7494701" lon="103.4133136"><ele>1148.17</ele><time>2026-04-25T00:24:47.000Z</time></trkpt>
        <trkpt lat="29.7495153" lon="103.4133493"><ele>1148.09</ele><time>2026-04-25T00:24:53.000Z</time></trkpt>
        <trkpt lat="29.749555" lon="103.4133834"><ele>1148.26</ele><time>2026-04-25T00:24:57.000Z</time></trkpt>
        <trkpt lat="29.7495911" lon="103.4134376"><ele>1147.55</ele><time>2026-04-25T00:25:01.000Z</time></trkpt>
        <trkpt lat="29.7495856" lon="103.4134512"><ele>1147.45</ele><time>2026-04-25T00:25:05.000Z</time></trkpt>
        <trkpt lat="29.7495658" lon="103.4134881"><ele>1145.97</ele><time>2026-04-25T00:25:09.000Z</time></trkpt>
        <trkpt lat="29.7495896" lon="103.4135174"><ele>1144.9</ele><time>2026-04-25T00:25:19.000Z</time></trkpt>
        <trkpt lat="29.7495662" lon="103.4135426"><ele>1145.08</ele><time>2026-04-25T00:25:27.000Z</time></trkpt>
        <trkpt lat="29.749528" lon="103.4135763"><ele>1146.53</ele><time>2026-04-25T00:25:35.000Z</time></trkpt>
        <trkpt lat="29.7495285" lon="103.4136245"><ele>1149.16</ele><time>2026-04-25T00:25:41.000Z</time></trkpt>
        <trkpt lat="29.749567" lon="103.4136656"><ele>1150.34</ele><time>2026-04-25T00:25:49.000Z</time></trkpt>
        <trkpt lat="29.7496161" lon="103.4137003"><ele>1150.99</ele><time>2026-04-25T00:26:03.000Z</time></trkpt>
        <trkpt lat="29.7496717" lon="103.4137071"><ele>1151.49</ele><time>2026-04-25T00:26:17.000Z</time></trkpt>
        <trkpt lat="29.7497201" lon="103.4137238"><ele>1151.04</ele><time>2026-04-25T00:26:43.000Z</time></trkpt>
        <trkpt lat="29.74975" lon="103.4137682"><ele>1149.85</ele><time>2026-04-25T00:27:05.000Z</time></trkpt>
        <trkpt lat="29.7497607" lon="103.4138207"><ele>1148.77</ele><time>2026-04-25T00:27:29.000Z</time></trkpt>
        <trkpt lat="29.7497957" lon="103.4138679"><ele>1148.18</ele><time>2026-04-25T00:27:47.000Z</time></trkpt>
        <trkpt lat="29.7497957" lon="103.4138679"><ele>1148.18</ele><time>2026-04-25T00:28:04.000Z</time></trkpt>
        <trkpt lat="29.7498305" lon="103.4139153"><ele>1147.56</ele><time>2026-04-25T00:28:09.000Z</time></trkpt>
        <trkpt lat="29.7498305" lon="103.4139153"><ele>1147.56</ele><time>2026-04-25T00:28:12.000Z</time></trkpt>
        <trkpt lat="29.749843" lon="103.4139672"><ele>1146.32</ele><time>2026-04-25T00:28:18.000Z</time></trkpt>
        <trkpt lat="29.7498748" lon="103.4140021"><ele>1145.49</ele><time>2026-04-25T00:28:24.000Z</time></trkpt>
        <trkpt lat="29.7498946" lon="103.4140518"><ele>1145.45</ele><time>2026-04-25T00:28:36.000Z</time></trkpt>
        <trkpt lat="29.7499045" lon="103.414105"><ele>1146.22</ele><time>2026-04-25T00:28:58.000Z</time></trkpt>
        <trkpt lat="29.7499214" lon="103.414165"><ele>1147.68</ele><time>2026-04-25T00:29:06.000Z</time></trkpt>
        <trkpt lat="29.7499452" lon="103.4142139"><ele>1148.93</ele><time>2026-04-25T00:29:30.000Z</time></trkpt>
        <trkpt lat="29.7499874" lon="103.4142482"><ele>1149.83</ele><time>2026-04-25T00:29:40.000Z</time></trkpt>
        <trkpt lat="29.7500363" lon="103.4142726"><ele>1150.69</ele><time>2026-04-25T00:29:50.000Z</time></trkpt>
        <trkpt lat="29.7500845" lon="103.4142868"><ele>1150.86</ele><time>2026-04-25T00:29:56.000Z</time></trkpt>
        <trkpt lat="29.7501356" lon="103.414309"><ele>1151.08</ele><time>2026-04-25T00:30:04.000Z</time></trkpt>
        <trkpt lat="29.7501862" lon="103.4143366"><ele>1150.76</ele><time>2026-04-25T00:30:12.000Z</time></trkpt>
        <trkpt lat="29.7502327" lon="103.4143719"><ele>1149.81</ele><time>2026-04-25T00:30:22.000Z</time></trkpt>
        <trkpt lat="29.7502782" lon="103.4144038"><ele>1148.73</ele><time>2026-04-25T00:30:30.000Z</time></trkpt>
        <trkpt lat="29.7503263" lon="103.4144202"><ele>1147.93</ele><time>2026-04-25T00:30:42.000Z</time></trkpt>
        <trkpt lat="29.7503263" lon="103.4144202"><ele>1147.93</ele><time>2026-04-25T00:30:52.000Z</time></trkpt>
        <trkpt lat="29.7504085" lon="103.4144479"><ele>1147.54</ele><time>2026-04-25T00:31:07.000Z</time></trkpt>
        <trkpt lat="29.7504085" lon="103.4144479"><ele>1147.54</ele><time>2026-04-25T00:31:10.000Z</time></trkpt>
        <trkpt lat="29.7504085" lon="103.4144479"><ele>1147.54</ele><time>2026-04-25T00:31:40.000Z</time></trkpt>
        <trkpt lat="29.7504511" lon="103.4145121"><ele>1147.72</ele><time>2026-04-25T00:31:53.000Z</time></trkpt>
        <trkpt lat="29.7504511" lon="103.4145121"><ele>1147.72</ele><time>2026-04-25T00:32:01.000Z</time></trkpt>
        <trkpt lat="29.7504806" lon="103.4145582"><ele>1147.04</ele><time>2026-04-25T00:32:05.000Z</time></trkpt>
        <trkpt lat="29.7505162" lon="103.4146062"><ele>1147.12</ele><time>2026-04-25T00:32:13.000Z</time></trkpt>
        <trkpt lat="29.7505446" lon="103.4146507"><ele>1146.22</ele><time>2026-04-25T00:32:17.000Z</time></trkpt>
        <trkpt lat="29.7505663" lon="103.4147111"><ele>1144.78</ele><time>2026-04-25T00:32:21.000Z</time></trkpt>
        <trkpt lat="29.7506038" lon="103.4147609"><ele>1143.9</ele><time>2026-04-25T00:32:25.000Z</time></trkpt>
        <trkpt lat="29.7506317" lon="103.4148148"><ele>1143.77</ele><time>2026-04-25T00:32:29.000Z</time></trkpt>
        <trkpt lat="29.750642" lon="103.4148892"><ele>1143.75</ele><time>2026-04-25T00:32:35.000Z</time></trkpt>
        <trkpt lat="29.7506546" lon="103.4149676"><ele>1142.82</ele><time>2026-04-25T00:32:41.000Z</time></trkpt>
        <trkpt lat="29.7506832" lon="103.415033"><ele>1143.62</ele><time>2026-04-25T00:32:47.000Z</time></trkpt>
        <trkpt lat="29.750705" lon="103.4150908"><ele>1143.9</ele><time>2026-04-25T00:32:53.000Z</time></trkpt>
        <trkpt lat="29.7507325" lon="103.4151466"><ele>1143.52</ele><time>2026-04-25T00:32:59.000Z</time></trkpt>
        <trkpt lat="29.7507736" lon="103.4151888"><ele>1142.78</ele><time>2026-04-25T00:33:03.000Z</time></trkpt>
        <trkpt lat="29.7508215" lon="103.4151984"><ele>1142.28</ele><time>2026-04-25T00:33:07.000Z</time></trkpt>
        <trkpt lat="29.7508841" lon="103.4152081"><ele>1141.2</ele><time>2026-04-25T00:33:13.000Z</time></trkpt>
        <trkpt lat="29.7509395" lon="103.415219"><ele>1139.48</ele><time>2026-04-25T00:33:17.000Z</time></trkpt>
        <trkpt lat="29.7509901" lon="103.4152579"><ele>1137.64</ele><time>2026-04-25T00:33:23.000Z</time></trkpt>
        <trkpt lat="29.7510306" lon="103.4153142"><ele>1134.88</ele><time>2026-04-25T00:33:29.000Z</time></trkpt>
        <trkpt lat="29.7510592" lon="103.4153707"><ele>1133.2</ele><time>2026-04-25T00:33:33.000Z</time></trkpt>
        <trkpt lat="29.7510962" lon="103.4154151"><ele>1131.74</ele><time>2026-04-25T00:33:37.000Z</time></trkpt>
        <trkpt lat="29.7511399" lon="103.415444"><ele>1130.32</ele><time>2026-04-25T00:33:41.000Z</time></trkpt>
        <trkpt lat="29.751197" lon="103.4154722"><ele>1129.1</ele><time>2026-04-25T00:33:47.000Z</time></trkpt>
        <trkpt lat="29.7512498" lon="103.4155052"><ele>1128.79</ele><time>2026-04-25T00:33:51.000Z</time></trkpt>
        <trkpt lat="29.7512962" lon="103.4155523"><ele>1128.8</ele><time>2026-04-25T00:33:57.000Z</time></trkpt>
        <trkpt lat="29.7513419" lon="103.4156038"><ele>1129.02</ele><time>2026-04-25T00:34:03.000Z</time></trkpt>
        <trkpt lat="29.7513758" lon="103.4156607"><ele>1127.59</ele><time>2026-04-25T00:34:07.000Z</time></trkpt>
        <trkpt lat="29.7514069" lon="103.4157136"><ele>1126.3</ele><time>2026-04-25T00:34:11.000Z</time></trkpt>
        <trkpt lat="29.7514461" lon="103.4157406"><ele>1125.2</ele><time>2026-04-25T00:34:15.000Z</time></trkpt>
        <trkpt lat="29.7514895" lon="103.4157554"><ele>1124.86</ele><time>2026-04-25T00:34:19.000Z</time></trkpt>
        <trkpt lat="29.7515332" lon="103.4157846"><ele>1125.93</ele><time>2026-04-25T00:34:23.000Z</time></trkpt>
        <trkpt lat="29.7515638" lon="103.4158326"><ele>1125.46</ele><time>2026-04-25T00:34:27.000Z</time></trkpt>
        <trkpt lat="29.7515848" lon="103.4158841"><ele>1124.91</ele><time>2026-04-25T00:34:31.000Z</time></trkpt>
        <trkpt lat="29.751597" lon="103.415955"><ele>1125.17</ele><time>2026-04-25T00:34:37.000Z</time></trkpt>
        <trkpt lat="29.75159" lon="103.4160275"><ele>1125.77</ele><time>2026-04-25T00:34:43.000Z</time></trkpt>
        <trkpt lat="29.7515886" lon="103.416098"><ele>1126.13</ele><time>2026-04-25T00:34:49.000Z</time></trkpt>
        <trkpt lat="29.7515908" lon="103.4161628"><ele>1126.92</ele><time>2026-04-25T00:34:55.000Z</time></trkpt>
        <trkpt lat="29.7515844" lon="103.416226"><ele>1127.26</ele><time>2026-04-25T00:35:03.000Z</time></trkpt>
        <trkpt lat="29.7515993" lon="103.4162756"><ele>1126.62</ele><time>2026-04-25T00:35:59.000Z</time></trkpt>
        <trkpt lat="29.751605" lon="103.4163265"><ele>1125.46</ele><time>2026-04-25T00:36:13.000Z</time></trkpt>
        <trkpt lat="29.751637" lon="103.4163694"><ele>1126.21</ele><time>2026-04-25T00:36:23.000Z</time></trkpt>
        <trkpt lat="29.7516813" lon="103.4163393"><ele>1126.67</ele><time>2026-04-25T00:36:29.000Z</time></trkpt>
        <trkpt lat="29.7517074" lon="103.4163603"><ele>1126.69</ele><time>2026-04-25T00:36:41.000Z</time></trkpt>
        <trkpt lat="29.7516865" lon="103.4164101"><ele>1127.59</ele><time>2026-04-25T00:36:49.000Z</time></trkpt>
        <trkpt lat="29.7516711" lon="103.416481"><ele>1129.03</ele><time>2026-04-25T00:36:57.000Z</time></trkpt>
        <trkpt lat="29.7516689" lon="103.41653"><ele>1129.47</ele><time>2026-04-25T00:37:01.000Z</time></trkpt>
        <trkpt lat="29.7517009" lon="103.4165698"><ele>1129.78</ele><time>2026-04-25T00:37:17.000Z</time></trkpt>
        <trkpt lat="29.7517551" lon="103.4165881"><ele>1130.05</ele><time>2026-04-25T00:37:29.000Z</time></trkpt>
        <trkpt lat="29.7517551" lon="103.4165881"><ele>1130.05</ele><time>2026-04-25T00:38:54.000Z</time></trkpt>
        <trkpt lat="29.7518119" lon="103.4166051"><ele>1129.53</ele><time>2026-04-25T00:39:05.000Z</time></trkpt>
        <trkpt lat="29.7518119" lon="103.4166051"><ele>1129.53</ele><time>2026-04-25T00:39:59.000Z</time></trkpt>
        <trkpt lat="29.7518336" lon="103.4166586"><ele>1129.22</ele><time>2026-04-25T00:40:37.000Z</time></trkpt>
        <trkpt lat="29.7518273" lon="103.4166812"><ele>1129.07</ele><time>2026-04-25T00:40:39.000Z</time></trkpt>
        <trkpt lat="29.7518324" lon="103.4167294"><ele>1129.16</ele><time>2026-04-25T00:40:53.000Z</time></trkpt>
        <trkpt lat="29.7518542" lon="103.4167795"><ele>1129.03</ele><time>2026-04-25T00:41:01.000Z</time></trkpt>
        <trkpt lat="29.7518888" lon="103.4168212"><ele>1129.05</ele><time>2026-04-25T00:41:09.000Z</time></trkpt>
        <trkpt lat="29.7519307" lon="103.4168645"><ele>1127.98</ele><time>2026-04-25T00:41:21.000Z</time></trkpt>
        <trkpt lat="29.7519643" lon="103.4169077"><ele>1126.99</ele><time>2026-04-25T00:41:29.000Z</time></trkpt>
        <trkpt lat="29.7519989" lon="103.4169479"><ele>1126.31</ele><time>2026-04-25T00:41:35.000Z</time></trkpt>
        <trkpt lat="29.752026" lon="103.4169918"><ele>1126.19</ele><time>2026-04-25T00:41:43.000Z</time></trkpt>
        <trkpt lat="29.7520505" lon="103.4170392"><ele>1125.55</ele><time>2026-04-25T00:41:47.000Z</time></trkpt>
        <trkpt lat="29.7520906" lon="103.4170841"><ele>1124.56</ele><time>2026-04-25T00:41:53.000Z</time></trkpt>
        <trkpt lat="29.7521359" lon="103.4171218"><ele>1123.5</ele><time>2026-04-25T00:41:57.000Z</time></trkpt>
        <trkpt lat="29.7521878" lon="103.417155"><ele>1122.51</ele><time>2026-04-25T00:42:03.000Z</time></trkpt>
        <trkpt lat="29.7522307" lon="103.4171891"><ele>1121.07</ele><time>2026-04-25T00:42:07.000Z</time></trkpt>
        <trkpt lat="29.7522801" lon="103.4172141"><ele>1120.31</ele><time>2026-04-25T00:42:11.000Z</time></trkpt>
        <trkpt lat="29.7523269" lon="103.417241"><ele>1119.65</ele><time>2026-04-25T00:42:15.000Z</time></trkpt>
        <trkpt lat="29.7523756" lon="103.4172813"><ele>1118.8</ele><time>2026-04-25T00:42:19.000Z</time></trkpt>
        <trkpt lat="29.7524132" lon="103.4173339"><ele>1119.28</ele><time>2026-04-25T00:42:25.000Z</time></trkpt>
        <trkpt lat="29.7524263" lon="103.4174077"><ele>1120.25</ele><time>2026-04-25T00:42:31.000Z</time></trkpt>
        <trkpt lat="29.7524522" lon="103.4174749"><ele>1120.13</ele><time>2026-04-25T00:42:35.000Z</time></trkpt>
        <trkpt lat="29.7524945" lon="103.4175242"><ele>1120.11</ele><time>2026-04-25T00:42:39.000Z</time></trkpt>
        <trkpt lat="29.7525291" lon="103.4175775"><ele>1119.93</ele><time>2026-04-25T00:42:43.000Z</time></trkpt>
        <trkpt lat="29.7525468" lon="103.4176306"><ele>1119.43</ele><time>2026-04-25T00:42:47.000Z</time></trkpt>
        <trkpt lat="29.7525455" lon="103.4176844"><ele>1119.09</ele><time>2026-04-25T00:42:51.000Z</time></trkpt>
        <trkpt lat="29.7525614" lon="103.4177416"><ele>1119.3</ele><time>2026-04-25T00:42:57.000Z</time></trkpt>
        <trkpt lat="29.7525613" lon="103.4177005"><ele>1119.47</ele><time>2026-04-25T00:43:01.000Z</time></trkpt>
        <trkpt lat="29.7525973" lon="103.4176706"><ele>1119.35</ele><time>2026-04-25T00:43:07.000Z</time></trkpt>
        <trkpt lat="29.7526519" lon="103.4176674"><ele>1118.87</ele><time>2026-04-25T00:43:13.000Z</time></trkpt>
        <trkpt lat="29.7526693" lon="103.4177085"><ele>1118.19</ele><time>2026-04-25T00:43:17.000Z</time></trkpt>
        <trkpt lat="29.7526542" lon="103.4177636"><ele>1117.86</ele><time>2026-04-25T00:43:21.000Z</time></trkpt>
        <trkpt lat="29.7526228" lon="103.4178239"><ele>1118.41</ele><time>2026-04-25T00:43:27.000Z</time></trkpt>
        <trkpt lat="29.7526422" lon="103.4178748"><ele>1117.83</ele><time>2026-04-25T00:43:39.000Z</time></trkpt>
        <trkpt lat="29.7526832" lon="103.4179209"><ele>1116.23</ele><time>2026-04-25T00:43:45.000Z</time></trkpt>
        <trkpt lat="29.7527294" lon="103.4179622"><ele>1115.07</ele><time>2026-04-25T00:43:49.000Z</time></trkpt>
        <trkpt lat="29.752776" lon="103.417997"><ele>1114.88</ele><time>2026-04-25T00:43:53.000Z</time></trkpt>
        <trkpt lat="29.7528252" lon="103.4180101"><ele>1114.96</ele><time>2026-04-25T00:43:57.000Z</time></trkpt>
        <trkpt lat="29.7528711" lon="103.4180224"><ele>1114.1</ele><time>2026-04-25T00:44:01.000Z</time></trkpt>
        <trkpt lat="29.7529236" lon="103.4180543"><ele>1112.7</ele><time>2026-04-25T00:44:05.000Z</time></trkpt>
        <trkpt lat="29.7529833" lon="103.4180818"><ele>1111.47</ele><time>2026-04-25T00:44:09.000Z</time></trkpt>
        <trkpt lat="29.7530448" lon="103.4181077"><ele>1110.16</ele><time>2026-04-25T00:44:13.000Z</time></trkpt>
        <trkpt lat="29.7530924" lon="103.4181524"><ele>1109.19</ele><time>2026-04-25T00:44:17.000Z</time></trkpt>
        <trkpt lat="29.7531215" lon="103.4182041"><ele>1107.25</ele><time>2026-04-25T00:44:21.000Z</time></trkpt>
        <trkpt lat="29.7531102" lon="103.418272"><ele>1105.94</ele><time>2026-04-25T00:44:27.000Z</time></trkpt>
        <trkpt lat="29.7530909" lon="103.418344"><ele>1105.32</ele><time>2026-04-25T00:44:33.000Z</time></trkpt>
        <trkpt lat="29.7530705" lon="103.4184154"><ele>1106.07</ele><time>2026-04-25T00:44:39.000Z</time></trkpt>
        <trkpt lat="29.7530502" lon="103.4184852"><ele>1106.29</ele><time>2026-04-25T00:44:45.000Z</time></trkpt>
        <trkpt lat="29.7530455" lon="103.418547"><ele>1105.9</ele><time>2026-04-25T00:44:51.000Z</time></trkpt>
        <trkpt lat="29.753038" lon="103.4186091"><ele>1105.85</ele><time>2026-04-25T00:45:03.000Z</time></trkpt>
        <trkpt lat="29.7530091" lon="103.418655"><ele>1105.51</ele><time>2026-04-25T00:45:13.000Z</time></trkpt>
        <trkpt lat="29.7529788" lon="103.4186249"><ele>1104.21</ele><time>2026-04-25T00:45:17.000Z</time></trkpt>
        <trkpt lat="29.7529782" lon="103.4186452"><ele>1102</ele><time>2026-04-25T00:45:25.000Z</time></trkpt>
        <trkpt lat="29.752976" lon="103.4186922"><ele>1100.68</ele><time>2026-04-25T00:45:31.000Z</time></trkpt>
        <trkpt lat="29.7530064" lon="103.4187378"><ele>1100.25</ele><time>2026-04-25T00:45:43.000Z</time></trkpt>
        <trkpt lat="29.7530271" lon="103.4187983"><ele>1098.35</ele><time>2026-04-25T00:45:51.000Z</time></trkpt>
        <trkpt lat="29.7530255" lon="103.4188827"><ele>1095.32</ele><time>2026-04-25T00:45:55.000Z</time></trkpt>
        <trkpt lat="29.7530288" lon="103.4188988"><ele>1093.54</ele><time>2026-04-25T00:45:59.000Z</time></trkpt>
        <trkpt lat="29.7530865" lon="103.4189073"><ele>1091.08</ele><time>2026-04-25T00:46:05.000Z</time></trkpt>
        <trkpt lat="29.7531423" lon="103.4189181"><ele>1090.05</ele><time>2026-04-25T00:46:09.000Z</time></trkpt>
        <trkpt lat="29.7531997" lon="103.4189386"><ele>1089.3</ele><time>2026-04-25T00:46:21.000Z</time></trkpt>
        <trkpt lat="29.7532213" lon="103.4190018"><ele>1088.18</ele><time>2026-04-25T00:46:27.000Z</time></trkpt>
        <trkpt lat="29.7532384" lon="103.4190725"><ele>1086.69</ele><time>2026-04-25T00:46:33.000Z</time></trkpt>
        <trkpt lat="29.7532688" lon="103.4191193"><ele>1085.53</ele><time>2026-04-25T00:46:39.000Z</time></trkpt>
        <trkpt lat="29.7532889" lon="103.4191731"><ele>1084.43</ele><time>2026-04-25T00:46:45.000Z</time></trkpt>
        <trkpt lat="29.7533238" lon="103.4192078"><ele>1083.08</ele><time>2026-04-25T00:46:51.000Z</time></trkpt>
        <trkpt lat="29.7533473" lon="103.4192606"><ele>1081.94</ele><time>2026-04-25T00:46:59.000Z</time></trkpt>
        <trkpt lat="29.753356" lon="103.4192877"><ele>1079.84</ele><time>2026-04-25T00:47:03.000Z</time></trkpt>
        <trkpt lat="29.7533857" lon="103.4193198"><ele>1078.25</ele><time>2026-04-25T00:47:09.000Z</time></trkpt>
        <trkpt lat="29.7533927" lon="103.4193316"><ele>1077.95</ele><time>2026-04-25T00:47:11.000Z</time></trkpt>
        <trkpt lat="29.7534133" lon="103.4193833"><ele>1078.06</ele><time>2026-04-25T00:47:17.000Z</time></trkpt>
        <trkpt lat="29.7534333" lon="103.4194272"><ele>1077.89</ele><time>2026-04-25T00:47:21.000Z</time></trkpt>
        <trkpt lat="29.753466" lon="103.4194755"><ele>1077.66</ele><time>2026-04-25T00:47:27.000Z</time></trkpt>
        <trkpt lat="29.7535248" lon="103.419494"><ele>1078.16</ele><time>2026-04-25T00:47:33.000Z</time></trkpt>
        <trkpt lat="29.7535635" lon="103.4195307"><ele>1077.57</ele><time>2026-04-25T00:47:37.000Z</time></trkpt>
        <trkpt lat="29.7536101" lon="103.4195724"><ele>1077.82</ele><time>2026-04-25T00:47:43.000Z</time></trkpt>
        <trkpt lat="29.7536573" lon="103.4195812"><ele>1076.95</ele><time>2026-04-25T00:47:47.000Z</time></trkpt>
        <trkpt lat="29.7537069" lon="103.4196122"><ele>1076.46</ele><time>2026-04-25T00:47:53.000Z</time></trkpt>
        <trkpt lat="29.7537501" lon="103.4196395"><ele>1075.54</ele><time>2026-04-25T00:47:57.000Z</time></trkpt>
        <trkpt lat="29.7537889" lon="103.419668"><ele>1074.75</ele><time>2026-04-25T00:48:01.000Z</time></trkpt>
        <trkpt lat="29.753825" lon="103.4197066"><ele>1073.86</ele><time>2026-04-25T00:48:05.000Z</time></trkpt>
        <trkpt lat="29.753861" lon="103.4197495"><ele>1072.75</ele><time>2026-04-25T00:48:09.000Z</time></trkpt>
        <trkpt lat="29.7539049" lon="103.4197806"><ele>1071.28</ele><time>2026-04-25T00:48:13.000Z</time></trkpt>
        <trkpt lat="29.7539562" lon="103.419803"><ele>1069.33</ele><time>2026-04-25T00:48:17.000Z</time></trkpt>
        <trkpt lat="29.7540054" lon="103.4198239"><ele>1067.99</ele><time>2026-04-25T00:48:21.000Z</time></trkpt>
        <trkpt lat="29.7540498" lon="103.4198497"><ele>1067.2</ele><time>2026-04-25T00:48:25.000Z</time></trkpt>
        <trkpt lat="29.7540885" lon="103.4198965"><ele>1066.98</ele><time>2026-04-25T00:48:31.000Z</time></trkpt>
        <trkpt lat="29.7540836" lon="103.4199575"><ele>1066.38</ele><time>2026-04-25T00:48:35.000Z</time></trkpt>
        <trkpt lat="29.7540735" lon="103.4200192"><ele>1066.88</ele><time>2026-04-25T00:48:39.000Z</time></trkpt>
        <trkpt lat="29.7541002" lon="103.4200609"><ele>1067.15</ele><time>2026-04-25T00:48:45.000Z</time></trkpt>
        <trkpt lat="29.7541424" lon="103.4200796"><ele>1067.38</ele><time>2026-04-25T00:48:49.000Z</time></trkpt>
        <trkpt lat="29.7541913" lon="103.4200911"><ele>1066.25</ele><time>2026-04-25T00:48:53.000Z</time></trkpt>
        <trkpt lat="29.7542436" lon="103.4201187"><ele>1064.94</ele><time>2026-04-25T00:48:59.000Z</time></trkpt>
        <trkpt lat="29.7542911" lon="103.4201488"><ele>1063.86</ele><time>2026-04-25T00:49:05.000Z</time></trkpt>
        <trkpt lat="29.7543034" lon="103.420201"><ele>1063.61</ele><time>2026-04-25T00:49:13.000Z</time></trkpt>
        <trkpt lat="29.7543161" lon="103.4202669"><ele>1064.19</ele><time>2026-04-25T00:49:19.000Z</time></trkpt>
        <trkpt lat="29.7543042" lon="103.420324"><ele>1064.34</ele><time>2026-04-25T00:49:25.000Z</time></trkpt>
        <trkpt lat="29.754303" lon="103.4203872"><ele>1065.27</ele><time>2026-04-25T00:49:31.000Z</time></trkpt>
        <trkpt lat="29.7543269" lon="103.4204343"><ele>1065.61</ele><time>2026-04-25T00:49:35.000Z</time></trkpt>
        <trkpt lat="29.7543589" lon="103.4204741"><ele>1065.67</ele><time>2026-04-25T00:49:39.000Z</time></trkpt>
        <trkpt lat="29.7543868" lon="103.4205239"><ele>1065.17</ele><time>2026-04-25T00:49:43.000Z</time></trkpt>
        <trkpt lat="29.7544209" lon="103.4205657"><ele>1065.01</ele><time>2026-04-25T00:49:47.000Z</time></trkpt>
        <trkpt lat="29.7544596" lon="103.420595"><ele>1064.33</ele><time>2026-04-25T00:49:51.000Z</time></trkpt>
        <trkpt lat="29.7544911" lon="103.4206428"><ele>1063.63</ele><time>2026-04-25T00:49:57.000Z</time></trkpt>
        <trkpt lat="29.7545109" lon="103.4207093"><ele>1063.33</ele><time>2026-04-25T00:50:03.000Z</time></trkpt>
        <trkpt lat="29.7545333" lon="103.4207647"><ele>1063.67</ele><time>2026-04-25T00:50:07.000Z</time></trkpt>
        <trkpt lat="29.754564" lon="103.420811"><ele>1064.02</ele><time>2026-04-25T00:50:11.000Z</time></trkpt>
        <trkpt lat="29.7546018" lon="103.4208503"><ele>1064.21</ele><time>2026-04-25T00:50:15.000Z</time></trkpt>
        <trkpt lat="29.7546342" lon="103.4208925"><ele>1064.37</ele><time>2026-04-25T00:50:19.000Z</time></trkpt>
        <trkpt lat="29.7546609" lon="103.4209352"><ele>1064.87</ele><time>2026-04-25T00:50:23.000Z</time></trkpt>
        <trkpt lat="29.7546892" lon="103.4209751"><ele>1064.75</ele><time>2026-04-25T00:50:27.000Z</time></trkpt>
        <trkpt lat="29.7547211" lon="103.4210134"><ele>1064.5</ele><time>2026-04-25T00:50:31.000Z</time></trkpt>
        <trkpt lat="29.754768" lon="103.4210572"><ele>1064.34</ele><time>2026-04-25T00:50:37.000Z</time></trkpt>
        <trkpt lat="29.7548073" lon="103.4211113"><ele>1064.73</ele><time>2026-04-25T00:50:43.000Z</time></trkpt>
        <trkpt lat="29.7548402" lon="103.4211716"><ele>1065.15</ele><time>2026-04-25T00:50:49.000Z</time></trkpt>
        <trkpt lat="29.7548612" lon="103.421208"><ele>1065.72</ele><time>2026-04-25T00:50:57.000Z</time></trkpt>
        <trkpt lat="29.7548928" lon="103.4212461"><ele>1065.94</ele><time>2026-04-25T00:51:07.000Z</time></trkpt>
        <trkpt lat="29.7549114" lon="103.4212591"><ele>1066.44</ele><time>2026-04-25T00:51:09.000Z</time></trkpt>
        <trkpt lat="29.7549444" lon="103.4212909"><ele>1066.71</ele><time>2026-04-25T00:51:21.000Z</time></trkpt>
        <trkpt lat="29.7549444" lon="103.4212909"><ele>1066.71</ele><time>2026-04-25T00:51:38.000Z</time></trkpt>
        <trkpt lat="29.7549819" lon="103.4213376"><ele>1066.99</ele><time>2026-04-25T00:51:41.000Z</time></trkpt>
        <trkpt lat="29.7549819" lon="103.4213376"><ele>1066.99</ele><time>2026-04-25T00:51:47.000Z</time></trkpt>
        <trkpt lat="29.7550196" lon="103.42138"><ele>1066.89</ele><time>2026-04-25T00:51:53.000Z</time></trkpt>
        <trkpt lat="29.7550467" lon="103.4214339"><ele>1066.31</ele><time>2026-04-25T00:51:59.000Z</time></trkpt>
        <trkpt lat="29.7550312" lon="103.421495"><ele>1065.3</ele><time>2026-04-25T00:52:05.000Z</time></trkpt>
        <trkpt lat="29.7550183" lon="103.4215687"><ele>1064.33</ele><time>2026-04-25T00:52:19.000Z</time></trkpt>
        <trkpt lat="29.7549835" lon="103.421629"><ele>1062.92</ele><time>2026-04-25T00:52:25.000Z</time></trkpt>
        <trkpt lat="29.7549576" lon="103.4216909"><ele>1061.53</ele><time>2026-04-25T00:52:31.000Z</time></trkpt>
        <trkpt lat="29.7549634" lon="103.421748"><ele>1060.64</ele><time>2026-04-25T00:52:35.000Z</time></trkpt>
        <trkpt lat="29.7549984" lon="103.4218092"><ele>1059.85</ele><time>2026-04-25T00:52:41.000Z</time></trkpt>
        <trkpt lat="29.7550279" lon="103.4218643"><ele>1059.27</ele><time>2026-04-25T00:52:45.000Z</time></trkpt>
        <trkpt lat="29.7550461" lon="103.4219164"><ele>1058.76</ele><time>2026-04-25T00:52:49.000Z</time></trkpt>
        <trkpt lat="29.7550552" lon="103.421974"><ele>1058.28</ele><time>2026-04-25T00:52:53.000Z</time></trkpt>
        <trkpt lat="29.7550582" lon="103.4220327"><ele>1057.91</ele><time>2026-04-25T00:52:57.000Z</time></trkpt>
        <trkpt lat="29.7550672" lon="103.4221071"><ele>1057.79</ele><time>2026-04-25T00:53:03.000Z</time></trkpt>
        <trkpt lat="29.7550967" lon="103.4221794"><ele>1057.78</ele><time>2026-04-25T00:53:09.000Z</time></trkpt>
        <trkpt lat="29.7551299" lon="103.4222295"><ele>1057.97</ele><time>2026-04-25T00:53:13.000Z</time></trkpt>
        <trkpt lat="29.7551722" lon="103.4222751"><ele>1058.65</ele><time>2026-04-25T00:53:19.000Z</time></trkpt>
        <trkpt lat="29.755208" lon="103.4223285"><ele>1059.87</ele><time>2026-04-25T00:53:25.000Z</time></trkpt>
        <trkpt lat="29.7552304" lon="103.4223898"><ele>1060.59</ele><time>2026-04-25T00:53:31.000Z</time></trkpt>
        <trkpt lat="29.7552489" lon="103.4224464"><ele>1060.8</ele><time>2026-04-25T00:53:48.000Z</time></trkpt>
        <trkpt lat="29.7552531" lon="103.4225013"><ele>1060.01</ele><time>2026-04-25T00:53:52.000Z</time></trkpt>
        <trkpt lat="29.7552509" lon="103.4225406"><ele>1059.06</ele><time>2026-04-25T00:53:58.000Z</time></trkpt>
        <trkpt lat="29.7552377" lon="103.4225934"><ele>1058.47</ele><time>2026-04-25T00:54:26.000Z</time></trkpt>
        <trkpt lat="29.7552574" lon="103.4226439"><ele>1058.84</ele><time>2026-04-25T00:54:32.000Z</time></trkpt>
        <trkpt lat="29.7552913" lon="103.4226807"><ele>1058.37</ele><time>2026-04-25T00:54:38.000Z</time></trkpt>
        <trkpt lat="29.7553092" lon="103.4227341"><ele>1056.48</ele><time>2026-04-25T00:54:42.000Z</time></trkpt>
        <trkpt lat="29.755329" lon="103.4227952"><ele>1055.37</ele><time>2026-04-25T00:54:48.000Z</time></trkpt>
        <trkpt lat="29.7553376" lon="103.4228588"><ele>1054.37</ele><time>2026-04-25T00:54:54.000Z</time></trkpt>
        <trkpt lat="29.7553584" lon="103.4229233"><ele>1054.69</ele><time>2026-04-25T00:55:00.000Z</time></trkpt>
        <trkpt lat="29.7553783" lon="103.4229855"><ele>1054.96</ele><time>2026-04-25T00:55:06.000Z</time></trkpt>
        <trkpt lat="29.7553906" lon="103.4230397"><ele>1055.55</ele><time>2026-04-25T00:55:12.000Z</time></trkpt>
        <trkpt lat="29.7553894" lon="103.4230985"><ele>1056.71</ele><time>2026-04-25T00:55:20.000Z</time></trkpt>
        <trkpt lat="29.755367" lon="103.4231463"><ele>1058.87</ele><time>2026-04-25T00:55:28.000Z</time></trkpt>
        <trkpt lat="29.7553364" lon="103.4231871"><ele>1060.53</ele><time>2026-04-25T00:56:23.000Z</time></trkpt>
        <trkpt lat="29.7553445" lon="103.4232374"><ele>1062.08</ele><time>2026-04-25T00:56:35.000Z</time></trkpt>
        <trkpt lat="29.7553523" lon="103.4232956"><ele>1062.86</ele><time>2026-04-25T00:56:41.000Z</time></trkpt>
        <trkpt lat="29.7553741" lon="103.4233555"><ele>1063.57</ele><time>2026-04-25T00:56:49.000Z</time></trkpt>
        <trkpt lat="29.7553634" lon="103.4234125"><ele>1064.09</ele><time>2026-04-25T00:56:57.000Z</time></trkpt>
        <trkpt lat="29.7553547" lon="103.4234696"><ele>1065.35</ele><time>2026-04-25T00:57:03.000Z</time></trkpt>
        <trkpt lat="29.7553362" lon="103.423519"><ele>1065.82</ele><time>2026-04-25T00:57:41.000Z</time></trkpt>
        <trkpt lat="29.7552906" lon="103.4235338"><ele>1066.08</ele><time>2026-04-25T00:57:49.000Z</time></trkpt>
        <trkpt lat="29.7552424" lon="103.4234958"><ele>1066.76</ele><time>2026-04-25T00:57:57.000Z</time></trkpt>
        <trkpt lat="29.7552192" lon="103.4234356"><ele>1067.86</ele><time>2026-04-25T00:58:03.000Z</time></trkpt>
        <trkpt lat="29.7551841" lon="103.4233801"><ele>1069.21</ele><time>2026-04-25T00:58:23.000Z</time></trkpt>
        <trkpt lat="29.7551841" lon="103.4233801"><ele>1069.21</ele><time>2026-04-25T00:58:32.000Z</time></trkpt>
        <trkpt lat="29.7552183" lon="103.4233311"><ele>1070.38</ele><time>2026-04-25T00:58:35.000Z</time></trkpt>
        <trkpt lat="29.7552183" lon="103.4233311"><ele>1070.38</ele><time>2026-04-25T00:58:40.000Z</time></trkpt>
        <trkpt lat="29.7552104" lon="103.4233507"><ele>1065.87</ele><time>2026-04-25T00:58:44.000Z</time></trkpt>
        <trkpt lat="29.7551857" lon="103.4233982"><ele>1064.88</ele><time>2026-04-25T00:58:56.000Z</time></trkpt>
        <trkpt lat="29.7552021" lon="103.4233869"><ele>1065.36</ele><time>2026-04-25T00:59:50.000Z</time></trkpt>
        <trkpt lat="29.7552146" lon="103.4233361"><ele>1065.69</ele><time>2026-04-25T01:00:18.000Z</time></trkpt>
        <trkpt lat="29.7552353" lon="103.4232805"><ele>1065.95</ele><time>2026-04-25T01:00:34.000Z</time></trkpt>
        <trkpt lat="29.7552219" lon="103.4232273"><ele>1067.83</ele><time>2026-04-25T01:00:56.000Z</time></trkpt>
        <trkpt lat="29.7551901" lon="103.4231849"><ele>1069.48</ele><time>2026-04-25T01:01:02.000Z</time></trkpt>
        <trkpt lat="29.7551947" lon="103.4231381"><ele>1070.95</ele><time>2026-04-25T01:01:16.000Z</time></trkpt>
        <trkpt lat="29.7552381" lon="103.4231829"><ele>1070.12</ele><time>2026-04-25T01:03:55.000Z</time></trkpt>
        <trkpt lat="29.7552774" lon="103.4232304"><ele>1066.39</ele><time>2026-04-25T01:04:03.000Z</time></trkpt>
        <trkpt lat="29.7552534" lon="103.4232664"><ele>1064.16</ele><time>2026-04-25T01:04:07.000Z</time></trkpt>
        <trkpt lat="29.7552534" lon="103.4232664"><ele>1064.16</ele><time>2026-04-25T01:04:36.000Z</time></trkpt>
        <trkpt lat="29.7551914" lon="103.4233213"><ele>1063.74</ele><time>2026-04-25T01:04:43.000Z</time></trkpt>
        <trkpt lat="29.7551914" lon="103.4233213"><ele>1063.74</ele><time>2026-04-25T01:05:21.000Z</time></trkpt>
        <trkpt lat="29.7552195" lon="103.4233129"><ele>1065.27</ele><time>2026-04-25T01:05:45.000Z</time></trkpt>
        <trkpt lat="29.7552176" lon="103.4233436"><ele>1065.56</ele><time>2026-04-25T01:06:03.000Z</time></trkpt>
        <trkpt lat="29.7551857" lon="103.4233717"><ele>1065.93</ele><time>2026-04-25T01:06:55.000Z</time></trkpt>
        <trkpt lat="29.7551961" lon="103.4234141"><ele>1068.79</ele><time>2026-04-25T01:07:23.000Z</time></trkpt>
        <trkpt lat="29.7552329" lon="103.4234548"><ele>1069.59</ele><time>2026-04-25T01:07:31.000Z</time></trkpt>
        <trkpt lat="29.7552616" lon="103.4235025"><ele>1069.92</ele><time>2026-04-25T01:07:51.000Z</time></trkpt>
        <trkpt lat="29.7552826" lon="103.4235017"><ele>1069.54</ele><time>2026-04-25T01:07:53.000Z</time></trkpt>
        <trkpt lat="29.7553244" lon="103.4235045"><ele>1070.08</ele><time>2026-04-25T01:08:29.000Z</time></trkpt>
        <trkpt lat="29.7553743" lon="103.4234743"><ele>1071.04</ele><time>2026-04-25T01:08:39.000Z</time></trkpt>
        <trkpt lat="29.7553916" lon="103.4235065"><ele>1071.62</ele><time>2026-04-25T01:08:45.000Z</time></trkpt>
        <trkpt lat="29.7554027" lon="103.42353"><ele>1070.81</ele><time>2026-04-25T01:08:49.000Z</time></trkpt>
        <trkpt lat="29.7554233" lon="103.423597"><ele>1069.66</ele><time>2026-04-25T01:08:55.000Z</time></trkpt>
        <trkpt lat="29.7554342" lon="103.4236621"><ele>1069.4</ele><time>2026-04-25T01:09:01.000Z</time></trkpt>
        <trkpt lat="29.7554288" lon="103.4237245"><ele>1068.99</ele><time>2026-04-25T01:09:09.000Z</time></trkpt>
        <trkpt lat="29.7554314" lon="103.4237877"><ele>1066.55</ele><time>2026-04-25T01:09:17.000Z</time></trkpt>
        <trkpt lat="29.7554734" lon="103.4238247"><ele>1062.76</ele><time>2026-04-25T01:09:25.000Z</time></trkpt>
        <trkpt lat="29.7555384" lon="103.4238036"><ele>1060.23</ele><time>2026-04-25T01:09:29.000Z</time></trkpt>
        <trkpt lat="29.7555879" lon="103.4237449"><ele>1060.2</ele><time>2026-04-25T01:09:33.000Z</time></trkpt>
        <trkpt lat="29.7556367" lon="103.4236863"><ele>1060.9</ele><time>2026-04-25T01:09:39.000Z</time></trkpt>
        <trkpt lat="29.7556696" lon="103.4236079"><ele>1060.83</ele><time>2026-04-25T01:09:45.000Z</time></trkpt>
        <trkpt lat="29.7556737" lon="103.4235411"><ele>1061.96</ele><time>2026-04-25T01:09:49.000Z</time></trkpt>
        <trkpt lat="29.755689" lon="103.4234784"><ele>1062.21</ele><time>2026-04-25T01:09:55.000Z</time></trkpt>
        <trkpt lat="29.7557065" lon="103.4234147"><ele>1063.88</ele><time>2026-04-25T01:10:01.000Z</time></trkpt>
        <trkpt lat="29.7557417" lon="103.4233761"><ele>1064.72</ele><time>2026-04-25T01:10:05.000Z</time></trkpt>
        <trkpt lat="29.7557795" lon="103.423336"><ele>1064.27</ele><time>2026-04-25T01:10:09.000Z</time></trkpt>
        <trkpt lat="29.7558212" lon="103.4232981"><ele>1064.19</ele><time>2026-04-25T01:10:13.000Z</time></trkpt>
        <trkpt lat="29.7558698" lon="103.4232423"><ele>1063.53</ele><time>2026-04-25T01:10:17.000Z</time></trkpt>
        <trkpt lat="29.7559057" lon="103.4231949"><ele>1062.29</ele><time>2026-04-25T01:10:21.000Z</time></trkpt>
        <trkpt lat="29.7559354" lon="103.423148"><ele>1061.4</ele><time>2026-04-25T01:10:27.000Z</time></trkpt>
        <trkpt lat="29.7559656" lon="103.4231021"><ele>1059.94</ele><time>2026-04-25T01:10:37.000Z</time></trkpt>
        <trkpt lat="29.7560081" lon="103.4230584"><ele>1058.4</ele><time>2026-04-25T01:10:43.000Z</time></trkpt>
        <trkpt lat="29.7560554" lon="103.4230299"><ele>1055.86</ele><time>2026-04-25T01:10:49.000Z</time></trkpt>
        <trkpt lat="29.7561093" lon="103.4230291"><ele>1054.6</ele><time>2026-04-25T01:10:55.000Z</time></trkpt>
        <trkpt lat="29.7561756" lon="103.4230131"><ele>1053.31</ele><time>2026-04-25T01:10:59.000Z</time></trkpt>
        <trkpt lat="29.7562266" lon="103.4229954"><ele>1052.76</ele><time>2026-04-25T01:11:03.000Z</time></trkpt>
        <trkpt lat="29.7562745" lon="103.4229863"><ele>1051.98</ele><time>2026-04-25T01:11:09.000Z</time></trkpt>
        <trkpt lat="29.7563231" lon="103.422973"><ele>1051.11</ele><time>2026-04-25T01:11:15.000Z</time></trkpt>
        <trkpt lat="29.7563432" lon="103.4229291"><ele>1049.99</ele><time>2026-04-25T01:11:17.000Z</time></trkpt>
        <trkpt lat="29.7563565" lon="103.4228615"><ele>1049.82</ele><time>2026-04-25T01:11:21.000Z</time></trkpt>
        <trkpt lat="29.7563665" lon="103.4227909"><ele>1050.35</ele><time>2026-04-25T01:11:27.000Z</time></trkpt>
        <trkpt lat="29.7563825" lon="103.4227206"><ele>1052.69</ele><time>2026-04-25T01:11:33.000Z</time></trkpt>
        <trkpt lat="29.7564151" lon="103.4226696"><ele>1054.13</ele><time>2026-04-25T01:11:39.000Z</time></trkpt>
        <trkpt lat="29.756447" lon="103.4226271"><ele>1053.67</ele><time>2026-04-25T01:11:43.000Z</time></trkpt>
        <trkpt lat="29.756487" lon="103.4225856"><ele>1053.55</ele><time>2026-04-25T01:11:47.000Z</time></trkpt>
        <trkpt lat="29.7565124" lon="103.4225381"><ele>1054.46</ele><time>2026-04-25T01:11:51.000Z</time></trkpt>
        <trkpt lat="29.7565523" lon="103.4225017"><ele>1054.19</ele><time>2026-04-25T01:11:55.000Z</time></trkpt>
        <trkpt lat="29.7566011" lon="103.4225076"><ele>1053.03</ele><time>2026-04-25T01:12:01.000Z</time></trkpt>
        <trkpt lat="29.7566569" lon="103.4224945"><ele>1051.47</ele><time>2026-04-25T01:12:07.000Z</time></trkpt>
        <trkpt lat="29.7567115" lon="103.4224838"><ele>1050.4</ele><time>2026-04-25T01:12:13.000Z</time></trkpt>
        <trkpt lat="29.7567733" lon="103.4224924"><ele>1049.47</ele><time>2026-04-25T01:12:19.000Z</time></trkpt>
        <trkpt lat="29.7568321" lon="103.4224922"><ele>1048.05</ele><time>2026-04-25T01:12:25.000Z</time></trkpt>
        <trkpt lat="29.7568819" lon="103.4224872"><ele>1046.33</ele><time>2026-04-25T01:12:29.000Z</time></trkpt>
        <trkpt lat="29.7569115" lon="103.4224495"><ele>1045.52</ele><time>2026-04-25T01:12:33.000Z</time></trkpt>
        <trkpt lat="29.7569413" lon="103.4224061"><ele>1045.45</ele><time>2026-04-25T01:12:39.000Z</time></trkpt>
        <trkpt lat="29.7569654" lon="103.4223887"><ele>1044.56</ele><time>2026-04-25T01:12:45.000Z</time></trkpt>
        <trkpt lat="29.7570035" lon="103.4223797"><ele>1043.77</ele><time>2026-04-25T01:12:51.000Z</time></trkpt>
        <trkpt lat="29.7570439" lon="103.4223806"><ele>1042.72</ele><time>2026-04-25T01:12:57.000Z</time></trkpt>
        <trkpt lat="29.7570948" lon="103.4223811"><ele>1042.4</ele><time>2026-04-25T01:13:13.000Z</time></trkpt>
        <trkpt lat="29.7570996" lon="103.4223447"><ele>1040.7</ele><time>2026-04-25T01:13:21.000Z</time></trkpt>
        <trkpt lat="29.7571073" lon="103.4222944"><ele>1038.05</ele><time>2026-04-25T01:13:25.000Z</time></trkpt>
        <trkpt lat="29.7571452" lon="103.4222856"><ele>1036.29</ele><time>2026-04-25T01:13:29.000Z</time></trkpt>
        <trkpt lat="29.7571916" lon="103.4223146"><ele>1034.53</ele><time>2026-04-25T01:13:37.000Z</time></trkpt>
        <trkpt lat="29.7572127" lon="103.4223343"><ele>1033.95</ele><time>2026-04-25T01:13:39.000Z</time></trkpt>
        <trkpt lat="29.7572493" lon="103.4223527"><ele>1033.33</ele><time>2026-04-25T01:13:49.000Z</time></trkpt>
        <trkpt lat="29.7572493" lon="103.4223527"><ele>1033.33</ele><time>2026-04-25T01:14:42.000Z</time></trkpt>
        <trkpt lat="29.757203" lon="103.4222754"><ele>1031.8</ele><time>2026-04-25T01:14:51.000Z</time></trkpt>
        <trkpt lat="29.757203" lon="103.4222754"><ele>1031.8</ele><time>2026-04-25T01:14:54.000Z</time></trkpt>
        <trkpt lat="29.7571718" lon="103.4222298"><ele>1031.28</ele><time>2026-04-25T01:14:56.000Z</time></trkpt>
        <trkpt lat="29.7571659" lon="103.4222746"><ele>1033.28</ele><time>2026-04-25T01:15:04.000Z</time></trkpt>
        <trkpt lat="29.757166" lon="103.4223282"><ele>1030.83</ele><time>2026-04-25T01:15:14.000Z</time></trkpt>
        <trkpt lat="29.7572029" lon="103.4223735"><ele>1032.76</ele><time>2026-04-25T01:15:52.000Z</time></trkpt>
        <trkpt lat="29.7572165" lon="103.4224322"><ele>1031.38</ele><time>2026-04-25T01:16:42.000Z</time></trkpt>
        <trkpt lat="29.75722" lon="103.4225049"><ele>1029.18</ele><time>2026-04-25T01:16:52.000Z</time></trkpt>
        <trkpt lat="29.7572371" lon="103.4225614"><ele>1029.51</ele><time>2026-04-25T01:16:56.000Z</time></trkpt>
        <trkpt lat="29.7572766" lon="103.4226216"><ele>1029.97</ele><time>2026-04-25T01:17:00.000Z</time></trkpt>
        <trkpt lat="29.7572948" lon="103.4226839"><ele>1031.06</ele><time>2026-04-25T01:17:04.000Z</time></trkpt>
        <trkpt lat="29.7573311" lon="103.4227216"><ele>1031.1</ele><time>2026-04-25T01:17:08.000Z</time></trkpt>
        <trkpt lat="29.7573908" lon="103.4227447"><ele>1028.92</ele><time>2026-04-25T01:17:18.000Z</time></trkpt>
        <trkpt lat="29.7574454" lon="103.4227495"><ele>1026.14</ele><time>2026-04-25T01:17:22.000Z</time></trkpt>
        <trkpt lat="29.7574995" lon="103.4227427"><ele>1023.75</ele><time>2026-04-25T01:17:28.000Z</time></trkpt>
        <trkpt lat="29.7575603" lon="103.4227377"><ele>1022.59</ele><time>2026-04-25T01:17:40.000Z</time></trkpt>
        <trkpt lat="29.7576223" lon="103.4227186"><ele>1023.16</ele><time>2026-04-25T01:17:46.000Z</time></trkpt>
        <trkpt lat="29.7576728" lon="103.4227125"><ele>1024.08</ele><time>2026-04-25T01:17:54.000Z</time></trkpt>
        <trkpt lat="29.7577178" lon="103.4227268"><ele>1025.35</ele><time>2026-04-25T01:18:02.000Z</time></trkpt>
        <trkpt lat="29.7577536" lon="103.4227838"><ele>1028.56</ele><time>2026-04-25T01:18:08.000Z</time></trkpt>
        <trkpt lat="29.757766" lon="103.4228448"><ele>1031.12</ele><time>2026-04-25T01:18:12.000Z</time></trkpt>
        <trkpt lat="29.7577806" lon="103.4229"><ele>1033.32</ele><time>2026-04-25T01:18:16.000Z</time></trkpt>
        <trkpt lat="29.7578247" lon="103.4229527"><ele>1034.24</ele><time>2026-04-25T01:18:22.000Z</time></trkpt>
        <trkpt lat="29.7578695" lon="103.4229927"><ele>1034.25</ele><time>2026-04-25T01:18:28.000Z</time></trkpt>
        <trkpt lat="29.7578996" lon="103.4230347"><ele>1034.07</ele><time>2026-04-25T01:18:32.000Z</time></trkpt>
        <trkpt lat="29.757915" lon="103.4230838"><ele>1035.26</ele><time>2026-04-25T01:18:36.000Z</time></trkpt>
        <trkpt lat="29.7579318" lon="103.4231434"><ele>1035.54</ele><time>2026-04-25T01:18:42.000Z</time></trkpt>
        <trkpt lat="29.7579318" lon="103.4231434"><ele>1035.54</ele><time>2026-04-25T01:19:00.000Z</time></trkpt>
        <trkpt lat="29.7579466" lon="103.4232275"><ele>1036.48</ele><time>2026-04-25T01:19:11.000Z</time></trkpt>
        <trkpt lat="29.7579466" lon="103.4232275"><ele>1036.48</ele><time>2026-04-25T01:19:14.000Z</time></trkpt>
        <trkpt lat="29.7579235" lon="103.4232844"><ele>1038.56</ele><time>2026-04-25T01:19:22.000Z</time></trkpt>
        <trkpt lat="29.7579026" lon="103.4233429"><ele>1038.95</ele><time>2026-04-25T01:19:28.000Z</time></trkpt>
        <trkpt lat="29.7578642" lon="103.4233798"><ele>1040.74</ele><time>2026-04-25T01:19:36.000Z</time></trkpt>
        <trkpt lat="29.757834" lon="103.4234323"><ele>1042.99</ele><time>2026-04-25T01:19:44.000Z</time></trkpt>
        <trkpt lat="29.7578027" lon="103.4234987"><ele>1044</ele><time>2026-04-25T01:19:50.000Z</time></trkpt>
        <trkpt lat="29.7577718" lon="103.4235518"><ele>1043.95</ele><time>2026-04-25T01:19:54.000Z</time></trkpt>
        <trkpt lat="29.7577546" lon="103.4236065"><ele>1044.57</ele><time>2026-04-25T01:19:58.000Z</time></trkpt>
        <trkpt lat="29.7577535" lon="103.4236621"><ele>1045.33</ele><time>2026-04-25T01:20:02.000Z</time></trkpt>
        <trkpt lat="29.757745" lon="103.42373"><ele>1045.82</ele><time>2026-04-25T01:20:08.000Z</time></trkpt>
        <trkpt lat="29.7577318" lon="103.4237817"><ele>1046.12</ele><time>2026-04-25T01:20:14.000Z</time></trkpt>
        <trkpt lat="29.7577607" lon="103.4238108"><ele>1047.8</ele><time>2026-04-25T01:20:24.000Z</time></trkpt>
        <trkpt lat="29.7578136" lon="103.4238051"><ele>1049.37</ele><time>2026-04-25T01:20:32.000Z</time></trkpt>
        <trkpt lat="29.7578574" lon="103.4237718"><ele>1049.68</ele><time>2026-04-25T01:20:36.000Z</time></trkpt>
        <trkpt lat="29.7578921" lon="103.423719"><ele>1048.82</ele><time>2026-04-25T01:20:40.000Z</time></trkpt>
        <trkpt lat="29.7579142" lon="103.4236559"><ele>1048.22</ele><time>2026-04-25T01:20:44.000Z</time></trkpt>
        <trkpt lat="29.7579227" lon="103.4235896"><ele>1047.08</ele><time>2026-04-25T01:20:48.000Z</time></trkpt>
        <trkpt lat="29.7579363" lon="103.4235211"><ele>1047.18</ele><time>2026-04-25T01:20:56.000Z</time></trkpt>
        <trkpt lat="29.7579803" lon="103.4234975"><ele>1048.72</ele><time>2026-04-25T01:21:10.000Z</time></trkpt>
        <trkpt lat="29.7579923" lon="103.423495"><ele>1050.58</ele><time>2026-04-25T01:21:12.000Z</time></trkpt>
        <trkpt lat="29.7580273" lon="103.4235234"><ele>1052.01</ele><time>2026-04-25T01:21:28.000Z</time></trkpt>
        <trkpt lat="29.7580497" lon="103.4235226"><ele>1051.82</ele><time>2026-04-25T01:21:32.000Z</time></trkpt>
        <trkpt lat="29.758045" lon="103.4234815"><ele>1051.94</ele><time>2026-04-25T01:21:40.000Z</time></trkpt>
        <trkpt lat="29.7580745" lon="103.423458"><ele>1053.38</ele><time>2026-04-25T01:21:52.000Z</time></trkpt>
        <trkpt lat="29.7581201" lon="103.4234278"><ele>1054.64</ele><time>2026-04-25T01:22:14.000Z</time></trkpt>
        <trkpt lat="29.7581729" lon="103.4234093"><ele>1057.89</ele><time>2026-04-25T01:22:20.000Z</time></trkpt>
        <trkpt lat="29.758223" lon="103.4234028"><ele>1060.19</ele><time>2026-04-25T01:22:24.000Z</time></trkpt>
        <trkpt lat="29.7582727" lon="103.4234071"><ele>1061.55</ele><time>2026-04-25T01:22:30.000Z</time></trkpt>
        <trkpt lat="29.7583044" lon="103.4233738"><ele>1062.42</ele><time>2026-04-25T01:22:36.000Z</time></trkpt>
        <trkpt lat="29.758305" lon="103.4233207"><ele>1062.67</ele><time>2026-04-25T01:22:42.000Z</time></trkpt>
        <trkpt lat="29.7582767" lon="103.4232651"><ele>1062.61</ele><time>2026-04-25T01:22:46.000Z</time></trkpt>
        <trkpt lat="29.7582317" lon="103.4232345"><ele>1062.67</ele><time>2026-04-25T01:22:50.000Z</time></trkpt>
        <trkpt lat="29.75819" lon="103.4231997"><ele>1064.22</ele><time>2026-04-25T01:22:54.000Z</time></trkpt>
        <trkpt lat="29.7581766" lon="103.4231408"><ele>1065.14</ele><time>2026-04-25T01:22:58.000Z</time></trkpt>
        <trkpt lat="29.7581866" lon="103.4230691"><ele>1065.71</ele><time>2026-04-25T01:23:04.000Z</time></trkpt>
        <trkpt lat="29.7581995" lon="103.423007"><ele>1066.41</ele><time>2026-04-25T01:23:08.000Z</time></trkpt>
        <trkpt lat="29.7581933" lon="103.4229372"><ele>1068.73</ele><time>2026-04-25T01:23:16.000Z</time></trkpt>
        <trkpt lat="29.7581778" lon="103.4228956"><ele>1071.61</ele><time>2026-04-25T01:23:24.000Z</time></trkpt>
        <trkpt lat="29.7581813" lon="103.4228475"><ele>1071.96</ele><time>2026-04-25T01:23:28.000Z</time></trkpt>
        <trkpt lat="29.7582157" lon="103.4227987"><ele>1071.86</ele><time>2026-04-25T01:23:34.000Z</time></trkpt>
        <trkpt lat="29.7582667" lon="103.4227823"><ele>1071.56</ele><time>2026-04-25T01:23:40.000Z</time></trkpt>
        <trkpt lat="29.7583151" lon="103.4227617"><ele>1071.26</ele><time>2026-04-25T01:23:44.000Z</time></trkpt>
        <trkpt lat="29.7583644" lon="103.4227671"><ele>1070.57</ele><time>2026-04-25T01:24:04.000Z</time></trkpt>
        <trkpt lat="29.7584223" lon="103.4227982"><ele>1071.17</ele><time>2026-04-25T01:24:40.000Z</time></trkpt>
        <trkpt lat="29.7584752" lon="103.4227992"><ele>1071.21</ele><time>2026-04-25T01:24:48.000Z</time></trkpt>
        <trkpt lat="29.7585105" lon="103.4227682"><ele>1072.12</ele><time>2026-04-25T01:24:54.000Z</time></trkpt>
        <trkpt lat="29.7585452" lon="103.4227335"><ele>1073.52</ele><time>2026-04-25T01:25:00.000Z</time></trkpt>
        <trkpt lat="29.7585853" lon="103.422684"><ele>1075.55</ele><time>2026-04-25T01:25:30.000Z</time></trkpt>
        <trkpt lat="29.7586023" lon="103.4226276"><ele>1077.51</ele><time>2026-04-25T01:25:38.000Z</time></trkpt>
        <trkpt lat="29.758649" lon="103.4226248"><ele>1080.09</ele><time>2026-04-25T01:25:42.000Z</time></trkpt>
        <trkpt lat="29.7587002" lon="103.4226755"><ele>1080.95</ele><time>2026-04-25T01:25:46.000Z</time></trkpt>
        <trkpt lat="29.7587206" lon="103.4227409"><ele>1080.24</ele><time>2026-04-25T01:25:50.000Z</time></trkpt>
        <trkpt lat="29.7587399" lon="103.4228003"><ele>1079.37</ele><time>2026-04-25T01:25:54.000Z</time></trkpt>
        <trkpt lat="29.7587482" lon="103.4228566"><ele>1079.73</ele><time>2026-04-25T01:25:58.000Z</time></trkpt>
        <trkpt lat="29.758752" lon="103.4229303"><ele>1080.36</ele><time>2026-04-25T01:26:04.000Z</time></trkpt>
        <trkpt lat="29.7587566" lon="103.4229938"><ele>1081.49</ele><time>2026-04-25T01:26:10.000Z</time></trkpt>
        <trkpt lat="29.758762" lon="103.4230584"><ele>1081.99</ele><time>2026-04-25T01:26:20.000Z</time></trkpt>
        <trkpt lat="29.758758" lon="103.4231219"><ele>1082.83</ele><time>2026-04-25T01:26:26.000Z</time></trkpt>
        <trkpt lat="29.7587677" lon="103.4231956"><ele>1083.42</ele><time>2026-04-25T01:26:32.000Z</time></trkpt>
        <trkpt lat="29.7587931" lon="103.4232604"><ele>1083.66</ele><time>2026-04-25T01:26:38.000Z</time></trkpt>
        <trkpt lat="29.7588185" lon="103.4233139"><ele>1084.22</ele><time>2026-04-25T01:26:42.000Z</time></trkpt>
        <trkpt lat="29.7588376" lon="103.4233738"><ele>1085.03</ele><time>2026-04-25T01:26:48.000Z</time></trkpt>
        <trkpt lat="29.7588273" lon="103.4234296"><ele>1085.18</ele><time>2026-04-25T01:26:52.000Z</time></trkpt>
        <trkpt lat="29.7588127" lon="103.4234881"><ele>1086</ele><time>2026-04-25T01:27:00.000Z</time></trkpt>
        <trkpt lat="29.7587791" lon="103.4235353"><ele>1087.17</ele><time>2026-04-25T01:27:06.000Z</time></trkpt>
        <trkpt lat="29.7587353" lon="103.4235705"><ele>1087.78</ele><time>2026-04-25T01:27:12.000Z</time></trkpt>
        <trkpt lat="29.7586849" lon="103.4235879"><ele>1088.95</ele><time>2026-04-25T01:27:20.000Z</time></trkpt>
        <trkpt lat="29.758638" lon="103.4236189"><ele>1090.72</ele><time>2026-04-25T01:27:26.000Z</time></trkpt>
        <trkpt lat="29.7586095" lon="103.4236629"><ele>1092.9</ele><time>2026-04-25T01:27:32.000Z</time></trkpt>
        <trkpt lat="29.7586005" lon="103.4237156"><ele>1094.04</ele><time>2026-04-25T01:27:48.000Z</time></trkpt>
        <trkpt lat="29.7585784" lon="103.4237622"><ele>1096.55</ele><time>2026-04-25T01:27:58.000Z</time></trkpt>
        <trkpt lat="29.7585679" lon="103.4238139"><ele>1098.74</ele><time>2026-04-25T01:28:44.000Z</time></trkpt>
        <trkpt lat="29.7585679" lon="103.4238139"><ele>1098.74</ele><time>2026-04-25T01:29:46.000Z</time></trkpt>
        <trkpt lat="29.7586079" lon="103.4237649"><ele>1098.62</ele><time>2026-04-25T01:30:35.000Z</time></trkpt>
        <trkpt lat="29.7586079" lon="103.4237649"><ele>1098.62</ele><time>2026-04-25T01:30:38.000Z</time></trkpt>
        <trkpt lat="29.7586001" lon="103.4238175"><ele>1101.04</ele><time>2026-04-25T01:30:42.000Z</time></trkpt>
        <trkpt lat="29.758581" lon="103.4238664"><ele>1099.15</ele><time>2026-04-25T01:30:50.000Z</time></trkpt>
        <trkpt lat="29.7585747" lon="103.4239197"><ele>1099.15</ele><time>2026-04-25T01:30:56.000Z</time></trkpt>
        <trkpt lat="29.7585748" lon="103.4239784"><ele>1098.99</ele><time>2026-04-25T01:31:00.000Z</time></trkpt>
        <trkpt lat="29.7585756" lon="103.4240427"><ele>1098.73</ele><time>2026-04-25T01:31:06.000Z</time></trkpt>
        <trkpt lat="29.7585562" lon="103.4241015"><ele>1099.18</ele><time>2026-04-25T01:31:10.000Z</time></trkpt>
        <trkpt lat="29.7585478" lon="103.4241619"><ele>1099.71</ele><time>2026-04-25T01:31:18.000Z</time></trkpt>
        <trkpt lat="29.7585419" lon="103.4242203"><ele>1101.39</ele><time>2026-04-25T01:31:26.000Z</time></trkpt>
        <trkpt lat="29.7585369" lon="103.4242739"><ele>1102.21</ele><time>2026-04-25T01:31:32.000Z</time></trkpt>
        <trkpt lat="29.7585258" lon="103.4243305"><ele>1103.54</ele><time>2026-04-25T01:31:44.000Z</time></trkpt>
        <trkpt lat="29.7584959" lon="103.4243846"><ele>1105</ele><time>2026-04-25T01:31:48.000Z</time></trkpt>
        <trkpt lat="29.7584688" lon="103.4244408"><ele>1105.97</ele><time>2026-04-25T01:31:56.000Z</time></trkpt>
        <trkpt lat="29.7584496" lon="103.4244958"><ele>1107.57</ele><time>2026-04-25T01:32:10.000Z</time></trkpt>
        <trkpt lat="29.7584347" lon="103.4245613"><ele>1109.15</ele><time>2026-04-25T01:32:18.000Z</time></trkpt>
        <trkpt lat="29.7584225" lon="103.424623"><ele>1110.71</ele><time>2026-04-25T01:32:24.000Z</time></trkpt>
        <trkpt lat="29.7584197" lon="103.4246846"><ele>1111.78</ele><time>2026-04-25T01:32:30.000Z</time></trkpt>
        <trkpt lat="29.7584169" lon="103.4247524"><ele>1111.84</ele><time>2026-04-25T01:32:38.000Z</time></trkpt>
        <trkpt lat="29.7584025" lon="103.4248108"><ele>1112.02</ele><time>2026-04-25T01:32:44.000Z</time></trkpt>
        <trkpt lat="29.7583897" lon="103.4248718"><ele>1112.35</ele><time>2026-04-25T01:33:02.000Z</time></trkpt>
        <trkpt lat="29.7583925" lon="103.424929"><ele>1113.76</ele><time>2026-04-25T01:33:12.000Z</time></trkpt>
        <trkpt lat="29.7584005" lon="103.4249994"><ele>1114.75</ele><time>2026-04-25T01:33:20.000Z</time></trkpt>
        <trkpt lat="29.7584412" lon="103.425056"><ele>1114.29</ele><time>2026-04-25T01:33:32.000Z</time></trkpt>
        <trkpt lat="29.7584539" lon="103.4250914"><ele>1116.11</ele><time>2026-04-25T01:33:36.000Z</time></trkpt>
        <trkpt lat="29.7584877" lon="103.4250817"><ele>1116.75</ele><time>2026-04-25T01:33:38.000Z</time></trkpt>
        <trkpt lat="29.7584911" lon="103.4250605"><ele>1117.03</ele><time>2026-04-25T01:33:40.000Z</time></trkpt>
        <trkpt lat="29.7584516" lon="103.4250503"><ele>1117.36</ele><time>2026-04-25T01:34:30.000Z</time></trkpt>
        <trkpt lat="29.7584635" lon="103.4250786"><ele>1118.33</ele><time>2026-04-25T01:35:00.000Z</time></trkpt>
        <trkpt lat="29.7584877" lon="103.4250598"><ele>1119.49</ele><time>2026-04-25T01:35:06.000Z</time></trkpt>
        <trkpt lat="29.758456" lon="103.425061"><ele>1119.23</ele><time>2026-04-25T01:35:36.000Z</time></trkpt>
        <trkpt lat="29.7584582" lon="103.4251121"><ele>1119.88</ele><time>2026-04-25T01:35:48.000Z</time></trkpt>
        <trkpt lat="29.7584571" lon="103.4251746"><ele>1119.38</ele><time>2026-04-25T01:36:02.000Z</time></trkpt>
        <trkpt lat="29.7584617" lon="103.4252337"><ele>1117.7</ele><time>2026-04-25T01:36:20.000Z</time></trkpt>
        <trkpt lat="29.7584862" lon="103.4252883"><ele>1116.9</ele><time>2026-04-25T01:36:24.000Z</time></trkpt>
        <trkpt lat="29.7585155" lon="103.4253376"><ele>1116.72</ele><time>2026-04-25T01:36:30.000Z</time></trkpt>
        <trkpt lat="29.758549" lon="103.4253964"><ele>1116.18</ele><time>2026-04-25T01:36:36.000Z</time></trkpt>
        <trkpt lat="29.7585841" lon="103.4254435"><ele>1114.98</ele><time>2026-04-25T01:36:40.000Z</time></trkpt>
        <trkpt lat="29.7586216" lon="103.4254886"><ele>1114.43</ele><time>2026-04-25T01:36:44.000Z</time></trkpt>
        <trkpt lat="29.7586604" lon="103.4255363"><ele>1115.38</ele><time>2026-04-25T01:36:50.000Z</time></trkpt>
        <trkpt lat="29.7586919" lon="103.4255951"><ele>1116.32</ele><time>2026-04-25T01:36:58.000Z</time></trkpt>
        <trkpt lat="29.7587185" lon="103.425648"><ele>1117.95</ele><time>2026-04-25T01:37:04.000Z</time></trkpt>
        <trkpt lat="29.7587466" lon="103.4257021"><ele>1118.6</ele><time>2026-04-25T01:37:12.000Z</time></trkpt>
        <trkpt lat="29.7587406" lon="103.4257612"><ele>1120.27</ele><time>2026-04-25T01:37:20.000Z</time></trkpt>
        <trkpt lat="29.7587109" lon="103.4258099"><ele>1119.82</ele><time>2026-04-25T01:37:26.000Z</time></trkpt>
        <trkpt lat="29.7586847" lon="103.4258697"><ele>1118.26</ele><time>2026-04-25T01:37:42.000Z</time></trkpt>
        <trkpt lat="29.7586716" lon="103.4259261"><ele>1119.51</ele><time>2026-04-25T01:37:48.000Z</time></trkpt>
        <trkpt lat="29.7586427" lon="103.4258871"><ele>1119.96</ele><time>2026-04-25T01:38:12.000Z</time></trkpt>
        <trkpt lat="29.7586187" lon="103.4258374"><ele>1121.12</ele><time>2026-04-25T01:38:18.000Z</time></trkpt>
        <trkpt lat="29.7586204" lon="103.4257776"><ele>1122</ele><time>2026-04-25T01:38:26.000Z</time></trkpt>
        <trkpt lat="29.7585958" lon="103.4257227"><ele>1122.96</ele><time>2026-04-25T01:38:32.000Z</time></trkpt>
        <trkpt lat="29.75855" lon="103.4256672"><ele>1124.16</ele><time>2026-04-25T01:38:38.000Z</time></trkpt>
        <trkpt lat="29.7585102" lon="103.4256228"><ele>1124.92</ele><time>2026-04-25T01:38:42.000Z</time></trkpt>
        <trkpt lat="29.7584767" lon="103.4255831"><ele>1126.01</ele><time>2026-04-25T01:38:46.000Z</time></trkpt>
        <trkpt lat="29.7584403" lon="103.4255461"><ele>1126.67</ele><time>2026-04-25T01:38:50.000Z</time></trkpt>
        <trkpt lat="29.7583958" lon="103.4254964"><ele>1127.79</ele><time>2026-04-25T01:38:56.000Z</time></trkpt>
        <trkpt lat="29.7583593" lon="103.425453"><ele>1128.28</ele><time>2026-04-25T01:39:00.000Z</time></trkpt>
        <trkpt lat="29.7583223" lon="103.4254191"><ele>1128.74</ele><time>2026-04-25T01:39:04.000Z</time></trkpt>
        <trkpt lat="29.7583156" lon="103.4254596"><ele>1128.21</ele><time>2026-04-25T01:39:10.000Z</time></trkpt>
        <trkpt lat="29.7583353" lon="103.425488"><ele>1126.59</ele><time>2026-04-25T01:39:14.000Z</time></trkpt>
        <trkpt lat="29.7583353" lon="103.425488"><ele>1126.59</ele><time>2026-04-25T01:39:26.000Z</time></trkpt>
        <trkpt lat="29.7583281" lon="103.4254484"><ele>1125.88</ele><time>2026-04-25T01:40:05.000Z</time></trkpt>
        <trkpt lat="29.7583281" lon="103.4254484"><ele>1125.88</ele><time>2026-04-25T01:40:16.000Z</time></trkpt>
        <trkpt lat="29.7582908" lon="103.4253943"><ele>1125.14</ele><time>2026-04-25T01:40:20.000Z</time></trkpt>
        <trkpt lat="29.7582509" lon="103.4253392"><ele>1124.91</ele><time>2026-04-25T01:40:24.000Z</time></trkpt>
        <trkpt lat="29.7582123" lon="103.4252937"><ele>1126.01</ele><time>2026-04-25T01:40:28.000Z</time></trkpt>
        <trkpt lat="29.758179" lon="103.4252463"><ele>1126.61</ele><time>2026-04-25T01:40:32.000Z</time></trkpt>
        <trkpt lat="29.758146" lon="103.4252083"><ele>1126.93</ele><time>2026-04-25T01:40:36.000Z</time></trkpt>
        <trkpt lat="29.7581639" lon="103.4252438"><ele>1127.44</ele><time>2026-04-25T01:40:46.000Z</time></trkpt>
        <trkpt lat="29.7582053" lon="103.4252854"><ele>1125.34</ele><time>2026-04-25T01:40:50.000Z</time></trkpt>
        <trkpt lat="29.758254" lon="103.4253351"><ele>1123.7</ele><time>2026-04-25T01:40:54.000Z</time></trkpt>
        <trkpt lat="29.758254" lon="103.4253351"><ele>1123.7</ele><time>2026-04-25T01:40:56.000Z</time></trkpt>
      </trkseg>
  </trk>
</gpx>